GFSGL_prec_cthk_000.txt.gz
RH
57 57 60 60 50 42 37 38 40 44 45 51 58 65 74 78 80 77 77 83 81 77 73 69 65 61 56 55 55 54 53 53 52 45 46 46 46 49 52 52 52 58 64
58 62 65 61 53 49 44 41 43 50 57 60 72 85 84 84 85 86 84 81 78 73 67 60 54 50 49 47 47 46 45 45 45 41 40 40 40 42 45 47 49 48 52
71 66 61 56 56 56 48 47 51 62 71 80 85 91 93 91 90 88 83 77 68 60 56 53 50 47 44 41 38 37 37 37 37 36 34 33 33 31 32 36 38 43 45
66 59 57 58 58 55 57 55 65 75 85 90 97 97 95 92 88 84 77 67 61 57 54 50 45 40 37 34 32 29 29 29 30 30 30 29 30 28 27 26 24 24 32
61 61 60 62 65 64 63 67 75 89 97 98 97 96 95 93 90 84 71 62 58 52 44 38 34 29 25 25 28 30 34 38 42 44 43 42 41 41 38 33 29 23 19
61 66 68 62 63 68 76 84 92 97 96 95 92 91 92 87 79 70 64 59 51 42 35 27 24 22 26 33 39 45 49 50 54 58 58 57 55 55 53 48 41 37 29
60 58 68 69 67 74 81 87 91 91 89 88 85 79 73 69 64 59 54 47 39 32 27 23 24 28 37 46 54 60 65 69 70 71 72 73 73 71 67 62 56 49 42
58 63 71 75 69 77 83 82 77 73 70 68 66 64 60 56 54 49 43 36 30 27 26 27 34 43 57 64 69 73 76 78 82 83 80 81 83 82 79 71 68 64 60
64 61 64 65 70 74 68 64 61 59 59 56 54 50 46 42 41 37 34 30 29 29 31 39 53 64 75 78 80 82 86 91 95 96 94 92 91 91 90 82 77 74 69
69 69 71 74 65 58 55 52 51 47 42 39 39 42 43 44 43 39 37 34 32 35 42 59 75 82 83 86 90 93 94 96 97 97 98 97 94 92 92 93 89 83 80
75 76 78 67 59 52 47 41 36 37 38 41 42 46 50 52 47 43 41 41 40 45 64 81 86 87 89 92 93 90 93 97 98 97 97 97 92 87 87 90 95 94 87
78 80 71 62 50 41 34 37 39 40 46 47 50 53 60 58 53 48 46 47 49 67 87 92 93 90 94 86 81 82 85 88 92 93 94 96 97 95 95 97 96 97 97
80 75 62 45 37 37 38 39 44 53 58 63 63 59 56 56 55 56 53 53 69 90 99 99 95 96 85 83 81 81 83 87 90 93 94 93 89 90 94 99 98 98 99
76 62 40 37 40 40 40 52 61 67 65 63 64 64 62 62 60 57 58 72 98 98 98 97 98 94 87 84 85 84 85 87 89 92 93 91 93 96 95 93 91 98 99
64 45 37 40 42 40 51 64 69 71 72 72 74 73 72 70 66 64 81 98 98 98 98 98 98 95 90 85 79 79 82 82 84 88 91 97 97 96 97 98 98 98 97
45 38 37 41 45 49 59 66 76 80 84 84 80 76 77 72 72 92 98 98 98 98 98 98 98 99 91 83 79 77 78 78 81 81 83 87 88 89 89 84 85 83 95
38 36 40 44 49 56 64 66 69 85 87 80 78 76 78 83 96 99 98 98 98 98 98 98 98 98 95 87 82 81 79 79 80 79 78 81 81 82 76 69 74 84 88
33 38 42 47 54 62 67 71 82 83 81 83 81 82 84 96 99 98 98 98 98 98 98 98 98 98 98 95 91 86 83 81 80 79 78 79 82 81 77 74 75 82 90
36 38 44 51 57 64 71 82 85 83 85 90 88 76 87 98 99 99 98 98 98 98 98 98 98 98 98 97 96 93 89 85 82 80 79 80 81 83 78 72 70 79 87
37 44 49 53 60 67 78 82 86 84 89 94 86 78 90 97 97 98 98 98 98 98 98 98 98 98 98 95 94 94 92 89 86 82 78 78 80 81 79 76 68 68 69
45 48 51 54 61 72 78 83 83 83 92 90 79 80 96 98 97 98 98 98 98 98 98 98 97 92 84 78 70 70 76 80 80 79 78 74 75 77 81 79 76 69 66
50 51 53 57 65 72 79 81 78 80 91 85 76 84 98 98 98 98 98 98 98 97 90 84 76 69 63 59 53 49 43 41 46 49 54 62 60 62 69 76 81 78 76
49 55 57 61 65 70 77 79 76 77 90 82 78 88 98 99 99 99 99 98 92 87 78 69 64 59 57 57 57 56 52 46 43 41 42 45 48 53 59 64 70 78 84
49 55 61 64 67 71 75 78 74 75 83 88 81 85 97 98 98 99 98 90 87 81 75 69 64 62 59 55 53 49 47 46 43 39 37 40 43 46 46 47 53 60 67
51 55 64 67 70 72 75 78 77 74 77 87 82 78 86 97 98 99 96 90 85 80 77 72 69 66 62 57 54 49 45 44 42 39 37 36 37 40 41 40 40 42 45
52 55 63 71 74 76 76 76 78 76 74 78 83 76 76 78 92 98 99 99 92 86 80 77 73 69 66 61 58 53 48 45 43 40 38 38 37 37 36 35 33 34 36

GFSGL_prec_cthk_003.txt.gz
RH
66 69 71 69 61 57 48 42 46 47 52 52 57 63 74 80 88 89 96 94 92 87 84 81 78 74 73 70 66 63 59 62 63 57 59 59 51 49 49 53 57 53 48
69 70 66 62 62 52 47 46 52 58 58 64 70 75 85 91 93 95 93 92 91 88 83 74 69 64 61 59 59 59 57 58 57 53 52 55 56 48 46 48 52 53 52
70 66 62 63 58 57 55 58 60 64 70 71 79 87 93 94 92 92 91 90 89 84 72 65 63 63 61 58 56 56 53 49 50 49 46 43 43 41 39 38 38 39 38
62 52 54 60 63 65 62 66 68 76 78 80 86 91 93 91 91 89 88 89 84 74 68 65 62 59 55 51 46 42 39 37 37 41 41 38 38 38 39 38 36 36 29
63 66 65 63 68 65 67 69 75 81 82 87 89 90 89 86 84 83 79 73 69 65 61 58 52 47 42 37 37 35 37 41 42 42 42 43 43 45 44 43 42 39 37
68 64 63 63 61 59 63 68 75 78 77 75 73 71 69 68 66 64 62 61 59 58 54 48 42 35 31 30 30 34 38 44 50 55 57 56 56 59 59 57 54 53 43
58 60 57 54 51 57 62 64 63 59 56 53 53 54 54 53 52 52 52 52 51 46 43 41 37 32 33 36 39 45 51 58 63 66 66 69 69 71 72 71 69 65 60
57 56 55 58 60 61 62 59 54 51 46 41 37 35 36 38 41 42 43 42 42 39 36 33 36 37 40 46 53 60 67 70 75 78 77 78 79 81 82 81 80 76 74
58 61 62 62 63 64 58 50 42 33 31 32 34 37 40 40 42 45 46 46 46 43 38 40 43 45 53 63 70 73 78 83 88 89 92 93 92 90 91 91 89 89 84
64 63 68 71 68 62 47 37 33 34 35 37 43 49 51 53 53 52 50 49 45 44 44 46 51 60 72 76 77 80 85 92 92 94 97 96 96 97 97 97 95 91 90
65 72 81 77 66 42 38 38 36 37 45 52 57 61 62 62 58 53 51 52 52 51 51 54 68 78 82 82 84 86 80 81 84 89 92 94 95 95 98 97 92 89 89
66 78 80 64 40 37 40 40 41 54 58 60 60 66 71 69 65 59 60 61 62 60 60 80 87 87 88 86 87 79 78 79 82 85 89 91 92 93 93 97 97 96 95
73 82 63 43 38 39 43 44 54 63 64 66 75 78 78 77 74 74 71 69 67 69 91 94 94 95 93 93 84 83 82 84 87 91 94 96 95 96 96 92 94 97 98
82 69 44 43 39 43 49 54 63 68 70 79 82 82 80 79 79 80 75 73 81 99 98 98 98 98 98 91 87 87 83 83 83 86 88 92 96 94 95 98 98 98 99
77 47 43 41 42 48 52 60 66 75 83 83 82 82 81 85 90 86 85 97 99 98 98 98 98 98 96 92 86 80 77 77 78 78 80 82 86 91 95 94 92 93 97
50 41 41 40 45 50 54 61 76 84 84 83 85 87 88 87 89 98 99 99 98 98 98 98 98 98 97 91 85 81 78 76 73 72 75 78 77 75 73 69 69 76 83
40 38 39 43 47 51 56 64 74 83 86 84 91 92 80 83 98 99 99 98 98 98 98 98 98 98 98 96 92 86 83 79 75 73 74 77 77 75 72 66 67 72 80
38 39 40 47 51 54 60 69 73 76 78 88 94 84 77 91 98 98 99 99 98 98 98 98 98 98 99 96 93 91 88 84 79 76 76 77 77 75 73 71 69 77 85
36 44 50 52 53 57 64 69 73 73 78 91 88 75 82 97 97 98 98 98 98 98 98 98 98 98 94 89 89 92 90 87 83 78 76 76 77 77 75 72 70 70 74
41 47 52 55 57 63 66 68 71 69 78 91 79 80 94 96 95 97 98 98 98 98 98 98 94 84 73 64 57 61 71 76 77 76 74 71 71 73 74 72 70 68 66
43 49 54 58 62 64 67 67 68 67 76 88 78 86 98 98 96 97 98 98 97 90 85 80 73 63 59 54 50 46 41 43 50 56 63 67 69 69 72 72 74 74 75
46 51 56 58 64 66 69 70 69 64 71 83 77 84 97 98 98 98 98 94 88 80 75 67 65 60 60 58 55 52 48 45 45 46 46 52 62 68 71 71 73 75 76
48 55 57 59 66 69 71 72 71 67 66 75 77 78 93 97 98 99 97 92 88 79 73 68 64 62 62 57 54 49 45 45 45 42 42 45 49 53 58 62 65 67 71
52 57 56 60 67 72 75 76 74 72 68 69 75 74 82 94 97 98 98 93 89 82 77 71 68 66 64 60 56 52 47 46 44 41 38 38 41 44 47 50 51 51 55
56 58 57 60 67 73 77 79 78 77 73 71 69 71 72 76 91 97 98 99 97 89 83 79 74 71 68 64 60 56 52 47 44 42 40 35 35 38 40 41 42 42 41
56 54 56 61 67 75 78 80 82 81 78 74 75 68 68 72 76 81 89 95 97 95 88 82 79 75 72 69 66 63 60 56 50 46 43 40 40 40 40 40 41 41 39

GFSGL_prec_cthk_006.txt.gz
RH
66 66 65 63 57 49 49 50 54 59 58 61 67 68 70 71 82 87 92 97 96 95 93 91 87 85 85 82 79 77 79 79 76 72 75 74 72 68 63 62 64 62 64
70 66 61 52 54 50 58 63 69 64 65 60 65 68 77 82 91 94 98 97 95 92 89 86 82 77 72 69 69 71 75 73 70 67 69 65 60 60 61 62 59 58 58
63 61 56 59 61 58 58 62 68 64 63 66 71 79 87 94 98 98 96 94 94 92 90 87 80 74 71 69 69 68 70 69 66 63 60 59 57 55 54 53 53 52 51
70 58 50 53 51 51 56 59 60 68 73 77 82 88 88 84 85 88 91 92 88 84 80 74 71 69 68 68 66 63 60 56 55 56 53 51 51 50 50 49 50 50 49
59 53 45 44 48 52 53 55 59 62 63 67 65 63 62 60 58 57 61 67 71 71 68 67 66 65 57 53 51 48 45 44 46 50 53 49 47 49 51 49 49 50 48
50 40 42 47 50 54 58 60 59 61 64 59 53 44 38 39 36 33 33 38 44 46 52 53 52 52 50 44 42 39 38 37 40 45 45 43 43 48 53 54 54 53 50
42 42 46 52 55 56 60 63 64 62 53 39 34 35 37 39 37 37 36 38 40 45 48 48 47 46 44 45 45 44 40 40 42 46 51 55 60 68 70 69 67 65 61
45 46 53 55 56 61 65 67 64 49 37 35 36 39 44 50 48 47 46 48 51 53 53 52 51 48 46 46 48 47 49 53 57 63 68 73 76 79 80 80 79 76 74
48 51 57 58 63 68 73 64 42 37 34 37 46 52 55 57 56 53 51 53 58 59 59 55 53 51 51 52 54 56 59 65 74 79 81 83 87 92 94 95 91 89 82
48 51 52 60 69 77 60 39 38 36 43 50 57 60 60 64 69 66 63 62 59 58 58 59 58 57 56 59 63 68 73 80 85 89 88 91 94 96 95 94 96 96 96
51 55 60 69 78 58 41 38 41 47 50 56 59 66 75 80 80 76 73 73 72 67 67 66 64 62 66 73 77 79 83 86 85 84 85 86 89 94 98 98 99 98 98
60 62 67 79 66 44 40 42 49 54 57 64 74 81 86 85 83 81 76 82 85 76 71 71 73 80 85 85 86 87 86 84 81 81 84 87 91 92 92 93 96 98 98
66 69 79 78 50 44 46 50 52 58 64 73 80 85 88 92 90 93 92 87 79 77 80 92 97 96 91 94 96 93 85 84 87 88 88 91 95 97 96 93 96 95 97
73 80 88 58 44 42 47 53 58 62 68 77 82 87 94 97 94 92 90 86 89 99 99 99 98 98 98 98 97 89 86 84 82 81 83 84 86 88 92 96 94 97 98
79 90 64 43 44 46 51 55 60 66 68 73 80 92 96 93 85 94 97 99 99 99 99 99 98 98 98 100 90 86 82 79 76 76 79 81 81 80 78 77 79 86 92
89 68 43 41 46 53 57 59 63 65 68 68 82 93 88 81 90 99 99 99 98 98 99 98 98 98 99 99 95 89 83 77 73 76 78 80 78 75 71 64 64 70 73
67 40 40 42 52 56 58 64 68 70 69 75 91 84 79 86 98 98 98 98 98 98 99 98 98 98 99 99 98 94 90 83 78 75 76 77 75 71 70 67 70 73 78
39 34 40 47 53 57 63 65 68 67 71 83 92 81 90 95 96 97 98 98 98 98 98 98 98 98 93 91 95 95 92 89 82 78 77 76 73 69 68 69 72 73 75
39 43 42 47 52 58 64 67 69 68 68 79 90 88 96 96 94 96 98 99 99 98 98 99 96 82 72 68 70 79 84 85 84 81 76 74 73 71 68 66 66 69 71
43 43 43 51 55 59 67 70 71 69 67 73 82 83 94 97 94 93 96 98 99 97 94 91 82 76 67 62 56 53 51 55 62 71 73 73 72 71 71 69 67 64 64
43 44 46 55 56 60 67 73 73 70 65 66 72 78 87 94 96 93 94 94 89 82 80 77 77 69 66 63 62 59 54 50 49 46 52 66 70 70 72 73 70 69 70
45 46 51 58 57 61 67 73 75 73 68 66 66 70 81 91 95 96 96 94 82 77 71 69 67 65 65 60 55 55 54 51 48 44 47 51 56 64 69 72 72 72 75
46 48 55 59 57 60 65 74 76 75 71 69 68 66 70 84 92 96 97 96 88 79 73 70 68 64 65 63 60 55 50 46 44 41 41 45 46 49 53 56 57 58 60
48 51 57 57 58 61 66 75 78 76 75 71 71 70 65 72 82 93 96 97 97 90 84 76 73 72 70 66 63 58 54 49 44 42 40 40 42 43 45 46 48 48 48
48 51 57 57 59 63 70 75 76 74 73 72 71 72 72 63 67 77 86 95 97 97 90 85 80 75 72 68 66 64 61 57 53 47 44 42 40 39 41 47 48 47 46
50 55 55 58 59 64 67 70 72 71 70 70 72 74 75 71 63 67 77 81 86 89 90 89 87 82 79 76 74 72 69 66 61 57 51 48 46 44 43 42 44 51 50

GFSGL_prec_cthk_009.txt.gz
RH
75 76 71 65 63 63 61 61 55 52 47 47 48 52 60 65 71 79 80 88 93 95 95 93 90 92 89 86 84 86 87 89 77 71 79 80 81 84 87 88 84 84 81
73 68 65 66 60 63 60 48 46 45 48 53 56 62 69 80 85 94 95 91 94 95 97 96 94 93 91 88 84 80 81 78 79 72 74 78 80 80 78 79 78 79 77
65 65 67 64 53 46 39 38 43 48 51 54 59 68 73 81 86 83 81 85 88 89 90 91 91 88 85 84 83 82 83 85 83 79 75 73 71 70 70 70 69 69 67
65 58 54 42 39 41 43 48 50 51 54 60 63 67 68 64 58 53 46 44 41 50 60 63 69 72 73 73 74 75 76 75 72 70 65 64 64 62 63 62 61 61 59
58 52 49 43 42 45 49 49 51 54 61 63 62 60 52 46 49 40 37 34 34 38 42 46 51 53 54 54 60 60 62 63 62 63 62 59 64 63 64 66 64 63 63
57 55 50 48 47 52 51 50 54 59 61 65 53 48 50 48 46 40 41 43 43 44 47 49 49 53 57 52 49 48 47 51 54 52 48 49 48 50 52 52 55 56 54
62 61 61 55 56 56 55 55 62 68 68 55 53 52 51 53 53 48 47 50 52 53 57 60 60 57 57 56 54 54 54 48 47 46 44 42 42 42 47 51 53 57 58
68 67 68 61 59 57 59 62 71 67 57 54 53 52 52 57 62 59 62 64 68 71 71 70 66 62 62 61 58 53 49 50 50 52 52 50 54 58 63 66 69 68 67
73 74 64 60 63 64 64 72 70 59 57 53 52 54 56 63 72 73 72 72 76 76 76 75 72 65 58 54 56 54 53 53 59 61 62 64 69 75 79 82 82 83 78
86 61 58 63 68 71 75 77 64 58 57 52 53 58 62 70 77 78 80 77 77 76 76 82 76 71 68 64 60 61 59 64 70 73 76 83 88 89 91 91 92 92 92
85 79 73 83 79 77 85 71 58 56 58 55 56 60 69 78 85 89 90 91 92 87 86 87 81 74 71 70 69 70 75 78 80 85 87 86 86 87 89 91 94 96 95
86 81 81 94 82 90 79 62 60 58 58 58 61 63 74 88 94 95 95 93 90 84 83 81 78 78 83 86 86 87 87 86 89 88 87 85 88 90 92 94 96 95 95
77 83 91 88 92 86 59 55 59 57 60 62 63 67 82 93 95 95 88 94 93 91 95 98 99 98 98 96 94 90 92 91 89 88 88 89 88 87 89 92 94 94 94
72 83 88 94 84 49 57 60 59 57 61 64 63 72 88 92 87 89 95 97 98 99 99 99 99 99 99 99 98 97 92 89 87 86 83 82 82 82 84 86 87 89 94
81 91 89 79 50 48 53 58 56 61 60 61 60 78 83 82 89 92 97 98 99 98 98 99 99 99 99 99 98 90 87 84 80 79 80 80 81 80 78 73 67 64 66
88 84 67 44 43 48 55 56 58 60 59 56 60 77 79 88 90 93 97 98 98 98 99 99 99 99 98 99 98 94 86 78 77 78 79 80 81 80 76 68 66 68 70
76 57 42 46 47 51 54 56 62 64 61 58 61 73 79 91 89 91 96 98 98 98 99 99 99 98 98 99 98 98 94 85 78 78 80 80 78 74 70 66 66 69 72
55 44 46 50 47 50 54 57 63 65 66 65 61 69 78 89 89 89 95 98 99 99 98 99 98 83 79 81 88 96 97 94 87 82 80 78 75 72 70 66 64 66 69
45 43 48 46 45 52 54 57 62 66 68 66 64 64 71 85 89 89 91 96 98 99 99 99 90 79 71 65 59 62 70 77 85 86 81 76 75 74 70 67 62 62 65
51 44 49 48 47 54 56 57 63 67 69 67 68 64 59 77 86 89 90 92 93 90 89 89 83 77 73 72 66 64 63 59 58 65 75 76 74 74 74 71 67 63 60
50 44 50 49 50 57 58 58 61 67 70 67 68 66 56 63 79 87 90 90 87 85 81 79 79 77 73 68 63 61 59 54 52 50 50 58 69 72 73 73 73 70 69
49 45 50 52 54 58 59 59 64 68 71 69 66 65 65 60 65 81 88 92 91 79 73 74 76 71 68 70 69 63 59 54 52 48 44 47 52 56 62 66 68 67 68
51 47 49 53 57 60 60 61 65 69 70 68 65 64 67 68 64 66 82 89 93 92 81 75 72 70 69 67 65 62 58 52 45 43 45 46 46 45 48 51 52 53 54
53 51 51 53 58 60 62 64 64 67 68 67 65 65 66 68 68 68 66 80 90 94 91 88 83 79 75 72 69 66 64 59 55 50 47 52 50 48 46 46 49 50 47
55 55 53 57 58 61 63 64 64 65 67 68 67 68 68 70 72 72 72 70 79 90 90 92 90 87 83 79 75 72 70 68 63 58 55 55 49 47 50 51 47 53 49
59 57 59 56 58 61 63 65 66 67 68 69 70 69 69 70 72 75 77 78 75 77 83 83 84 85 85 84 82 80 78 75 71 67 63 59 55 52 49 53 48 54 53

GFSGL_prec_cthk_012.txt.gz
RH
59 61 61 62 59 57 50 40 36 31 26 35 39 40 45 51 59 70 79 83 85 87 92 97 98 98 98 98 96 94 90 88 80 73 80 82 81 86 89 88 94 91 89
63 64 63 62 56 51 43 39 34 33 34 41 46 49 52 59 62 66 69 69 68 73 79 79 75 84 91 92 94 93 92 90 86 76 69 69 75 76 79 81 85 86 86
59 56 54 51 48 48 41 41 40 41 44 46 49 52 53 54 53 47 44 42 39 38 42 40 41 50 46 48 55 66 75 81 83 79 74 73 67 64 62 64 72 78 79
60 58 54 49 44 42 45 42 46 49 49 48 52 56 56 50 46 47 43 40 38 36 31 29 34 44 52 59 61 56 55 62 71 69 66 64 61 57 57 56 58 60 61
62 79 70 65 61 49 51 49 51 50 50 55 60 56 52 51 54 47 42 42 45 43 41 42 44 47 50 55 57 58 54 46 47 54 55 59 63 66 67 75 77 76 74
58 78 71 63 86 81 77 55 58 56 59 64 66 59 54 51 52 47 49 53 58 62 62 60 59 59 61 67 66 63 57 50 46 47 51 54 56 59 60 62 64 66 67
45 59 62 78 93 78 81 65 65 62 70 76 66 59 54 55 56 54 57 63 68 69 69 69 70 73 77 76 72 65 61 58 55 53 54 48 49 48 48 47 48 52 55
52 65 50 82 77 86 84 76 62 72 84 68 58 60 59 58 61 62 63 70 75 77 77 75 72 72 77 82 74 66 61 60 55 52 51 49 54 52 53 50 50 50 48
46 53 49 91 84 88 92 82 63 85 75 59 59 65 62 60 58 65 76 84 86 87 88 91 88 80 75 79 74 66 58 54 55 55 55 54 56 59 59 61 60 65 66
49 50 57 85 96 94 92 68 82 83 59 60 59 57 59 60 68 83 93 95 94 90 92 93 91 85 87 90 79 74 68 64 60 55 55 57 62 65 74 82 86 86 84
50 53 69 75 98 92 72 78 83 58 59 56 53 57 56 63 81 93 93 92 89 89 90 86 84 84 82 79 76 73 68 65 66 68 72 74 80 85 86 87 87 90 92
50 54 59 63 67 70 81 79 57 55 54 53 57 56 57 72 87 88 90 92 94 97 99 99 98 98 97 96 91 88 87 85 82 82 87 89 88 89 89 91 91 93 93
54 63 67 73 81 83 69 47 52 54 55 58 58 55 53 73 79 87 88 91 97 98 99 99 99 99 98 99 98 92 89 89 92 93 91 91 90 90 89 88 89 90 93
68 74 80 81 81 53 44 50 52 52 56 58 58 52 55 71 82 87 89 94 98 98 99 99 99 99 99 99 99 99 99 96 93 91 88 86 84 83 82 80 80 77 77
75 76 73 74 50 42 43 46 53 53 58 58 58 55 55 69 85 86 89 95 98 99 99 99 98 98 98 98 98 97 93 90 88 84 82 81 81 81 79 75 69 62 64
74 71 61 46 42 46 45 48 52 53 58 58 58 56 55 69 85 87 89 96 99 99 99 99 98 99 98 99 99 93 87 84 83 82 81 80 81 80 77 71 67 70 70
75 58 47 42 49 49 45 45 51 54 57 58 58 57 55 59 81 85 89 95 98 98 99 98 99 90 85 90 99 99 93 87 82 82 82 80 77 77 73 68 66 69 73
71 53 45 43 46 47 46 48 54 53 56 62 61 58 60 54 70 81 86 91 95 98 98 98 97 81 72 69 68 77 86 97 92 87 83 81 77 76 73 70 67 66 68
67 59 49 46 47 48 47 51 55 54 59 64 66 63 60 56 57 74 83 86 88 87 88 95 90 83 80 74 69 67 68 64 73 87 87 81 78 76 75 73 68 65 64
63 61 53 49 49 50 50 55 57 57 60 64 66 62 59 57 57 61 75 83 84 79 79 78 83 82 77 72 68 65 64 60 57 62 68 78 77 74 75 76 75 72 68
65 60 53 51 51 51 52 58 58 60 60 63 65 61 59 58 58 60 62 75 84 78 72 72 75 71 69 69 69 63 60 55 50 49 52 54 61 67 72 74 74 74 74
62 58 54 53 53 53 56 58 61 61 61 62 63 62 59 59 61 60 62 65 74 85 82 75 74 71 69 68 67 65 63 55 50 45 47 45 46 49 54 58 60 61 63
63 60 56 55 57 57 59 59 63 63 61 61 61 63 64 64 63 64 64 66 68 74 84 85 83 80 77 74 72 68 66 64 59 53 49 49 48 46 49 49 50 49 48
63 62 59 56 57 61 57 60 64 63 60 61 62 63 65 66 65 65 66 67 70 70 72 85 88 88 86 82 78 75 73 70 67 62 58 57 55 50 50 50 49 50 49
67 64 60 56 59 57 59 61 62 63 63 64 63 63 64 65 65 65 68 71 72 72 73 73 79 83 85 86 85 83 81 78 76 71 67 62 59 56 53 53 50 54 53
73 70 61 55 54 57 61 64 61 63 64 64 62 61 63 64 65 65 66 69 72 76 78 79 80 85 88 88 85 83 82 81 79 76 73 70 66 62 60 56 55 55 54

GFSGL_prec_cthk_018.txt.gz
RH
48 44 38 39 40 41 46 49 51 53 67 78 78 77 67 72 64 61 59 53 43 47 46 48 49 50 50 48 45 43 44 66 74 71 76 77 78 85 88 84 83 79 84
41 41 43 44 41 45 47 44 50 68 71 80 76 68 66 73 68 60 53 45 42 39 41 42 39 37 37 37 36 33 34 40 45 51 58 52 66 76 80 84 83 79 82
36 39 36 37 40 43 43 46 63 81 80 76 79 85 85 74 70 57 48 48 46 44 44 44 43 42 40 41 42 41 40 42 46 45 41 42 45 51 55 65 75 77 78
34 33 36 40 42 47 47 48 57 68 80 76 80 82 82 73 65 53 51 48 48 50 50 47 46 47 47 47 51 53 54 54 54 56 52 47 47 38 40 47 60 67 69
37 40 41 42 31 31 36 38 44 62 64 78 85 84 79 68 58 56 55 53 53 48 48 54 63 69 70 71 76 75 73 72 70 68 65 62 57 47 43 39 47 59 56
38 37 33 26 26 31 32 35 48 58 82 86 90 83 76 60 54 56 52 48 45 48 62 73 74 72 72 75 83 84 85 84 81 79 75 72 63 55 50 45 41 49 55
34 30 25 27 31 33 34 44 51 75 84 81 87 85 64 52 55 52 49 47 47 66 72 71 71 75 78 80 84 92 90 88 87 84 78 75 71 61 56 49 44 45 56
29 25 29 31 35 35 44 50 55 74 81 85 86 55 55 53 51 47 44 44 63 73 74 75 79 84 91 91 89 89 97 95 91 85 78 75 68 59 55 51 47 46 53
29 33 34 36 37 42 53 61 70 72 76 68 54 56 52 49 46 44 40 49 68 75 78 86 94 94 97 99 99 89 87 89 90 87 82 79 69 61 60 58 50 51 55
36 35 36 37 42 54 62 72 77 75 63 52 52 53 50 48 46 42 39 60 70 75 86 92 95 98 99 99 99 99 90 89 90 83 76 69 64 59 58 55 48 47 52
35 38 39 42 47 61 69 75 79 61 50 49 50 51 49 47 45 42 43 65 72 80 89 93 96 97 99 98 99 99 97 90 83 78 72 67 61 57 56 57 58 60 62
33 40 42 47 54 65 72 72 56 50 50 50 48 50 48 47 45 42 45 69 76 84 92 95 97 98 99 99 99 99 97 90 89 83 80 77 74 73 73 73 73 75 74
35 44 49 53 59 65 62 54 49 48 47 46 47 51 48 46 46 43 48 68 78 89 94 97 98 98 99 99 99 99 98 91 89 88 87 86 86 86 86 89 91 91 90
43 50 53 54 60 58 52 46 46 46 45 45 50 51 50 48 47 44 47 64 80 88 94 97 98 98 97 99 99 99 99 99 96 95 95 95 93 93 94 95 95 93 88
53 59 58 58 58 49 53 54 53 46 46 46 52 52 51 50 49 48 49 54 75 82 90 96 97 82 79 80 96 98 98 99 99 98 97 97 97 94 91 88 83 74 67
57 63 66 65 59 49 50 53 55 49 47 52 54 53 52 51 51 50 50 52 64 69 73 92 91 79 73 75 79 77 91 92 92 91 90 88 86 83 80 74 70 71 70
59 63 70 69 61 55 55 54 53 49 49 54 55 55 53 52 52 51 49 52 52 59 65 73 85 83 78 73 72 75 72 84 96 92 90 87 84 82 76 71 68 68 68
60 64 71 70 61 57 57 54 53 48 49 55 57 55 53 52 53 55 50 52 56 52 56 64 72 77 78 77 72 68 65 64 71 93 92 89 84 80 76 73 69 66 66
61 67 74 69 62 61 60 53 53 52 54 57 58 55 53 52 54 57 57 55 54 58 55 56 65 68 69 72 74 71 60 55 57 66 75 91 86 81 79 76 74 70 66
67 69 73 65 61 62 61 55 56 56 55 59 58 56 53 51 54 57 59 59 58 56 60 58 59 68 72 72 71 72 71 61 55 54 59 63 72 88 85 79 78 77 75
73 74 72 63 62 61 63 57 57 57 55 59 58 57 54 51 52 55 57 60 60 59 56 62 63 63 71 75 77 75 74 72 65 57 52 49 47 55 59 63 73 76 77
81 78 72 66 61 60 61 57 57 58 55 59 59 58 55 52 51 54 56 59 61 62 60 59 60 62 66 75 82 82 80 77 74 70 62 58 52 46 46 44 44 46 47
87 85 71 64 64 66 61 57 57 55 57 60 59 60 59 55 53 53 55 58 60 61 61 59 62 64 63 65 71 82 85 85 84 80 73 68 64 58 54 52 50 51 49
88 85 76 73 72 71 65 58 57 57 60 59 60 63 64 60 56 56 56 58 62 63 64 61 61 65 70 73 75 76 82 83 84 83 82 79 73 68 64 61 59 56 53
88 88 83 80 80 80 75 64 58 59 60 60 63 65 67 66 63 62 61 61 64 67 68 67 66 63 67 75 81 83 83 86 87 86 85 82 79 75 72 68 65 62 60
89 90 89 88 90 91 86 75 62 60 60 62 64 67 70 72 70 68 67 67 68 69 72 73 72 69 67 71 77 84 85 86 91 95 94 90 88 82 77 75 72 70 68

GFSGL_prec_cthk_021.txt.gz
RH
47 42 39 36 37 38 38 41 47 50 54 53 51 63 73 74 75 77 74 65 58 50 49 44 46 47 42 39 38 38 39 42 42 35 35 42 63 67 66 74 76 79 78
44 38 36 35 33 31 37 45 50 44 41 41 43 58 75 74 81 76 71 66 50 50 50 49 50 50 46 41 40 39 40 43 46 41 37 37 38 39 56 59 62 66 75
41 39 35 33 34 36 34 31 28 29 32 40 48 60 67 81 78 82 75 55 50 54 55 53 49 45 42 45 49 51 51 53 53 53 48 45 47 44 39 37 44 39 62
40 38 36 35 33 30 30 29 27 31 37 46 54 65 75 75 88 80 68 55 54 53 52 46 44 51 62 65 63 63 66 71 79 78 67 60 56 55 51 42 34 29 32
40 37 35 31 29 30 30 29 27 37 48 52 61 74 74 78 80 71 60 51 50 46 44 44 57 67 69 70 71 71 73 75 78 87 88 83 75 72 67 59 46 37 30
38 34 32 31 33 33 32 27 31 41 46 57 66 75 77 76 66 55 50 47 45 42 42 55 65 66 72 80 83 90 92 87 83 87 93 93 87 82 78 71 58 45 35
37 35 35 38 38 34 29 29 36 47 59 65 69 70 67 54 52 51 46 44 41 39 49 64 67 76 85 91 95 95 96 97 91 88 95 93 89 86 82 73 65 53 41
35 37 40 38 32 32 31 36 45 56 65 72 72 62 51 50 52 47 41 39 37 41 63 69 78 87 93 96 96 99 97 97 94 87 95 97 91 85 79 73 67 55 45
36 38 36 33 32 34 38 45 55 62 70 75 63 51 51 51 48 44 39 37 37 51 70 79 88 93 96 98 98 99 99 96 93 88 87 93 92 88 79 75 67 58 48
36 35 34 32 35 37 43 52 62 70 74 59 51 51 49 46 47 42 38 39 40 57 74 86 92 96 98 99 99 99 99 97 97 90 93 84 81 78 76 71 62 56 51
35 34 34 38 39 41 48 56 64 62 56 53 51 47 45 48 47 42 40 41 44 61 76 87 95 98 99 99 99 99 99 98 92 89 85 86 81 74 67 59 54 51 48
34 36 39 43 44 46 51 57 58 56 54 51 47 44 47 51 47 44 42 45 47 57 76 87 95 97 99 99 99 99 98 95 90 89 83 81 78 75 72 70 68 66 65
36 40 44 49 49 52 56 56 53 52 55 52 47 47 51 52 50 46 43 45 47 53 71 86 94 94 85 89 98 98 98 98 91 89 88 88 86 84 81 79 79 78 78
36 44 50 54 56 58 59 55 50 52 55 53 49 49 54 54 50 46 44 45 47 46 58 80 92 81 70 79 85 92 98 99 99 96 93 91 91 90 91 90 90 90 90
37 46 54 59 63 64 63 58 54 55 56 53 50 51 56 55 50 48 47 45 48 44 46 62 83 80 73 69 78 76 92 95 98 99 98 99 99 98 98 97 96 94 90
39 50 58 63 69 72 68 61 58 56 57 53 50 56 58 55 50 48 48 46 49 49 42 49 64 78 80 76 71 73 67 89 94 93 94 94 92 89 85 81 76 77 77
45 54 61 65 72 74 70 65 62 58 59 55 52 59 59 54 50 49 49 49 50 53 49 43 51 62 70 77 77 71 64 61 80 95 91 88 86 83 81 77 77 76 74
51 59 64 69 74 76 70 65 65 56 59 57 57 60 59 55 50 49 50 53 50 52 56 52 48 51 62 69 73 74 69 59 64 72 93 93 89 86 82 75 74 73 73
58 65 71 74 76 75 68 65 65 59 58 57 59 60 60 55 50 48 49 52 53 52 55 58 55 53 53 65 73 75 73 72 62 62 62 75 92 88 85 80 76 73 69
65 69 78 82 81 73 72 67 63 63 58 58 58 60 60 57 51 49 49 50 52 53 53 55 58 59 58 57 65 73 76 75 73 66 55 51 55 74 88 85 82 79 76
69 75 81 90 85 73 69 64 64 62 55 57 55 60 60 60 55 51 50 49 50 52 54 52 53 55 56 57 61 68 78 80 79 75 72 63 49 45 48 52 61 67 72
73 79 86 93 88 74 70 70 67 60 57 57 54 59 61 61 61 56 53 51 51 51 53 53 51 52 56 58 59 60 65 76 81 83 80 75 70 60 47 43 40 42 42
76 81 88 93 86 75 73 75 70 61 58 58 56 59 61 62 66 63 59 57 54 54 54 54 55 54 54 56 61 65 67 67 74 80 82 82 78 73 68 60 52 47 45
76 81 87 91 89 83 79 81 79 71 63 60 61 61 61 64 67 68 66 62 60 58 57 57 58 59 58 57 59 63 69 71 72 76 82 83 81 79 75 71 67 63 57
75 79 85 91 92 90 87 89 88 82 72 64 62 64 65 65 68 70 72 71 68 66 64 63 62 62 63 62 60 61 64 69 74 78 84 89 88 86 81 77 74 71 68
78 81 87 90 91 93 94 96 97 97 95 83 71 66 66 67 70 73 74 76 77 76 74 72 70 69 66 64 62 62 64 67 73 80 82 85 89 89 88 86 83 80 77

GFSGL_prec_cthk_024.txt.gz
RH
61 52 49 47 43 42 40 36 33 31 29 29 36 43 46 47 63 65 66 71 76 74 70 48 44 45 45 44 43 41 41 44 41 33 35 33 35 37 40 43 52 68 66
57 54 51 48 44 40 36 31 30 29 28 30 38 42 51 55 54 66 70 74 74 68 59 47 45 44 43 40 40 46 56 62 63 58 53 48 44 42 53 50 36 42 55
59 55 50 44 39 35 30 29 28 27 26 32 42 46 54 51 67 69 72 73 67 58 49 46 44 42 39 46 59 62 63 64 67 73 64 62 57 61 59 55 49 41 35
56 52 48 40 35 33 31 31 30 28 29 33 43 49 53 61 71 73 69 62 53 49 47 43 41 40 49 60 64 70 77 79 84 88 84 78 78 72 75 72 60 54 47
55 51 43 39 35 34 32 31 30 30 33 39 43 50 60 68 68 63 56 48 48 45 41 37 36 43 65 69 77 83 86 88 93 95 93 91 88 85 86 87 83 68 57
52 43 38 37 35 34 32 31 33 34 37 43 54 62 64 71 69 50 47 45 46 41 35 35 38 58 65 80 87 94 99 99 98 99 97 97 93 87 90 95 93 82 67
43 38 38 38 36 33 33 34 36 37 41 51 61 66 71 69 48 45 44 45 42 37 36 36 49 65 76 83 89 96 98 99 99 98 98 97 92 94 95 95 94 87 76
39 39 39 36 34 33 35 34 39 43 50 59 65 72 65 49 46 45 43 43 38 37 38 40 60 74 84 90 96 97 98 98 99 99 98 95 89 96 99 94 88 82 74
39 38 37 35 33 34 35 36 41 49 58 64 65 55 51 50 46 43 45 42 38 38 40 45 66 80 89 96 97 97 97 98 99 99 99 95 93 93 96 97 89 81 72
40 39 37 35 34 35 39 41 45 52 56 58 55 53 52 48 45 45 47 42 38 39 42 47 68 83 92 95 99 98 98 99 93 90 90 93 96 92 91 87 84 79 74
39 37 36 36 36 38 41 45 49 53 53 55 54 54 51 47 46 49 49 43 40 41 43 44 66 85 90 89 97 98 99 98 95 90 90 86 89 90 88 84 75 68 63
38 35 34 35 39 43 47 51 55 58 54 52 52 49 48 48 49 53 49 42 42 42 41 40 62 83 73 73 82 85 98 99 98 90 87 84 82 82 81 79 75 69 65
35 31 31 34 43 48 52 56 60 60 56 56 57 52 51 50 53 55 49 40 42 44 41 37 53 73 72 70 78 81 91 98 98 98 92 89 88 87 84 81 79 78 76
30 29 32 36 46 54 58 60 63 60 59 59 57 57 54 52 58 56 46 40 41 45 43 40 40 59 72 74 73 78 74 98 97 98 98 99 96 92 90 89 89 88 88
29 31 35 44 52 58 62 68 71 65 62 61 60 59 54 55 61 54 46 42 42 45 46 44 41 42 60 72 75 73 71 77 98 95 98 98 99 99 99 99 99 97 95
30 36 41 50 58 63 68 74 76 66 60 59 60 59 54 60 61 52 45 43 42 44 48 47 45 42 45 61 71 75 68 69 76 97 93 92 92 92 91 90 89 88 88
37 41 49 57 62 70 75 77 76 67 60 60 60 60 56 62 61 52 45 43 43 42 47 50 51 49 47 50 64 72 76 69 67 71 94 92 87 83 81 80 81 81 81
43 51 55 61 70 77 83 82 76 70 66 62 61 61 58 62 62 54 47 44 43 42 43 48 53 53 51 50 51 65 73 75 72 69 65 76 92 88 84 80 77 77 75
50 54 61 68 75 80 87 84 76 72 67 65 63 61 59 60 62 57 51 47 44 44 43 43 46 52 54 55 55 55 65 75 77 75 68 57 57 77 90 84 78 74 70
53 60 66 72 79 83 89 82 73 71 68 69 64 59 59 57 61 61 58 52 48 46 46 44 44 46 48 50 52 54 57 66 78 81 78 74 60 49 54 70 78 76 73
53 61 69 75 81 87 91 82 74 72 68 66 62 62 59 56 59 61 64 60 54 51 48 47 46 44 47 48 49 52 54 55 61 74 82 82 78 69 50 47 46 48 62
57 61 69 73 80 86 90 81 77 76 75 67 63 65 64 58 58 60 63 67 62 57 54 52 50 49 48 48 51 53 55 57 57 59 68 78 82 80 75 62 46 42 40
61 62 68 72 77 84 90 83 79 80 84 79 69 63 64 62 59 60 61 66 69 67 63 59 57 55 54 52 51 53 55 56 59 60 63 67 77 80 80 76 71 61 46
68 68 68 73 79 83 87 88 87 87 92 90 82 73 67 64 63 62 63 65 68 73 73 70 68 65 62 59 56 54 54 56 57 60 66 70 73 80 82 80 79 74 71
73 73 71 76 80 84 88 92 92 92 93 97 96 93 83 75 70 69 69 69 70 72 77 79 78 75 73 69 63 59 55 55 57 59 64 69 72 75 80 87 84 82 79
78 77 79 80 84 88 90 90 93 93 97 98 98 98 98 97 88 82 77 74 74 75 77 82 86 87 87 81 74 67 60 56 58 60 64 67 72 76 78 81 87 87 86

GFSGL_prec_cthk_027.txt.gz
RH
65 72 59 59 55 53 47 37 31 30 30 27 27 30 36 42 47 47 51 55 59 65 64 58 54 47 46 46 47 45 45 52 55 48 52 51 48 50 48 45 40 43 40
73 62 56 55 54 48 37 34 35 33 29 28 29 34 39 46 47 49 54 63 68 66 60 55 46 47 46 44 46 47 59 65 66 61 64 66 69 64 59 55 55 53 53
62 55 56 54 47 39 38 39 35 31 29 29 33 37 42 48 52 54 65 68 64 58 52 45 46 45 41 40 44 60 67 74 80 78 72 79 78 78 77 76 69 63 64
58 56 56 48 43 42 43 38 32 29 31 33 35 42 43 51 58 66 72 72 58 47 45 45 40 37 40 42 60 69 77 83 88 91 87 88 89 89 92 89 85 79 68
58 58 50 46 45 45 41 34 30 32 33 33 38 43 52 59 65 70 74 50 42 43 42 39 35 35 38 50 67 77 84 89 94 96 94 92 94 95 96 95 94 92 82
59 53 48 45 47 43 35 32 33 34 33 34 39 48 57 64 70 71 48 43 41 40 40 37 35 37 45 62 72 82 89 95 97 98 96 97 96 100 98 99 97 92 85
56 49 46 47 42 37 34 34 33 33 35 39 46 54 60 64 55 48 45 41 41 41 40 36 38 43 50 67 78 89 94 99 99 99 99 99 98 98 98 95 93 91 93
49 46 45 43 39 37 35 33 33 34 37 43 49 54 55 51 49 47 42 43 43 43 38 37 42 45 55 73 83 87 94 99 100 99 93 93 96 98 96 93 96 98 98
45 45 45 41 39 36 33 33 35 36 41 46 48 49 51 52 49 45 44 45 46 42 37 42 44 47 59 76 80 86 93 97 99 96 87 88 90 95 96 97 98 99 97
48 48 45 41 36 35 34 35 35 39 44 49 51 52 51 50 44 43 46 47 46 39 40 40 38 48 62 71 70 76 80 95 97 95 86 84 88 93 94 99 98 96 93
50 46 41 35 33 34 34 36 40 45 49 54 53 53 53 51 46 47 48 51 44 40 40 38 36 46 57 64 67 75 78 93 97 96 88 83 83 85 91 96 96 93 85
47 41 37 32 30 32 34 41 46 50 56 58 56 56 58 52 50 49 52 51 41 38 41 39 37 38 48 62 71 73 74 88 97 97 97 91 87 83 83 86 87 87 83
42 38 33 31 34 35 38 46 51 54 59 61 61 59 60 56 52 50 56 48 41 39 42 40 38 38 39 50 70 74 73 75 97 96 98 99 94 90 89 86 84 82 81
37 33 33 36 35 36 43 51 56 60 64 66 63 61 59 56 53 56 56 46 40 38 41 43 41 39 39 39 54 72 69 72 87 97 96 99 98 99 97 92 89 89 88
35 35 37 38 36 39 48 55 61 68 71 68 60 56 58 57 54 59 57 46 41 39 38 43 45 46 47 47 44 59 74 69 77 92 96 93 98 98 98 99 99 95 92
36 38 40 38 40 46 52 59 68 74 75 68 61 58 59 58 56 61 58 48 43 40 37 39 44 48 49 49 49 51 65 75 70 74 86 96 92 89 89 94 98 98 99
40 41 38 39 46 51 58 66 72 80 77 71 68 62 60 60 57 60 60 52 47 43 40 38 40 45 49 50 51 50 53 67 77 72 65 68 94 91 85 85 87 89 90
43 40 40 44 51 57 65 71 76 84 81 73 69 63 64 61 57 58 61 58 52 48 45 42 39 40 44 48 51 53 55 57 68 78 77 64 55 75 89 85 82 80 81
43 43 45 49 56 62 69 76 80 86 77 68 67 65 65 61 58 57 59 63 60 56 51 47 43 40 39 42 44 46 48 51 55 67 80 81 72 55 54 75 82 79 76
45 48 50 52 56 63 70 77 82 85 75 70 69 65 64 62 60 58 56 61 64 63 57 53 49 45 42 41 42 44 46 48 49 51 60 75 82 79 63 48 56 60 68
50 51 54 56 60 65 69 76 83 87 76 73 74 69 66 64 63 62 58 58 60 66 67 62 57 53 49 47 44 44 45 47 47 48 50 55 69 80 80 73 54 42 53
52 54 59 61 63 65 72 78 82 85 77 76 80 81 73 67 65 63 61 59 59 61 69 71 68 64 59 56 53 49 46 46 47 47 49 52 54 65 75 79 76 65 45
58 60 63 67 70 69 73 80 84 88 85 80 82 88 84 77 70 68 65 62 62 63 64 70 74 75 72 66 62 58 53 48 46 47 49 53 56 58 64 74 79 77 73
63 69 67 71 77 78 78 80 85 89 92 92 90 91 94 92 83 77 74 72 70 70 69 70 73 78 80 80 76 69 63 57 51 47 49 51 55 58 60 65 75 80 81
68 75 76 78 83 84 84 86 88 90 91 90 90 93 95 97 98 97 93 85 82 80 75 74 75 79 84 87 87 81 73 67 61 53 50 51 53 57 61 64 68 76 86
70 78 81 83 85 86 85 87 89 87 84 85 85 85 89 93 97 98 98 98 92 88 83 80 77 80 86 90 93 90 84 77 71 63 56 53 55 59 61 65 69 72 76

GFSGL_prec_cthk_033.txt.gz
RH
63 64 70 82 77 63 58 56 49 47 47 49 49 48 48 48 50 44 49 54 54 58 57 60 68 75 76 73 60 56 59 57 54 41 42 51 62 63 66 67 65 66 61
68 65 75 81 65 55 56 51 51 51 51 52 51 51 50 48 43 41 45 46 49 53 58 66 74 77 63 53 53 52 51 49 48 48 42 58 66 71 72 72 74 78 76
71 67 68 73 65 56 53 54 55 57 56 54 54 52 54 46 40 42 43 47 54 59 64 71 67 52 50 49 49 48 46 47 49 52 54 66 72 75 75 79 81 83 84
68 69 76 70 61 56 57 60 61 61 58 57 54 60 47 39 41 43 49 56 55 58 59 51 49 47 48 46 43 43 44 46 52 60 70 75 79 81 88 87 84 79 79
74 75 69 63 59 56 62 64 67 62 58 56 59 54 45 43 42 40 47 54 48 48 51 50 47 47 43 42 43 41 47 51 58 69 77 79 83 88 89 86 76 75 79
74 70 65 63 56 62 65 72 65 60 56 54 59 57 47 44 39 40 42 43 40 44 45 46 47 47 50 47 44 45 50 58 64 78 80 81 86 90 91 80 79 83 83
72 70 72 65 62 70 74 67 62 59 54 55 61 54 47 49 42 43 42 43 41 46 46 49 50 51 50 45 45 46 53 59 68 79 80 88 90 91 88 75 80 86 89
71 78 70 67 72 74 69 65 59 55 60 56 58 49 52 50 46 45 46 44 45 49 51 53 53 49 45 40 36 46 54 63 76 81 79 90 89 88 80 73 80 83 85
76 76 69 70 76 72 66 58 60 60 57 50 53 53 53 55 53 51 48 47 47 50 54 55 50 42 40 36 32 42 50 63 73 74 82 89 84 88 81 75 82 90 93
75 70 77 77 67 63 62 60 61 58 53 51 48 51 54 61 56 54 51 52 49 51 55 52 47 38 39 34 33 36 47 60 67 69 87 91 89 93 88 78 85 93 96
74 78 72 67 66 61 59 57 56 53 53 46 44 50 55 58 63 58 53 54 49 51 53 47 46 39 35 35 35 38 46 46 61 76 89 94 89 92 93 83 83 90 92
81 74 68 63 59 58 54 53 49 52 55 49 48 52 59 63 64 57 52 52 48 48 52 44 39 32 33 35 38 42 43 51 66 77 88 96 94 88 93 95 88 86 91
74 70 63 59 56 52 54 53 54 52 45 49 54 57 65 70 67 62 56 54 51 50 51 43 35 32 33 36 42 46 50 55 61 75 81 94 96 91 90 97 98 94 91
66 63 58 57 57 55 53 51 53 44 46 54 58 65 72 76 70 65 62 59 53 55 54 47 40 39 38 39 42 49 51 56 56 69 80 79 94 97 91 91 97 97 97
65 60 61 58 52 55 54 53 45 43 48 57 63 67 72 79 72 65 64 64 60 57 56 48 48 48 44 46 46 48 51 55 58 59 74 86 74 89 97 91 92 97 99
58 57 53 53 52 52 48 44 44 45 50 57 66 71 75 81 73 67 63 61 62 56 54 55 54 53 48 45 47 46 47 50 51 56 61 76 89 72 86 97 91 94 98
51 50 49 51 50 46 46 49 47 50 53 58 66 71 76 82 75 70 64 64 62 57 53 56 60 61 55 53 51 49 46 43 43 49 53 59 74 91 76 84 95 89 93
44 44 45 45 46 47 47 49 53 54 58 63 66 71 77 80 74 72 68 64 63 60 58 55 60 67 65 63 58 54 48 43 41 43 46 50 55 67 91 82 77 90 89
41 44 47 49 50 51 50 50 55 58 62 67 68 72 79 81 76 76 72 67 66 66 64 62 63 67 69 68 64 58 53 48 45 42 41 44 48 52 62 85 85 69 82
46 52 55 55 56 55 55 56 59 63 67 72 72 78 84 83 80 77 77 72 70 70 68 64 65 65 67 70 71 68 64 58 54 47 44 43 43 47 51 56 75 87 74
49 59 62 60 63 60 60 61 65 68 72 74 80 81 88 91 86 85 85 82 75 71 70 68 63 63 63 64 70 75 75 70 64 57 50 46 44 43 46 51 54 66 85
48 54 57 55 57 61 61 63 65 72 76 79 86 89 91 93 93 88 89 92 86 80 77 74 70 67 65 65 67 73 79 81 77 69 61 52 47 45 45 46 51 53 61
48 50 53 54 58 61 63 65 69 75 82 85 88 94 97 96 97 98 95 94 95 94 86 80 78 74 73 74 73 74 77 82 85 79 70 59 53 50 48 47 48 52 55
50 51 56 61 66 67 66 70 76 78 84 87 89 95 99 99 99 96 92 94 94 94 96 99 97 90 83 81 79 75 75 78 82 83 78 71 62 58 53 50 49 50 54
54 57 58 61 66 67 67 74 80 84 86 91 91 95 98 98 97 92 90 87 86 87 91 95 98 99 98 95 89 83 80 79 82 86 84 79 72 64 56 50 48 46 52
54 60 64 70 71 71 73 76 83 86 89 92 93 97 95 89 86 84 79 79 80 80 82 87 93 98 99 99 98 96 89 83 85 90 90 86 80 75 71 64 57 51 54

GFSGL_prec_cthk_039.txt.gz
RH
59 63 64 66 69 78 77 73 73 82 88 73 59 60 52 51 61 58 58 54 55 51 51 50 53 55 52 51 51 54 57 57 47 37 36 35 35 33 32 33 37 43 47
64 65 66 67 72 76 72 75 79 84 86 72 50 60 64 64 66 59 63 59 53 52 51 51 48 46 43 42 42 39 37 37 37 33 34 33 31 34 38 40 45 50 52
66 66 67 69 72 72 74 83 75 80 72 57 70 72 71 66 63 65 65 58 56 54 52 49 47 41 37 35 35 36 35 37 37 38 33 32 35 39 41 48 52 52 58
63 62 64 66 72 73 76 78 85 78 70 76 76 80 67 67 70 65 62 58 57 55 51 49 43 36 33 34 35 36 38 36 36 34 32 37 41 44 53 57 58 64 62
61 61 64 70 73 76 82 82 82 81 75 83 79 72 70 72 73 66 64 65 58 52 49 39 32 34 36 38 37 38 38 36 35 33 32 41 45 51 59 64 68 64 63
65 66 69 72 81 86 82 90 85 85 87 82 80 75 75 75 73 71 67 60 60 52 41 34 36 37 39 38 40 40 39 35 31 28 36 43 50 59 61 70 71 68 63
77 77 79 81 82 84 93 91 89 90 87 80 81 81 75 73 68 69 65 60 60 52 47 38 40 42 41 41 41 40 34 33 31 32 39 49 54 59 66 75 74 76 73
79 80 84 88 93 92 92 91 92 89 87 83 82 79 75 67 66 64 64 61 57 58 57 46 45 45 42 42 40 36 33 32 31 33 42 47 51 57 77 84 80 76 72
81 87 93 95 94 95 93 91 85 81 83 80 78 74 67 61 64 63 60 56 60 64 60 50 46 48 44 42 41 36 31 32 34 36 41 50 56 70 85 88 84 76 72
87 95 97 96 96 92 86 81 79 80 76 71 65 64 63 62 61 58 52 54 61 63 60 50 50 49 46 43 42 35 32 33 34 36 40 48 56 70 88 89 86 80 79
97 98 97 94 90 83 79 76 74 68 64 60 57 59 57 52 51 52 54 60 63 65 59 54 53 51 46 46 43 37 35 35 36 38 41 46 55 59 83 91 90 86 84
96 92 89 84 76 68 66 64 57 52 49 48 46 44 45 48 48 52 61 63 67 71 66 63 60 52 48 48 45 43 39 39 39 39 42 45 52 64 67 86 93 90 91
84 76 63 53 50 53 52 46 42 40 39 38 42 45 48 53 51 58 63 67 73 78 75 68 63 57 52 49 49 48 44 42 41 39 40 41 46 56 74 71 87 93 89
57 49 45 41 36 36 34 31 32 36 39 41 44 47 50 50 53 62 66 69 75 80 86 71 65 63 59 52 53 53 51 48 44 42 39 38 39 47 60 81 77 89 87
27 26 25 23 25 26 28 32 37 42 46 47 49 53 55 54 58 63 69 72 77 83 90 80 68 65 63 57 55 56 56 55 50 45 43 38 35 39 46 66 83 78 87
20 21 21 24 27 30 33 34 42 47 52 55 55 56 55 60 64 69 73 76 79 84 88 81 73 67 65 59 57 58 59 62 58 53 48 43 36 35 39 47 73 78 79
25 26 29 33 34 37 41 45 45 44 56 57 59 59 59 58 66 71 77 82 83 86 86 80 76 69 66 63 59 59 58 66 67 62 55 49 41 37 37 40 47 77 75
30 35 41 40 40 42 48 55 59 61 63 53 56 62 61 62 68 74 78 86 85 92 85 79 75 69 68 68 62 62 60 62 70 72 65 57 48 44 39 39 41 46 75
38 41 42 42 43 50 52 56 60 65 73 64 52 57 63 65 66 76 82 86 90 93 90 82 82 74 71 70 67 68 65 63 65 70 73 70 60 55 46 41 41 41 46
36 35 35 38 36 36 39 45 53 60 67 66 61 61 60 66 66 76 84 87 93 96 97 87 88 80 75 74 73 73 68 67 66 67 70 77 76 67 57 49 44 43 42
29 27 28 28 28 33 41 49 53 55 60 66 66 62 65 70 73 76 84 88 92 97 98 94 94 92 81 76 76 73 72 71 70 69 72 76 78 74 66 58 51 46 44
32 31 26 22 20 21 30 42 70 78 70 65 64 65 66 73 78 82 85 87 92 96 98 98 96 98 96 85 80 78 76 76 75 74 73 76 78 78 74 67 60 52 48
25 23 25 25 29 28 31 38 65 72 67 68 73 71 72 77 83 85 87 92 93 96 99 98 98 97 98 97 96 93 91 88 84 83 78 77 78 81 79 73 67 59 53
27 28 29 30 41 46 52 53 51 59 74 74 77 76 76 82 85 88 91 91 94 98 99 99 99 98 98 96 95 95 96 98 99 96 91 85 80 82 85 80 73 66 60
26 28 32 35 39 47 55 58 61 71 79 82 83 80 78 80 86 90 91 93 97 98 97 98 99 99 99 95 94 92 93 96 97 99 99 95 88 83 84 87 81 75 68
29 31 35 37 41 45 52 59 65 72 79 89 86 83 80 78 83 89 91 95 99 98 98 99 96 94 89 89 91 91 88 91 92 96 99 99 96 92 87 90 88 82 78

GFSGL_prec_cthk_042.txt.gz
RH
63 72 73 76 84 86 85 84 82 71 86 80 85 77 65 62 54 64 70 64 63 63 60 60 62 62 57 52 50 48 46 43 37 29 29 28 28 28 26 26 28 31 34
68 69 73 73 73 75 69 71 81 91 77 78 77 70 71 68 75 73 67 72 71 68 62 61 63 59 52 48 45 40 36 34 34 33 31 29 27 25 29 30 32 35 39
80 86 84 78 75 71 73 75 69 74 78 80 76 76 79 76 72 71 71 73 74 74 70 65 61 55 53 45 39 34 33 36 36 34 30 28 25 28 32 35 39 42 46
80 81 81 81 78 71 69 71 74 77 79 81 84 85 80 80 80 78 83 79 81 76 71 68 63 58 42 34 34 34 37 38 36 33 29 27 26 30 38 41 39 45 51
79 75 81 83 81 77 78 75 80 85 87 86 86 84 88 82 82 84 80 79 81 78 70 66 60 47 36 36 37 38 40 38 35 31 29 26 28 34 42 45 46 51 58
72 80 83 79 77 78 79 85 91 93 91 92 91 87 84 84 84 82 81 76 78 78 71 64 56 52 42 41 42 42 42 39 35 33 29 29 32 40 44 47 52 63 67
81 77 78 78 78 86 91 93 92 93 92 91 86 84 80 82 78 76 72 72 68 66 62 57 56 57 49 46 46 45 44 40 37 32 31 33 34 41 44 51 66 72 72
74 75 79 83 87 90 91 95 96 95 91 82 80 76 71 66 63 64 60 59 58 54 57 60 64 63 50 49 47 46 42 40 35 34 34 34 38 45 51 61 74 78 72
79 85 86 91 98 96 97 96 90 80 74 65 59 56 57 51 47 47 48 52 54 57 57 62 66 64 54 52 50 46 42 39 36 36 38 37 39 45 52 60 75 80 72
85 88 92 96 97 89 82 70 62 57 54 51 49 44 38 34 38 44 49 50 53 57 60 64 64 57 56 55 52 46 44 41 38 38 40 40 39 43 49 56 72 85 82
96 97 97 89 85 71 58 50 42 34 26 27 28 30 33 37 43 49 53 53 56 62 66 69 67 68 62 60 54 48 46 44 42 41 41 39 39 42 47 57 61 82 89
93 85 77 65 52 41 26 22 21 21 24 27 29 31 34 40 45 50 53 58 60 64 70 74 77 75 70 64 56 51 50 50 47 47 44 41 38 37 41 54 64 70 87
66 57 44 31 21 16 17 17 19 22 26 29 32 33 35 42 47 50 53 57 62 67 73 78 82 88 76 66 62 55 52 53 52 51 48 43 42 38 35 42 60 73 76
36 23 17 14 15 16 19 21 24 28 32 34 36 38 41 43 47 51 55 58 62 72 77 81 85 93 89 72 68 62 56 56 56 56 54 49 46 41 36 38 44 69 72
16 16 16 17 19 21 25 29 32 34 39 40 44 48 48 44 46 50 54 59 66 70 79 83 87 95 91 77 70 65 59 59 59 61 61 57 51 45 37 36 40 48 75
17 19 20 22 26 28 31 32 37 41 43 48 54 60 59 61 58 52 51 57 68 76 77 82 89 96 88 81 72 65 62 60 61 64 68 65 59 50 41 38 38 41 56
20 22 24 27 31 33 35 41 42 35 45 50 58 66 76 77 75 65 56 56 65 77 77 88 91 96 86 83 75 68 65 62 62 64 70 73 68 57 49 45 40 38 41
24 25 26 26 27 30 38 44 43 41 39 36 42 62 73 73 79 73 65 64 66 74 79 90 92 97 86 85 75 69 69 64 63 65 68 72 74 68 59 55 47 42 39
18 17 17 19 24 30 31 29 33 33 39 44 51 51 61 71 73 68 69 66 69 74 82 89 95 98 90 88 77 72 71 66 66 66 68 70 71 75 71 64 56 47 43
17 20 24 28 28 27 25 22 20 20 30 46 51 58 64 66 64 65 64 71 74 77 86 88 93 98 94 93 81 77 74 73 70 69 71 71 72 75 75 71 62 54 47
23 25 25 28 29 30 26 27 28 28 31 38 61 73 75 71 61 57 61 70 80 84 87 90 93 99 96 98 91 79 76 75 74 74 74 74 75 76 79 75 69 62 53
24 25 27 29 28 27 32 35 38 37 42 57 63 70 72 74 68 68 73 80 86 86 90 94 94 99 99 98 99 90 80 76 76 77 78 78 77 77 78 78 74 68 61
25 25 25 25 27 27 30 41 46 51 51 53 58 68 67 76 74 74 83 87 86 87 91 94 96 99 99 98 99 98 96 91 86 88 87 86 82 80 80 80 80 73 68
25 24 24 26 27 29 32 39 44 55 57 60 63 67 76 77 80 78 76 82 88 89 89 95 98 98 99 99 98 98 99 98 98 97 98 98 95 90 85 83 82 82 75
24 25 27 29 31 34 36 38 42 47 57 67 69 77 79 80 88 86 77 76 83 90 92 96 98 99 99 99 99 98 99 98 97 98 98 98 99 98 91 89 85 84 82
25 28 31 34 36 38 41 43 46 51 57 62 71 79 82 85 90 90 89 82 80 88 93 98 99 97 98 98 98 98 98 97 96 95 94 94 95 97 98 93 91 91 88

GFSGL_prec_cthk_045.txt.gz
RH
53 57 64 68 78 85 85 79 75 80 74 82 91 77 75 74 75 74 75 80 80 76 74 70 67 66 68 68 67 68 63 57 49 35 29 26 25 25 24 22 24 24 26
67 71 74 82 85 85 85 86 88 87 85 81 81 82 82 85 87 83 83 77 73 74 76 76 70 72 73 69 65 59 56 49 39 31 27 27 26 25 23 21 24 27 31
76 77 82 84 85 83 86 85 92 84 86 90 85 86 89 90 89 82 78 76 76 76 75 79 79 73 68 68 63 52 42 40 38 34 32 30 26 25 23 24 27 30 32
75 81 86 86 81 84 90 89 84 83 83 88 89 92 94 92 88 87 83 80 77 79 77 73 74 70 67 61 51 42 40 40 39 38 35 32 29 26 27 29 28 33 33
69 85 86 80 84 88 87 87 89 79 85 88 93 92 94 95 87 82 78 75 71 63 60 61 61 61 51 51 51 47 44 42 42 40 37 34 30 28 30 32 35 36 42
77 78 81 84 86 82 79 80 84 89 95 93 93 96 94 85 78 72 58 51 44 44 47 45 46 50 54 59 61 54 48 46 43 41 40 34 32 31 30 33 40 45 52
66 72 74 78 79 80 83 88 90 91 96 98 93 81 63 58 49 36 30 32 36 39 46 49 53 54 57 64 66 61 52 49 45 43 39 35 33 33 32 34 44 50 62
68 75 75 75 78 83 87 91 97 98 92 83 72 49 39 29 25 26 30 34 37 41 48 52 55 57 61 65 69 60 56 53 47 43 39 36 36 35 35 38 45 50 60
66 69 74 80 87 88 90 96 96 86 72 48 33 24 22 21 22 25 30 35 40 44 47 49 52 59 64 68 60 59 60 55 48 42 42 40 41 41 38 36 41 50 55
73 78 84 93 98 98 90 79 62 46 28 19 18 19 19 20 25 29 33 39 44 46 50 52 56 62 67 68 66 63 63 59 47 48 46 44 45 44 42 41 41 48 59
81 90 94 93 91 79 63 46 28 18 17 17 18 20 22 25 28 32 36 42 49 50 51 55 61 67 72 76 72 68 66 60 51 52 49 47 48 45 43 40 41 44 55
89 86 80 70 56 41 27 17 16 16 16 18 20 21 27 32 34 36 41 45 48 50 51 57 66 71 76 81 81 75 69 63 56 54 52 51 50 47 45 41 38 39 53
73 62 49 39 27 19 15 14 15 17 19 21 24 27 32 37 41 44 47 50 52 51 55 59 69 75 80 84 86 89 75 69 63 56 55 54 53 51 48 44 37 37 44
48 41 31 20 15 15 17 19 21 24 26 28 31 36 41 42 44 49 54 53 55 59 56 61 68 78 83 89 88 94 86 74 70 59 57 58 57 56 54 49 38 35 35
30 22 19 17 16 16 17 20 24 25 32 38 42 48 49 45 44 57 64 60 63 71 72 62 66 77 86 90 91 96 92 79 70 63 60 61 62 64 60 53 45 39 37
22 18 16 16 17 19 19 17 21 24 26 31 38 46 46 49 56 63 63 79 85 77 76 68 70 79 86 91 93 97 91 82 73 69 62 62 66 70 67 58 52 48 41
18 15 14 13 12 13 15 18 19 17 20 20 25 25 29 38 44 54 72 79 79 76 73 69 66 76 88 93 96 96 89 83 76 74 65 63 66 70 72 66 60 56 46
14 13 12 13 15 18 20 20 21 22 20 16 15 19 27 37 52 60 66 69 78 74 75 69 68 77 85 94 96 96 91 81 74 74 68 66 67 70 70 71 68 62 52
14 15 16 18 19 20 21 21 21 24 25 26 22 19 22 36 54 58 67 69 68 71 73 71 72 81 87 93 96 97 94 81 75 75 70 68 69 70 72 73 71 66 60
17 19 19 18 18 19 20 22 24 28 31 33 34 36 43 47 61 70 70 72 71 64 70 76 79 83 89 94 96 98 96 83 77 74 72 71 70 71 72 76 75 69 65
20 18 18 18 18 20 21 22 26 31 34 40 45 47 53 58 68 74 68 68 68 74 78 84 85 86 91 95 96 98 98 89 80 77 75 73 73 74 77 77 77 74 70
19 18 18 19 21 21 22 24 27 30 33 40 44 52 58 61 70 71 72 74 74 83 86 89 87 91 94 95 98 99 98 97 83 79 78 77 77 78 79 79 78 78 74
19 19 21 22 22 23 24 26 29 31 32 35 41 54 57 66 69 76 77 80 81 82 86 90 90 92 96 99 98 99 99 98 93 85 83 83 83 83 83 81 81 80 80
23 25 24 24 25 26 27 29 32 34 36 39 42 47 64 69 75 80 84 88 88 86 78 84 91 92 96 99 99 99 99 99 98 98 97 95 94 93 92 90 86 84 83
30 28 26 26 28 29 30 33 36 39 41 43 48 53 58 67 79 82 89 90 90 90 85 81 86 92 97 98 99 98 99 99 99 99 99 99 99 99 98 98 93 89 87
30 29 28 30 32 33 34 36 39 42 45 49 51 57 63 67 74 83 90 92 93 93 93 87 82 91 99 99 99 99 98 98 99 99 99 99 98 96 95 97 97 94 90

GFSGL_prec_cthk_048.txt.gz
RH
59 65 68 71 74 77 85 87 88 87 88 91 93 94 87 87 86 88 83 87 81 78 78 73 73 72 66 54 57 54 50 49 45 42 43 41 37 31 27 26 25 23 23
71 72 78 84 88 88 86 85 88 92 91 90 95 89 86 86 92 91 93 84 82 80 75 73 64 55 44 40 39 39 40 38 35 32 34 34 34 31 28 27 27 27 27
75 80 83 83 85 86 83 85 87 90 90 90 86 96 92 94 97 96 89 87 78 71 53 46 35 35 37 41 42 44 42 42 42 38 36 36 34 32 29 29 28 28 30
74 81 81 76 87 85 85 84 87 84 92 87 89 89 95 94 96 94 86 74 65 48 32 31 32 35 36 42 47 50 48 50 49 44 41 40 36 32 31 29 28 30 31
55 58 62 75 87 81 78 76 83 79 85 84 86 92 96 97 93 79 66 56 43 29 28 31 34 40 44 47 50 51 53 57 56 51 46 42 36 34 32 33 32 31 33
56 55 58 66 70 72 74 77 79 77 87 90 92 95 95 88 72 60 51 37 25 25 29 34 38 44 47 53 53 53 59 61 62 55 52 44 39 36 35 36 34 35 38
45 50 62 68 73 74 74 72 80 88 94 96 98 90 74 59 40 32 24 22 23 27 32 37 42 46 54 55 55 57 62 65 62 56 54 47 41 39 39 38 37 37 40
57 66 69 71 71 74 81 88 93 97 98 97 82 63 41 27 22 21 21 23 25 29 36 42 47 53 55 54 57 61 64 59 60 60 56 49 43 44 41 41 41 37 33
65 67 68 72 76 83 89 95 97 96 86 72 50 28 18 17 18 19 22 25 28 34 42 49 52 53 58 59 60 66 65 66 63 63 59 49 46 47 46 46 44 40 32
64 68 71 78 85 89 91 87 82 72 57 33 18 16 15 15 19 22 26 30 34 39 48 54 56 53 58 61 65 72 73 72 68 66 61 52 51 51 49 49 47 43 38
68 73 77 82 86 84 75 65 53 35 20 15 13 14 15 18 20 25 30 37 42 46 49 49 51 57 59 65 71 75 80 78 72 69 64 56 55 52 50 51 49 47 41
75 76 77 75 71 62 49 37 25 16 14 14 16 16 18 21 27 31 38 45 48 52 48 48 51 58 61 68 73 78 85 85 84 75 70 62 58 56 54 54 51 49 45
69 66 62 56 46 35 27 22 18 17 18 19 21 22 21 25 30 39 45 48 52 52 48 53 56 63 75 73 74 81 87 87 88 88 74 69 62 60 59 58 55 51 48
57 53 45 35 28 26 23 19 17 17 17 18 20 22 23 21 23 28 36 46 53 55 59 64 62 75 80 80 78 79 87 89 92 94 79 74 65 60 62 63 61 55 53
44 39 35 29 25 21 16 12 11 12 15 17 18 18 21 18 17 25 30 33 41 57 65 62 72 83 83 84 79 81 88 90 94 96 86 75 70 62 64 66 65 60 58
39 34 29 26 22 17 13 12 15 16 16 15 16 18 16 21 17 20 30 37 40 51 65 71 80 81 79 79 78 82 87 91 96 97 89 78 74 65 66 68 68 65 62
37 33 29 24 18 15 15 15 12 11 12 12 14 17 20 23 24 22 31 46 49 63 76 77 88 80 76 73 72 81 88 93 96 95 88 80 76 69 67 69 67 66 65
37 29 24 19 17 17 15 13 13 13 13 11 12 17 21 24 31 34 33 56 55 60 68 71 80 79 80 73 76 83 89 94 96 95 90 77 77 70 68 69 69 67 67
29 26 21 19 17 15 14 15 16 17 19 19 16 16 21 26 30 40 46 51 63 72 75 74 75 71 73 77 80 86 90 95 98 98 86 77 76 70 69 69 70 69 72
27 23 20 18 16 16 18 19 20 21 21 22 22 24 25 27 32 42 55 65 72 77 73 70 68 73 76 85 87 89 92 96 98 98 84 78 76 72 70 70 71 74 75
25 22 20 19 19 20 22 23 23 23 24 25 26 27 30 32 40 52 57 67 75 79 77 72 78 82 91 90 90 94 96 98 98 98 87 80 77 74 72 73 74 75 75
26 22 21 22 23 24 25 26 25 26 28 28 28 29 32 35 38 49 61 68 79 79 78 87 89 90 90 90 93 95 97 99 98 98 93 84 81 78 76 76 77 78 77
24 24 26 26 26 26 27 26 26 28 29 30 32 34 36 38 43 46 58 68 76 81 86 89 90 87 90 93 96 98 99 99 99 99 97 87 85 82 82 82 82 81 79
27 27 28 28 28 27 26 27 28 28 30 33 36 39 41 42 45 51 54 66 78 88 90 91 92 88 84 92 96 98 99 99 99 99 99 93 89 88 89 90 90 88 87
30 31 31 30 29 27 28 29 28 29 32 35 38 40 42 45 48 53 59 62 75 87 92 95 96 95 88 85 93 98 99 99 99 99 99 99 98 98 97 97 98 97 93
35 34 32 31 29 29 29 28 26 25 28 30 32 33 34 38 47 55 58 64 70 81 91 98 99 98 94 85 91 99 99 98 99 99 99 99 99 99 99 98 99 98 96

GFSGL_prec_cthk_051.txt.gz
RH
45 54 71 76 78 81 89 90 93 97 95 95 97 96 95 91 98 93 94 95 89 83 79 71 64 57 53 39 31 28 34 37 39 36 38 38 35 35 36 32 28 27 26
59 68 71 77 83 86 90 91 93 94 95 97 95 98 94 95 89 92 97 90 81 79 70 64 57 49 39 29 30 33 36 41 44 42 45 43 41 39 37 33 31 30 29
63 67 74 81 86 86 87 91 91 90 88 87 94 92 91 97 95 92 91 85 83 71 62 53 37 30 29 31 34 36 40 44 48 47 47 49 47 45 42 39 36 32 31
53 56 61 67 72 79 78 86 90 85 81 80 85 87 89 97 94 94 90 81 71 62 40 28 27 28 30 35 40 42 48 53 54 50 51 53 54 50 46 40 38 36 35
54 53 53 61 62 65 66 67 69 77 77 79 78 90 96 96 97 91 83 70 55 35 26 26 26 29 33 39 45 49 56 59 57 54 55 59 59 54 48 43 40 37 40
51 53 58 58 54 56 61 69 78 68 76 76 87 93 95 96 95 81 64 47 31 25 24 23 25 30 36 42 52 59 64 62 57 60 60 62 56 58 51 47 43 42 43
42 45 49 54 59 64 66 68 74 74 83 88 94 97 98 88 69 54 38 25 24 23 22 24 28 32 41 50 56 61 58 57 60 62 59 59 60 62 53 49 46 46 47
47 53 56 58 61 64 66 76 80 83 89 92 92 83 73 56 37 24 21 21 21 20 22 25 29 36 48 56 61 61 58 58 61 60 62 63 63 62 53 50 51 48 48
52 56 58 62 64 64 72 81 83 84 81 78 71 58 37 24 20 18 19 19 20 21 25 30 37 46 51 57 57 57 60 59 66 65 67 65 64 62 55 53 53 52 51
52 56 59 64 69 71 76 78 76 70 67 56 36 26 22 19 16 17 19 22 23 26 30 37 42 47 48 54 58 58 60 63 71 71 72 68 66 64 59 53 55 53 55
57 62 66 69 70 72 67 63 54 45 34 26 23 22 20 19 19 21 25 31 34 34 36 36 39 44 49 55 59 59 62 74 73 77 81 80 73 70 63 59 58 56 56
66 68 66 61 56 52 47 41 35 32 29 26 24 20 16 13 14 16 17 21 30 38 35 37 38 42 50 58 65 67 73 89 82 78 83 86 84 76 71 63 60 57 57
61 56 52 49 45 41 38 35 31 27 23 19 17 15 15 15 14 12 13 13 15 25 32 40 47 54 54 65 73 75 86 88 88 81 85 91 91 85 75 64 59 60 59
53 46 44 43 40 36 32 30 26 22 19 19 18 16 12 13 18 20 20 20 19 27 29 28 35 52 77 80 67 79 88 87 87 82 87 94 95 93 78 67 60 64 65
44 44 43 39 36 35 33 28 22 21 21 17 17 20 17 18 22 22 22 21 19 22 34 45 40 43 68 75 75 85 83 85 85 83 88 95 97 96 80 71 62 66 68
46 44 43 41 38 34 28 24 24 21 17 14 14 17 20 20 18 18 20 24 26 22 34 43 49 62 76 86 86 84 79 79 80 86 89 96 99 97 84 75 67 68 70
48 48 45 41 34 30 26 25 23 20 16 15 17 17 18 18 19 20 24 27 33 33 46 54 55 66 78 81 85 80 79 77 79 85 89 97 99 97 86 77 69 70 70
51 49 42 36 33 30 28 25 23 18 16 17 18 17 17 17 17 20 25 34 40 46 51 59 68 77 77 79 79 80 77 79 82 88 92 98 98 98 84 77 70 71 71
51 44 39 38 35 31 28 25 20 18 19 19 18 17 16 16 18 20 22 32 43 56 65 67 72 78 76 71 71 74 79 83 88 90 95 99 99 96 79 76 71 70 71
46 43 42 40 35 31 27 22 22 22 21 20 19 18 18 18 18 20 24 28 37 51 66 69 78 80 78 76 80 80 87 89 90 93 96 99 99 90 80 76 72 71 72
48 46 45 41 35 30 25 25 24 25 23 22 21 23 24 24 25 26 29 31 34 45 59 73 79 80 79 83 87 90 90 89 93 97 98 99 98 88 82 77 74 73 75
50 49 43 37 33 29 27 27 28 26 25 23 24 25 26 28 29 30 32 33 38 43 56 71 78 84 90 90 90 91 91 95 97 99 99 99 98 91 85 79 76 76 77
51 44 39 36 33 30 30 30 29 27 26 27 26 24 24 25 27 30 33 36 41 45 55 70 79 86 91 93 91 90 93 97 99 99 99 99 98 93 87 81 80 80 80
45 42 40 37 33 33 33 32 29 27 26 25 23 22 22 24 25 27 29 36 43 49 54 65 80 88 92 96 95 88 93 96 98 99 99 99 99 95 91 88 87 86 86
46 44 41 36 35 35 33 31 28 27 27 25 24 24 24 26 27 28 29 32 41 49 55 64 79 89 94 97 97 94 90 93 97 99 99 98 99 98 95 94 94 95 94
47 45 40 38 37 35 32 29 29 30 28 27 26 25 27 29 30 32 36 38 38 49 56 62 73 89 96 98 99 96 88 96 99 99 99 98 97 99 99 99 99 99 99

GFSGL_prec_cthk_054.txt.gz
RH
53 52 53 55 65 75 79 80 85 90 95 98 96 95 98 94 90 95 97 96 93 98 94 85 83 74 66 56 44 37 35 37 37 36 46 51 47 45 47 45 42 34 30
46 46 53 65 68 73 80 87 90 94 94 94 92 95 93 90 87 92 88 94 92 96 89 85 77 69 57 46 45 38 39 40 42 41 47 54 57 58 53 49 46 38 34
51 53 52 54 55 61 69 83 84 88 82 83 88 92 81 79 87 87 88 94 97 95 90 77 71 59 46 46 40 40 41 45 49 52 51 59 60 61 52 53 48 44 42
49 50 53 54 53 52 55 63 69 75 79 74 75 79 81 82 87 87 94 98 94 90 84 68 52 42 35 36 39 41 45 47 54 62 57 58 62 60 57 54 53 50 43
52 54 53 54 53 55 60 62 64 64 66 68 79 80 80 82 88 94 96 92 87 75 58 43 35 32 27 27 32 38 50 53 58 59 62 60 58 59 63 60 58 49 48
58 55 54 55 55 57 56 54 59 61 67 71 79 78 83 89 92 95 88 75 60 47 38 34 33 31 30 26 28 36 44 56 63 68 68 63 62 64 62 63 62 55 51
46 45 44 44 46 50 55 58 63 62 66 76 80 86 86 89 84 73 57 41 35 33 33 33 30 29 33 39 42 40 44 50 55 62 64 63 65 66 67 67 61 59 55
42 42 47 51 55 57 55 58 59 65 72 76 79 78 72 71 59 42 32 28 30 28 27 30 32 34 38 46 51 50 53 51 56 57 59 62 67 70 72 68 66 64 61
40 44 49 52 53 57 59 62 64 66 69 68 66 60 49 40 32 26 25 24 27 27 27 31 35 34 36 39 43 46 49 57 66 60 67 66 67 70 71 69 70 69 64
44 46 50 54 58 60 62 64 63 58 55 47 40 35 30 29 30 26 26 27 26 28 26 30 29 29 30 33 42 46 57 58 72 72 64 70 77 74 76 73 72 73 66
50 53 57 60 62 63 57 50 44 41 36 34 32 30 29 28 23 20 18 17 17 17 19 20 21 28 38 39 48 51 56 61 73 73 79 82 85 81 81 81 81 77 70
55 58 59 56 51 45 40 36 36 36 34 33 30 29 29 28 27 25 21 20 18 22 21 20 21 22 27 38 48 50 62 68 87 88 82 90 95 90 86 89 89 82 73
56 52 49 46 40 38 37 37 38 38 36 35 32 32 31 30 28 27 25 21 19 22 22 19 17 22 25 24 34 74 84 88 85 76 87 91 99 91 90 94 95 87 74
53 49 45 40 39 38 38 40 42 38 32 30 34 33 31 30 29 26 25 24 22 20 21 26 23 20 34 37 32 41 67 90 87 80 90 92 94 88 91 95 97 90 78
50 46 42 40 40 40 42 41 37 33 31 29 30 26 28 30 27 20 19 19 16 19 21 23 26 31 45 55 47 44 69 79 84 86 84 86 87 88 94 96 98 91 79
49 46 44 45 44 45 46 44 38 35 34 31 29 26 24 23 20 18 15 12 13 17 24 35 46 56 59 63 75 75 83 89 88 85 84 84 85 89 96 98 98 91 80
49 48 49 48 49 46 42 41 44 44 36 33 29 27 24 23 20 16 13 12 14 18 31 39 46 56 61 75 74 77 88 88 87 82 85 84 85 92 97 99 98 91 81
52 53 53 52 49 44 43 42 41 41 41 38 33 27 25 22 18 16 15 16 21 24 28 38 51 58 60 69 77 81 83 81 80 81 77 82 87 94 98 99 98 89 80
59 57 55 49 46 45 44 43 41 40 39 36 34 33 26 20 18 20 22 27 26 27 27 32 44 64 69 72 79 82 79 72 76 83 84 88 93 98 99 99 98 85 79
63 56 52 50 48 48 47 43 40 39 38 37 37 34 23 19 21 27 28 28 29 29 30 32 38 53 75 77 81 86 82 83 87 90 89 91 98 99 99 99 95 84 74
58 57 54 52 52 50 45 41 38 37 36 36 36 29 22 19 26 26 27 27 28 31 32 34 37 47 64 79 84 82 87 90 91 92 93 97 99 99 99 98 91 84 79
60 58 56 55 52 47 43 40 38 37 35 32 29 26 20 24 28 28 27 27 28 30 33 37 40 45 60 79 84 90 92 93 92 91 97 98 99 99 99 98 91 82 76
62 60 58 54 50 46 43 41 40 37 33 28 26 25 25 27 26 29 28 28 28 28 31 37 42 44 57 75 87 95 96 95 95 95 99 99 99 99 99 98 92 83 78
65 60 56 52 49 46 45 44 42 36 31 30 27 27 30 28 29 30 30 30 28 30 31 33 41 48 54 71 85 95 98 94 92 94 99 99 99 99 99 99 93 85 82
62 59 57 56 54 52 49 45 41 38 35 32 30 30 30 29 32 33 33 33 35 40 39 36 42 50 55 72 83 97 99 98 91 86 92 98 99 99 99 99 96 91 89
67 65 64 62 60 56 50 47 45 42 37 33 32 33 32 31 32 35 35 38 43 47 49 44 45 54 59 67 86 97 99 99 93 94 94 99 99 99 99 99 99 97 97

GFSGL_prec_cthk_057.txt.gz
RH
75 71 68 67 63 63 60 67 76 77 79 86 93 94 97 94 86 94 98 91 91 86 84 82 81 91 93 87 80 75 62 50 44 37 40 43 45 51 52 51 48 46 45
71 70 63 63 59 63 67 65 65 66 69 74 81 96 86 80 86 86 78 84 82 86 81 82 89 92 88 83 74 58 46 41 41 39 37 43 49 53 55 57 54 48 48
62 57 56 58 63 59 59 61 60 60 62 69 72 74 76 72 66 77 77 74 74 79 85 90 92 90 82 69 52 46 43 44 47 50 50 50 53 56 60 62 60 54 53
54 56 60 59 57 58 59 59 56 57 62 68 69 67 68 71 75 75 80 78 82 87 90 87 80 69 55 47 45 44 42 41 47 59 60 57 67 61 64 66 63 59 60
54 58 58 60 63 62 58 57 63 62 66 64 63 67 69 71 71 73 80 86 86 84 78 66 55 43 40 39 38 32 34 38 42 50 60 68 69 74 77 70 70 67 61
64 67 66 67 62 58 56 53 55 57 58 58 61 66 68 70 77 80 84 80 70 61 50 43 39 37 38 41 44 41 38 36 35 42 46 62 70 81 88 74 78 73 63
63 63 57 52 48 45 44 48 52 55 56 58 60 65 71 72 72 66 60 52 42 36 33 33 36 34 36 37 36 39 39 43 53 51 53 55 65 78 83 75 77 74 72
54 52 50 47 44 45 49 51 50 51 55 58 62 63 62 62 54 46 38 33 31 30 29 31 33 33 32 35 41 41 40 47 57 63 66 66 73 76 73 79 78 75 73
51 46 43 40 43 46 48 50 53 55 57 59 56 52 47 44 41 37 33 30 28 29 30 29 28 29 30 32 33 35 34 38 42 61 75 80 83 82 75 82 83 82 75
43 39 39 42 45 49 51 54 55 55 50 46 42 39 39 41 42 40 33 29 24 22 22 22 21 20 19 20 27 32 37 42 49 58 76 82 84 78 77 90 90 86 82
39 42 45 47 50 52 53 52 47 42 40 41 37 39 42 41 38 32 27 24 23 22 21 20 18 20 20 19 21 24 25 34 45 58 70 85 85 79 82 83 93 89 85
45 46 48 50 51 50 48 44 38 38 39 40 41 41 41 40 39 36 32 29 26 24 22 19 16 13 13 14 16 15 23 25 38 55 67 77 91 93 87 87 89 91 84
48 49 50 50 48 45 42 39 40 42 44 45 43 43 42 41 39 38 32 26 24 23 21 16 12 12 13 16 18 16 24 38 32 46 83 88 94 81 85 93 97 98 91
51 52 53 49 46 44 42 42 45 47 44 44 44 43 43 39 39 34 28 26 25 21 18 14 14 23 34 41 44 48 59 52 39 54 80 92 96 87 90 96 97 95 94
56 55 52 49 48 47 46 46 45 45 41 38 39 38 37 35 36 31 29 27 24 20 16 19 24 23 28 39 51 66 76 75 53 55 74 89 87 87 88 89 91 93 95
59 58 54 50 48 50 50 52 50 45 41 40 40 39 37 34 33 31 30 27 23 19 18 22 22 26 30 37 48 59 74 74 77 87 89 89 92 88 86 89 90 94 98
64 57 53 50 53 54 53 52 50 50 49 47 44 39 36 34 33 32 29 26 23 22 23 24 27 26 29 37 47 61 77 81 86 83 86 87 86 87 91 89 90 97 98
60 57 55 57 57 54 56 52 53 54 53 53 49 43 38 35 33 31 28 24 27 24 25 28 28 26 27 34 48 54 67 75 83 89 86 81 80 83 85 87 93 99 99
64 59 60 61 59 55 53 52 53 55 56 52 49 47 45 37 32 32 33 29 26 25 30 29 31 29 29 33 43 62 69 75 82 85 83 85 90 89 92 95 99 99 99
64 68 68 64 61 60 58 57 60 58 55 53 50 48 46 34 31 35 32 29 27 30 28 29 30 31 32 34 40 56 74 78 88 90 90 90 90 91 94 99 99 99 98
79 70 66 65 65 63 60 60 58 57 55 53 51 49 43 36 36 35 33 30 28 28 28 28 28 30 34 38 42 52 76 84 90 89 92 90 93 94 98 99 99 99 99
73 71 69 67 66 64 60 57 56 58 57 55 53 51 48 41 38 36 34 31 29 29 30 30 30 30 34 41 44 52 74 84 88 92 97 98 96 98 99 99 99 99 99
75 72 71 69 66 63 62 63 62 63 61 59 57 54 47 42 40 37 34 32 31 32 34 35 35 35 36 43 49 53 70 86 93 99 99 99 97 98 99 99 99 99 99
75 73 72 71 71 67 70 70 70 68 66 64 59 52 49 46 42 38 36 34 34 36 38 39 41 43 41 43 52 56 65 85 95 99 99 97 95 99 98 99 99 99 99
77 77 77 78 81 80 79 77 76 75 70 62 58 56 52 48 43 40 38 37 38 39 42 43 46 48 47 45 53 57 67 80 97 99 99 92 89 97 99 99 99 99 99
82 83 82 87 87 84 82 80 76 70 66 63 60 57 54 49 45 44 42 41 41 43 46 51 52 54 53 50 56 61 66 85 95 99 98 92 88 94 99 99 99 99 98

GFSGL_prec_cthk_060.txt.gz
RH
69 72 72 74 77 89 78 64 66 73 68 67 65 63 66 64 76 93 98 90 82 73 73 75 78 78 80 84 85 82 79 72 55 38 35 33 35 38 43 48 51 50 48
76 74 83 84 80 75 69 66 72 65 62 61 63 61 60 63 69 73 73 75 68 71 74 73 78 81 84 82 76 72 62 49 47 36 34 36 39 42 50 52 58 60 60
73 80 77 72 70 67 62 66 63 62 61 63 64 65 67 68 67 67 74 67 71 72 74 78 85 86 80 74 66 51 47 46 44 49 46 47 47 50 59 62 63 69 70
63 62 65 64 59 59 62 64 66 66 66 64 62 63 64 69 67 66 69 70 70 74 80 84 82 71 61 50 41 40 43 46 48 54 51 51 50 46 54 66 69 75 77
51 51 56 59 62 64 67 68 69 64 62 57 58 55 66 64 67 67 68 70 74 77 78 67 58 51 44 43 42 42 47 47 45 44 41 40 41 44 53 68 75 84 83
50 60 63 69 72 71 71 66 59 53 49 52 54 54 58 60 64 66 71 71 74 62 52 43 40 37 34 37 41 42 45 47 46 47 47 51 48 62 66 73 86 88 87
62 67 68 67 66 65 57 50 46 43 45 49 50 53 56 60 61 64 61 54 44 37 36 36 36 36 37 36 36 35 35 36 39 42 47 46 56 63 72 77 87 88 91
64 64 61 63 60 55 51 46 43 44 45 48 51 52 54 55 53 50 44 40 39 37 35 35 36 35 33 33 31 30 29 29 29 36 44 43 52 60 70 81 87 87 86
59 57 56 58 56 50 45 43 45 46 48 50 51 50 46 43 41 42 40 39 36 32 30 29 27 26 24 23 22 20 17 15 16 18 25 33 54 61 68 86 88 91 81
49 50 54 52 46 40 42 44 46 48 48 47 45 42 40 40 42 40 37 33 30 30 30 27 25 24 23 21 19 17 18 14 13 12 12 18 43 65 78 87 95 92 74
50 53 50 44 41 43 45 47 46 46 45 42 38 38 38 39 38 35 33 30 29 29 28 27 26 24 22 19 16 18 19 18 18 20 17 20 18 52 77 84 91 85 89
51 49 41 42 44 46 48 47 45 45 42 40 39 40 40 42 39 36 34 33 32 31 29 27 25 23 20 19 22 28 32 35 31 29 29 34 27 36 75 82 91 94 87
44 41 43 44 46 48 48 45 44 44 43 42 42 43 46 45 42 39 36 35 33 31 28 27 25 22 20 19 22 21 33 40 49 55 59 42 36 38 65 89 97 88 82
43 45 47 47 48 47 46 47 47 46 44 42 45 45 45 41 40 39 37 35 33 31 29 28 25 24 24 20 15 19 28 42 57 66 67 52 49 72 89 91 97 90 91
48 50 51 52 53 50 52 51 48 45 44 46 46 44 42 43 41 41 39 36 33 32 30 28 30 29 24 16 15 20 29 41 51 67 74 69 65 70 88 88 92 90 80
53 56 60 58 56 55 56 53 51 51 51 50 47 45 47 46 43 41 39 38 35 34 32 34 33 29 23 20 20 22 28 40 54 68 77 78 90 91 90 91 91 89 84
69 71 67 64 64 62 61 59 59 61 59 55 53 51 49 46 42 42 40 38 37 39 38 35 32 26 23 23 25 26 29 37 56 73 80 85 89 89 91 94 92 90 87
77 71 72 71 69 65 62 63 64 63 63 62 62 58 56 52 46 43 41 40 42 38 37 34 29 25 24 25 27 29 31 34 47 75 83 88 89 90 86 86 89 89 87
79 81 76 71 68 67 68 67 64 64 64 66 64 62 59 56 51 45 48 50 45 41 37 31 27 25 25 26 28 32 33 35 46 63 78 88 90 90 87 91 89 91 94
83 76 70 72 79 77 72 71 71 71 70 68 65 62 60 56 51 48 55 52 48 41 34 30 28 28 28 28 30 33 36 38 47 65 77 82 91 93 96 94 92 96 98
86 89 89 84 82 80 76 75 74 70 67 66 65 63 62 60 57 59 59 54 47 41 36 33 31 32 33 33 33 35 39 42 49 67 78 88 91 95 99 95 97 98 99
95 88 86 85 80 79 77 75 70 67 68 71 71 70 70 69 69 66 59 52 49 44 39 35 35 36 37 38 38 36 40 46 51 66 82 90 91 96 98 99 98 99 99
91 88 86 85 81 78 76 74 74 75 79 77 76 76 76 73 69 61 57 54 51 45 39 38 38 38 39 41 44 42 42 49 54 66 82 89 92 99 99 98 99 99 99
88 87 85 83 81 79 79 82 82 84 86 83 80 77 75 69 65 62 59 55 49 42 39 40 38 39 42 47 49 48 46 53 58 64 84 91 98 99 99 98 99 99 99
89 88 86 85 87 91 91 90 90 89 85 80 77 72 70 68 63 59 56 51 45 41 38 38 39 42 47 51 54 53 52 57 62 67 79 93 98 99 99 96 99 99 99
91 92 94 95 96 96 92 88 83 80 77 71 67 66 65 62 58 56 50 45 41 38 39 40 44 50 54 55 56 57 57 63 66 70 80 92 98 99 96 91 97 99 99

GFSGL_prec_cthk_063.txt.gz
RH
56 51 55 63 73 82 78 94 84 80 73 78 66 64 62 62 62 60 59 64 63 60 66 69 67 72 70 74 76 79 82 74 62 49 44 42 41 40 41 43 45 47 46
65 65 66 81 91 91 97 93 91 76 72 68 65 65 64 62 57 59 54 62 58 66 72 67 70 70 75 77 79 76 66 60 54 43 43 42 44 45 50 55 60 64 60
88 89 81 68 69 83 81 73 64 64 57 61 66 66 61 57 60 55 68 71 66 65 68 70 71 74 75 72 64 56 50 49 52 53 48 48 46 48 51 56 50 62 66
74 76 67 73 70 65 62 58 57 60 63 64 62 58 55 57 58 56 70 63 64 65 67 70 72 73 59 49 45 46 45 46 49 52 50 48 49 48 55 55 53 52 55
58 49 48 54 54 55 53 52 61 63 65 62 58 52 49 53 55 62 60 62 66 68 68 68 61 49 40 41 45 46 46 46 44 43 43 46 45 44 43 45 51 60 73
42 45 47 50 54 56 61 62 64 65 61 54 47 46 51 54 56 56 59 61 61 66 62 49 38 37 37 33 34 36 38 40 41 43 42 46 42 47 47 46 53 63 73
41 44 45 51 56 66 63 58 61 55 51 46 42 45 47 49 52 54 58 57 55 47 36 33 35 35 32 33 32 32 33 33 35 36 34 34 35 37 43 41 42 54 66
50 49 54 56 60 59 56 54 53 53 45 40 42 43 46 48 51 52 50 43 36 35 37 38 35 32 30 28 27 27 25 24 21 19 16 15 15 16 20 38 40 45 67
52 57 60 59 55 53 53 52 54 47 39 40 42 44 47 49 47 42 39 39 39 40 36 33 33 32 31 30 28 26 24 22 22 22 21 18 15 12 12 17 32 46 73
57 61 60 56 54 52 51 54 50 40 42 44 45 45 43 40 41 41 42 42 36 35 33 35 35 33 32 30 29 28 27 26 27 23 23 22 18 13 20 22 26 55 77
48 48 48 47 48 52 52 48 41 43 45 45 42 40 39 42 43 43 40 36 36 36 36 37 36 34 32 31 30 29 30 29 27 27 28 27 31 37 37 29 28 52 79
40 43 46 50 51 50 45 42 44 46 47 44 41 40 42 44 43 42 40 39 39 39 40 39 36 35 33 32 29 26 24 24 24 23 27 36 42 45 42 35 31 46 83
47 50 52 51 50 46 44 45 47 48 46 43 41 44 46 46 47 46 44 44 43 43 41 38 36 35 33 30 29 26 22 21 21 24 29 37 51 57 49 44 49 60 89
53 54 53 51 49 47 48 51 51 47 45 45 48 51 53 54 52 49 49 47 44 43 41 40 38 35 33 31 29 25 20 16 18 25 33 45 53 57 54 58 81 88 91
57 57 57 56 53 52 54 55 58 58 56 54 55 56 57 56 55 53 52 49 46 45 43 41 39 37 35 33 29 24 17 15 16 23 36 52 58 64 73 73 92 93 92
60 62 64 65 59 59 62 67 68 65 62 58 57 57 59 58 57 55 53 51 48 47 46 44 44 44 41 35 28 20 17 18 20 23 33 56 66 66 79 89 89 89 88
68 70 69 69 72 72 74 74 70 68 66 64 64 69 64 63 59 57 57 54 51 49 49 49 49 47 42 34 26 21 20 21 24 28 33 48 70 76 75 88 91 93 92
78 80 78 75 77 77 78 75 70 66 69 77 74 71 69 66 63 64 61 56 54 52 51 52 53 48 40 31 28 24 23 23 25 29 35 44 63 78 81 85 88 88 83
84 86 85 80 81 82 75 71 74 83 82 81 82 81 80 75 71 67 66 60 59 60 60 59 55 47 37 33 31 28 27 26 28 32 38 44 57 78 88 88 90 93 93
90 84 86 89 84 81 86 91 88 87 84 84 85 84 79 75 73 70 65 64 67 67 65 60 52 42 39 35 31 30 30 29 28 34 41 45 56 72 85 91 94 93 89
94 94 91 96 97 97 97 95 89 87 88 87 82 79 77 76 75 72 72 76 74 68 63 53 47 42 39 36 32 32 33 33 32 37 43 46 59 78 84 90 97 97 96
97 97 97 96 96 96 96 92 89 89 84 82 81 81 84 82 82 82 80 75 70 63 57 52 46 42 39 35 35 35 36 38 39 41 46 48 61 80 87 93 96 96 98
97 97 97 97 97 97 92 89 89 85 84 86 89 89 88 87 86 76 71 67 62 59 56 51 45 40 37 35 37 39 41 44 47 46 48 51 61 82 91 93 94 98 99
97 97 97 97 97 96 91 92 92 95 95 95 93 89 85 79 76 69 63 62 62 59 53 45 40 37 35 38 41 45 48 53 53 50 54 56 62 82 92 94 99 99 99
97 97 97 97 96 97 98 98 97 94 88 81 76 74 73 71 69 65 63 61 56 49 43 39 38 38 40 43 48 52 56 58 57 57 60 61 62 85 93 98 99 99 99
97 97 98 97 96 93 90 85 79 76 74 71 68 65 64 63 60 58 56 51 46 42 38 39 41 42 45 49 56 62 63 59 59 62 66 65 68 86 96 99 99 98 97

GFSGL_prec_cthk_066.txt.gz
RH
54 52 64 66 68 72 78 91 97 98 94 72 74 79 82 71 63 62 64 54 55 56 57 57 58 59 64 59 70 69 69 70 66 59 52 46 42 41 43 46 46 45 44
81 88 78 78 80 78 90 94 96 78 77 80 77 76 72 69 65 58 53 53 55 60 68 68 61 62 63 73 73 72 73 66 55 44 43 41 41 43 45 48 49 50 49
76 80 79 88 93 93 88 85 82 74 65 67 70 70 72 68 61 57 57 57 61 64 71 69 64 66 72 70 71 72 57 49 45 42 39 41 41 43 44 46 47 52 53
75 57 56 75 84 85 79 74 68 66 63 68 75 74 71 64 61 54 60 64 56 65 70 65 67 70 70 67 60 45 38 38 38 38 37 36 37 39 42 44 41 42 43
52 46 49 57 58 66 69 63 67 65 72 73 72 70 68 65 55 61 51 61 61 71 65 67 70 65 63 47 36 36 36 37 37 38 38 38 39 39 40 40 42 40 36
54 53 49 49 55 66 60 66 70 72 73 68 70 72 66 58 51 51 60 61 64 62 64 63 62 53 37 34 35 34 35 36 36 36 36 33 29 26 23 22 26 27 26
52 51 53 56 59 58 61 66 70 73 68 68 64 61 59 51 50 54 56 57 58 59 57 50 38 32 32 32 32 32 33 32 30 29 28 27 25 24 23 21 20 21 23
49 49 53 56 61 58 61 64 67 66 67 61 59 60 51 46 49 51 53 54 52 43 35 36 37 34 32 32 32 32 34 34 32 30 30 30 29 28 29 28 22 17 14
46 46 52 59 61 64 67 69 69 63 57 55 56 51 45 46 48 49 49 41 34 35 37 39 36 34 35 35 35 34 34 33 32 30 28 26 29 33 36 35 30 37 34
42 49 50 55 61 64 67 64 59 56 50 51 50 46 44 46 47 42 37 35 36 39 40 41 38 38 39 40 38 35 34 34 32 30 28 26 26 26 32 38 43 40 42
49 53 52 55 58 60 56 53 51 49 50 50 47 46 47 44 40 38 38 41 44 45 47 47 45 44 45 42 39 37 38 35 33 30 26 25 25 24 25 35 45 51 45
48 50 54 55 51 50 49 50 52 51 51 47 46 47 45 42 40 42 44 46 49 48 49 51 49 48 47 44 42 42 40 37 34 30 27 23 20 19 23 35 45 47 49
48 51 48 48 50 53 57 55 55 54 51 49 49 49 47 45 46 51 52 52 52 52 52 52 52 52 49 47 46 44 43 40 36 32 27 19 16 22 29 35 42 52 61
54 52 54 56 57 58 59 61 62 60 57 56 56 56 55 53 56 57 57 54 53 55 55 57 55 51 49 49 49 49 46 43 39 34 25 16 17 23 33 48 53 65 79
55 57 58 60 63 65 67 68 69 69 71 71 64 60 60 60 60 60 57 64 63 62 59 57 56 55 56 55 52 51 49 46 40 32 21 17 19 23 35 50 79 75 89
68 68 69 71 73 74 75 76 77 76 72 65 67 67 65 65 61 65 73 68 68 62 60 61 64 61 59 55 54 54 53 46 38 28 23 20 21 24 32 51 71 83 84
84 84 82 83 85 86 86 85 83 79 75 73 71 70 69 70 81 79 74 69 66 67 69 69 66 62 61 60 60 58 52 44 33 27 23 22 24 27 33 52 69 77 88
90 91 91 90 89 88 85 84 85 81 82 81 78 77 83 86 78 76 74 75 75 72 69 69 69 67 66 66 64 58 49 36 33 30 24 23 27 29 34 47 69 79 85
93 92 93 94 94 93 92 93 94 88 86 89 96 96 95 92 93 92 91 86 81 75 75 74 72 73 72 67 61 52 41 37 33 29 25 24 28 32 37 48 63 81 89
96 97 96 97 95 91 92 95 95 95 97 97 97 96 96 97 97 94 88 82 82 82 79 82 81 75 69 62 52 46 42 37 33 29 28 27 31 36 41 50 67 77 90
96 94 92 93 96 97 97 96 96 96 97 97 97 97 97 97 92 89 88 88 88 91 90 83 74 69 59 53 50 46 40 36 32 31 32 31 34 40 47 55 71 83 92
92 96 97 96 97 94 95 97 97 97 97 97 97 97 97 96 97 98 98 98 97 88 81 75 65 60 57 54 49 42 37 35 34 35 36 38 40 45 51 59 78 85 92
92 94 95 97 97 97 97 97 97 98 98 98 98 98 98 98 98 97 94 89 84 79 72 66 63 59 55 49 43 41 37 36 39 42 43 45 47 52 55 64 83 88 97
96 97 97 97 97 98 98 97 98 98 98 98 98 98 96 91 86 82 81 75 69 67 64 60 57 52 46 44 43 41 41 44 46 49 50 53 54 58 60 67 86 92 98
97 97 97 97 97 97 98 98 98 98 95 90 85 80 77 75 71 67 65 65 64 62 58 55 50 46 44 43 43 44 47 51 56 57 57 57 57 64 64 71 89 94 98
97 97 97 97 97 96 92 84 78 72 66 63 60 56 53 53 53 53 53 52 52 51 48 46 44 42 44 47 48 50 55 60 64 66 62 60 64 70 70 76 89 95 99

GFSGL_prec_cthk_069.txt.gz
RH
55 56 58 59 62 66 66 67 77 91 93 97 95 91 91 86 91 82 76 70 66 61 55 51 61 57 58 60 56 59 68 64 64 61 60 56 47 35 34 33 34 36 39
73 74 75 72 71 66 74 75 74 85 87 77 81 81 85 85 81 79 72 70 67 65 55 58 55 62 65 63 61 63 66 67 63 60 57 40 36 35 35 35 36 39 40
76 78 79 80 64 70 75 89 89 89 88 76 71 81 86 85 77 74 75 68 68 59 58 60 59 63 69 67 60 68 64 66 64 50 37 36 37 36 34 34 35 35 37
61 64 76 70 57 67 78 95 88 86 87 78 74 76 73 72 74 74 73 69 63 57 56 58 57 64 65 68 63 71 65 59 42 37 37 38 37 35 35 33 30 28 26
49 61 63 65 62 62 66 71 68 72 75 72 75 76 72 69 69 75 72 66 56 58 66 57 55 65 72 65 67 63 56 39 36 37 37 37 36 34 30 28 27 27 26
43 46 54 64 61 60 60 63 64 65 67 73 77 74 71 69 73 73 71 59 54 60 58 60 64 67 65 68 61 53 39 38 37 36 37 37 34 32 32 33 33 32 29
40 47 58 60 59 56 59 59 57 60 65 74 75 72 70 75 73 70 66 58 55 59 65 64 66 64 62 56 45 42 42 40 37 38 41 39 35 35 33 34 38 37 37
37 42 51 57 58 57 56 59 59 62 70 78 81 81 81 74 66 66 64 59 59 63 64 64 64 58 45 43 45 43 41 40 43 44 42 41 40 38 37 40 40 37 32
41 46 54 59 58 55 56 58 66 75 79 82 84 82 72 67 64 66 63 60 62 63 62 57 46 41 44 46 47 46 45 46 48 47 45 43 42 41 41 40 37 42 34
41 44 47 48 52 59 63 65 71 80 85 87 80 70 66 64 67 66 60 60 60 56 45 40 41 44 47 49 51 50 49 49 49 47 46 45 45 44 44 44 40 40 45
43 50 48 49 54 60 63 68 71 80 82 73 69 66 69 70 68 63 61 59 50 44 42 41 46 50 51 52 52 52 53 53 49 48 49 49 48 47 43 43 41 43 43
48 50 50 53 55 58 63 69 73 66 63 64 67 70 70 72 69 65 59 53 49 47 46 49 52 52 54 53 56 57 57 52 50 54 53 52 51 49 44 38 32 36 40
53 51 53 54 57 63 68 65 63 66 68 70 71 72 74 76 73 64 58 57 55 55 54 54 55 55 56 63 63 60 56 56 57 57 55 55 54 50 44 33 27 31 39
54 55 56 59 63 67 67 67 69 70 70 72 76 78 79 76 72 67 62 58 56 53 53 54 59 66 70 69 63 59 61 63 61 59 59 59 55 49 40 31 21 27 38
66 67 67 68 69 68 70 71 72 76 81 82 83 84 85 86 81 74 70 66 57 56 64 72 75 78 69 64 62 68 67 65 64 64 65 61 56 47 36 23 21 29 43
75 79 79 78 83 86 85 83 84 86 88 90 92 92 90 82 75 72 68 60 69 83 81 78 74 68 70 74 75 70 68 68 68 69 67 63 54 42 29 21 23 28 39
85 86 88 88 89 90 92 93 94 94 95 94 92 88 81 76 75 75 77 86 88 80 77 72 74 78 80 75 75 75 71 74 74 70 67 61 49 34 26 22 25 27 37
97 98 98 97 96 95 96 95 96 96 94 91 88 86 86 87 85 85 92 94 89 88 87 86 86 85 84 83 82 80 81 77 72 70 64 52 41 32 25 24 26 28 34
98 97 94 94 97 97 97 97 97 97 97 97 97 97 97 97 96 96 98 98 97 97 96 94 95 95 92 92 92 85 80 74 71 64 52 46 39 30 26 27 31 34 40
90 85 87 87 89 93 97 97 97 97 97 95 96 97 97 97 97 97 97 98 98 98 98 98 98 98 97 93 87 81 75 68 59 53 49 42 36 31 30 30 36 39 45
87 88 86 83 88 91 93 95 93 90 91 92 96 95 97 97 98 97 97 98 98 98 98 98 98 98 94 89 81 72 62 56 55 49 43 38 35 34 35 34 40 46 51
85 87 89 91 94 95 96 96 96 95 97 97 98 98 98 98 98 98 99 99 99 99 99 99 98 93 84 76 66 58 54 51 48 45 42 39 38 40 42 42 47 52 59
90 93 97 97 97 97 97 97 97 96 97 98 98 98 98 99 99 99 99 99 98 95 88 82 77 71 65 61 55 51 49 47 45 45 42 44 46 46 48 50 56 59 66
97 97 97 97 97 97 97 97 97 97 98 98 99 99 99 99 98 92 82 75 70 66 61 59 58 57 55 52 50 49 47 47 46 46 49 50 51 55 54 58 65 65 73
97 97 97 97 97 97 97 97 98 98 96 92 83 72 64 59 56 53 49 44 43 42 43 44 45 46 45 44 43 46 48 49 51 53 54 56 61 60 62 67 69 69 79
96 96 96 95 92 87 79 68 57 50 44 41 39 38 36 33 33 34 36 37 39 41 42 44 45 44 43 44 46 49 53 56 57 60 61 66 70 68 69 71 74 73 84

GFSGL_prec_cthk_072.txt.gz
RH
54 51 52 54 58 60 62 61 58 65 71 75 84 93 96 96 90 89 90 96 93 91 86 74 67 60 58 53 67 59 58 59 59 62 58 64 65 61 48 35 36 35 37
67 62 58 57 60 62 61 66 66 71 75 75 84 91 83 80 95 90 89 93 89 86 87 72 67 58 63 56 65 62 69 64 62 59 64 62 62 49 35 35 35 36 38
61 64 64 66 65 71 57 66 69 73 82 84 86 83 72 79 86 85 87 92 86 88 85 77 66 69 55 57 64 60 71 67 68 64 66 64 50 38 37 35 35 38 37
47 53 51 54 59 69 54 58 65 76 85 88 85 80 83 80 80 79 80 83 80 78 82 76 72 64 57 63 61 59 71 70 71 62 63 53 39 38 36 36 40 41 38
44 49 46 48 61 63 61 59 62 71 78 72 77 83 87 80 79 79 76 71 73 77 84 77 68 56 62 68 61 63 71 73 63 63 56 43 41 39 40 42 41 38 38
41 42 47 50 56 63 67 62 62 65 73 72 73 79 81 82 83 81 73 75 75 75 77 74 69 56 65 63 63 69 70 65 56 53 46 46 46 45 46 44 41 40 39
38 35 39 45 47 63 71 66 67 67 69 76 80 78 77 81 80 82 85 87 82 77 73 69 69 62 59 68 70 71 61 54 49 45 48 49 49 50 48 48 46 45 46
41 38 36 36 36 48 59 66 67 65 66 73 77 73 76 79 81 89 94 90 77 71 69 68 62 62 68 71 68 60 53 45 44 48 50 51 53 54 51 49 50 49 49
42 38 38 38 40 46 54 59 61 71 70 68 68 73 77 84 86 98 87 76 68 69 68 68 64 65 68 65 57 47 43 46 48 50 54 56 58 57 53 53 55 56 50
47 46 46 42 45 51 51 53 58 60 60 60 65 71 81 87 97 86 72 71 70 72 72 70 68 64 60 54 46 47 49 49 50 57 56 60 60 55 56 60 59 60 58
54 56 59 56 53 52 50 52 56 59 62 65 70 79 83 90 74 72 71 73 76 77 77 72 68 61 50 46 46 48 48 49 59 58 65 63 57 59 64 61 63 61 60
62 62 62 61 59 53 48 53 54 58 66 70 74 84 81 71 71 71 77 79 79 79 79 75 66 60 56 54 52 50 53 65 60 65 68 61 66 68 64 66 64 61 60
62 62 60 59 53 54 58 58 60 66 69 74 79 75 72 72 75 79 80 83 85 87 81 70 62 57 56 56 56 58 64 69 76 70 69 72 69 67 69 69 64 61 57
67 69 66 65 68 67 65 67 71 74 79 81 80 81 83 86 88 90 93 94 89 82 74 67 63 62 65 64 67 80 85 78 71 70 76 72 71 74 73 68 65 61 54
81 77 77 75 76 79 80 84 88 89 88 88 89 89 89 91 94 96 96 93 87 80 74 72 73 71 74 82 89 83 75 73 80 78 77 77 80 78 73 69 65 60 52
85 83 81 84 85 87 90 91 92 93 95 96 97 97 98 98 98 97 97 92 87 83 77 73 79 85 89 88 81 79 86 84 83 87 84 88 81 78 73 69 65 57 42
85 86 89 93 96 96 97 96 97 98 98 99 97 96 96 97 97 96 93 88 81 78 81 91 91 90 87 84 88 94 92 92 91 93 90 87 81 78 72 69 60 46 30
92 93 95 96 98 97 98 98 98 97 97 96 96 96 96 96 95 93 92 95 96 94 96 97 97 97 97 97 98 98 98 98 98 94 90 85 81 75 71 61 47 33 25
96 97 93 89 91 94 97 96 93 92 94 95 94 92 94 96 96 96 96 96 96 97 97 97 97 98 98 98 98 98 98 98 97 92 87 82 77 69 56 45 38 30 27
87 90 94 91 86 87 93 91 89 90 93 92 89 91 94 96 97 97 97 97 98 98 98 98 98 98 99 99 99 99 99 97 91 87 81 69 58 51 46 42 36 30 29
90 94 93 89 85 83 84 87 88 89 92 95 96 96 96 97 97 98 98 98 98 98 98 99 99 99 99 99 99 99 95 81 70 63 55 51 50 49 46 41 40 38 38
87 86 86 85 82 83 87 90 92 94 96 97 97 97 98 98 98 98 98 99 99 99 99 99 99 96 88 79 73 70 64 56 55 53 51 51 51 49 48 44 43 45 46
88 85 85 90 96 97 97 97 97 97 97 97 97 98 98 98 98 99 98 96 90 81 72 66 62 59 55 51 50 51 50 49 48 49 50 50 51 50 51 50 51 51 55
96 97 97 96 96 96 96 96 97 97 97 97 97 93 84 75 66 57 51 47 45 43 41 38 36 35 37 39 42 44 43 42 45 48 50 52 52 56 58 58 58 59 63
96 96 96 96 96 95 94 89 80 70 60 53 48 44 39 35 34 34 33 31 30 31 32 34 36 38 40 41 43 45 47 49 54 56 56 59 59 63 65 67 66 66 72
87 82 76 68 59 53 48 44 40 37 34 30 29 29 27 26 26 27 29 31 32 35 37 39 41 43 45 47 50 52 55 60 63 65 65 66 68 73 75 75 74 74 79

GFSGL_prec_cthk_075.txt.gz
RH
50 50 50 48 49 53 58 62 63 64 63 64 71 71 72 75 76 76 79 82 89 96 95 90 91 90 89 83 81 73 67 63 61 65 62 70 67 66 64 63 58 43 37
62 63 60 58 54 55 57 59 61 62 64 60 64 67 69 73 81 89 92 93 95 98 96 92 93 96 93 88 81 73 68 58 59 62 63 70 73 65 64 59 48 41 39
55 56 55 57 60 58 62 62 64 58 65 68 70 77 83 82 89 93 86 92 99 98 93 95 94 96 97 85 75 74 69 55 61 62 62 71 70 64 55 47 41 41 45
47 50 46 51 52 52 56 62 59 55 63 68 71 79 86 89 88 81 85 79 88 90 88 91 84 86 80 92 81 68 67 57 68 62 60 66 68 55 45 40 41 44 48
37 41 44 49 51 49 50 59 60 59 61 70 73 77 84 91 90 87 93 89 86 85 79 73 74 72 75 90 77 70 65 61 71 65 63 63 54 44 38 38 42 47 50
39 39 41 47 50 47 51 54 59 62 62 64 67 71 78 84 80 81 88 87 85 83 77 76 75 82 88 81 78 68 69 63 63 68 64 54 45 40 42 46 44 47 51
42 41 39 39 41 40 44 49 57 69 68 63 68 71 73 77 81 83 88 88 85 82 83 86 87 84 83 71 75 70 70 63 68 64 55 48 45 45 44 45 48 55 58
47 43 43 43 40 39 39 37 47 63 65 64 66 69 70 76 80 81 82 83 84 84 87 93 94 87 74 76 73 72 70 68 63 57 48 45 45 46 46 50 57 64 60
50 44 48 49 44 44 42 43 49 58 63 65 65 70 70 71 70 69 73 75 83 88 98 98 91 75 73 78 75 80 73 68 62 58 56 50 47 46 50 59 68 61 60
52 54 55 59 53 53 52 50 49 53 56 59 60 61 65 66 64 67 70 76 84 96 97 96 75 71 77 79 81 80 76 71 63 58 52 53 54 55 63 72 65 65 70
57 61 60 62 62 62 63 59 57 56 53 52 56 58 61 65 69 72 78 87 88 98 89 72 72 77 81 83 82 76 71 64 59 55 55 56 60 66 73 76 70 75 69
68 65 64 65 66 69 72 63 62 60 55 55 59 61 64 68 75 78 84 98 99 77 73 79 82 86 85 80 76 69 65 63 60 58 60 67 79 78 78 77 81 73 79
69 71 71 70 72 73 68 65 63 60 63 62 64 67 77 77 73 81 98 87 79 85 87 89 87 85 81 76 69 66 65 63 71 77 79 82 81 77 80 81 80 84 78
73 74 71 75 73 74 74 74 76 80 82 79 83 87 94 98 99 97 87 89 91 93 93 90 87 81 74 69 72 77 83 87 86 86 81 78 82 84 84 86 87 82 78
84 83 81 77 77 79 79 81 84 85 88 93 94 96 97 97 99 96 96 96 97 96 94 90 87 86 86 87 87 89 90 88 85 83 84 86 89 90 92 89 85 82 76
83 84 84 86 88 87 88 91 90 93 94 97 99 99 98 98 98 98 98 97 97 97 97 94 90 91 91 88 90 90 89 89 93 96 96 96 96 96 92 89 85 81 77
93 91 91 91 93 93 92 92 96 98 98 98 98 98 97 97 97 97 96 97 96 96 95 89 89 91 93 95 94 93 94 97 97 97 97 97 97 95 90 88 84 84 80
98 97 98 98 98 97 96 96 96 93 93 97 98 97 97 97 97 96 96 96 94 92 92 94 95 96 96 96 96 96 96 96 96 96 97 97 97 96 92 92 88 81 67
98 98 98 93 89 94 95 95 95 93 92 92 95 96 96 94 91 91 90 90 91 93 94 93 94 94 94 95 95 96 96 96 97 98 98 99 98 93 82 71 62 52 47
95 96 93 94 93 93 92 94 96 96 93 87 88 87 86 87 87 87 88 89 91 93 93 93 93 94 95 96 96 97 98 98 97 92 85 76 67 60 57 54 53 52 49
89 97 97 93 97 97 96 96 91 90 88 87 84 85 85 87 90 92 94 93 93 93 93 94 94 95 93 89 83 77 70 64 60 56 55 54 52 52 53 53 54 54 50
93 96 97 95 95 96 95 95 93 91 88 88 89 93 95 93 93 93 93 93 92 88 82 74 67 59 54 50 45 41 38 37 39 42 46 47 51 53 55 58 59 59 59
97 95 95 95 94 96 96 92 93 95 96 96 96 96 94 92 86 76 67 60 53 48 44 41 38 35 33 30 30 32 34 37 40 43 44 47 51 56 60 61 62 62 61
96 96 97 97 96 96 96 96 95 93 88 80 70 60 53 47 43 39 37 34 33 32 30 28 27 28 29 32 34 37 40 42 45 48 52 55 61 65 67 68 68 67 67
96 95 93 89 83 75 66 60 54 49 45 41 38 35 34 31 29 29 28 26 24 24 26 27 29 31 33 36 39 43 47 50 53 57 61 66 70 74 74 73 73 73 76
61 57 54 50 46 44 41 38 36 34 32 30 28 27 27 25 22 22 22 24 25 27 29 31 33 35 38 41 44 48 52 56 62 67 71 76 78 80 79 80 81 83 85

GFSGL_prec_cthk_078.txt.gz
RH
38 43 48 51 53 55 58 60 64 67 67 67 68 71 74 77 76 74 74 77 78 76 76 79 79 83 91 94 94 95 96 93 88 89 83 68 60 61 58 63 68 67 63
42 48 49 51 56 55 57 57 60 65 67 70 73 74 73 78 81 79 79 80 86 84 87 87 87 95 95 98 97 97 92 94 89 78 74 71 61 63 63 63 65 66 58
50 51 52 47 48 48 56 58 58 65 67 70 68 71 72 69 74 80 78 73 75 77 85 83 94 99 96 95 96 97 97 90 88 84 77 72 62 70 71 66 64 56 51
50 51 51 47 42 44 50 53 54 59 62 63 60 63 71 69 72 72 77 82 84 84 79 78 86 94 94 97 94 89 90 82 94 87 76 71 67 66 68 65 59 52 47
45 45 43 47 49 50 46 48 49 54 62 60 59 63 66 66 63 70 78 90 90 85 87 86 84 83 83 81 83 89 81 90 99 91 76 71 68 65 64 57 53 46 40
42 38 45 48 47 50 53 55 53 53 59 63 60 63 64 63 63 71 76 84 85 86 86 84 86 88 84 82 89 90 88 86 81 75 72 70 70 65 60 52 53 48 49
47 44 44 47 47 49 53 57 57 58 60 62 63 67 69 66 69 73 77 78 77 77 81 86 90 88 88 86 87 94 91 91 85 74 76 75 69 64 59 60 59 57 54
50 47 46 48 46 45 41 43 44 46 50 58 69 73 72 68 69 76 79 79 80 80 83 86 87 85 85 88 95 98 97 96 81 78 75 73 71 67 65 60 58 54 58
55 51 49 50 47 47 45 45 46 43 45 50 56 69 73 71 71 72 76 78 78 79 80 82 83 86 88 93 95 98 96 91 82 76 76 73 70 67 63 62 58 63 73
57 58 58 55 57 53 51 54 54 55 56 53 53 58 64 66 67 67 70 72 76 77 78 79 80 85 94 99 98 99 93 79 74 77 72 68 66 68 64 61 62 70 80
60 57 58 58 62 67 61 56 59 59 62 64 59 58 56 57 61 63 70 72 74 74 76 79 84 89 91 95 98 86 74 76 76 71 73 75 66 66 66 69 70 75 82
61 60 60 64 66 70 73 69 69 71 73 76 67 64 66 61 57 61 64 67 71 76 80 84 84 98 98 98 90 78 79 73 77 79 69 66 71 73 74 74 80 81 81
65 66 68 71 71 75 84 87 84 78 80 74 70 68 67 68 68 72 74 74 76 79 87 92 98 98 95 83 81 78 77 79 73 72 83 87 87 86 86 84 82 84 85
71 72 74 75 82 81 84 84 82 83 80 77 78 78 79 84 82 82 84 88 95 98 98 98 97 92 86 80 81 82 84 92 93 92 92 90 87 86 88 87 89 91 91
82 81 84 83 81 79 82 84 83 85 82 84 85 86 88 91 91 93 94 97 98 98 97 96 95 95 95 94 94 94 94 93 92 91 90 92 95 96 96 96 95 95 96
81 82 84 85 85 87 90 92 88 91 90 93 93 95 97 97 96 96 97 97 97 96 96 94 92 95 95 96 97 96 94 93 93 93 93 94 94 94 93 94 95 95 95
93 92 93 93 92 91 93 97 98 99 99 98 97 96 96 97 98 97 97 97 96 96 96 97 96 96 97 97 97 95 94 91 91 90 91 91 91 92 93 94 96 97 98
99 99 97 98 99 99 98 98 98 99 98 98 98 98 96 92 92 95 95 96 96 96 96 97 96 95 95 94 92 91 90 90 91 91 92 92 93 94 95 94 91 85 78
97 98 99 97 97 98 97 98 97 97 96 95 96 97 97 96 96 93 94 93 90 87 86 86 88 90 92 91 91 92 91 92 91 90 86 79 72 69 66 62 58 56 57
91 96 97 97 97 97 97 97 97 96 97 97 96 96 97 97 96 96 96 94 91 88 88 90 92 92 92 91 89 83 75 67 61 56 52 50 48 45 45 47 51 54 56
92 92 92 94 94 96 97 96 96 96 96 95 95 96 97 97 97 94 91 89 90 93 93 91 87 78 68 59 51 47 42 39 38 38 36 34 36 38 40 46 50 55 56
88 91 93 96 97 96 97 97 97 96 96 96 96 96 97 96 96 95 93 88 81 72 61 53 49 43 41 37 35 34 33 31 31 33 36 38 41 44 46 50 53 56 59
93 97 97 96 97 97 97 96 96 97 97 96 95 94 91 85 77 67 58 50 45 39 35 34 32 31 32 31 28 30 31 33 35 38 40 43 48 52 55 57 61 63 65
92 93 95 96 96 96 97 96 93 88 82 75 67 59 54 50 46 39 36 33 30 28 26 26 24 22 23 24 27 31 35 37 38 41 46 50 54 59 64 67 70 72 73
88 83 77 72 69 64 59 55 52 50 49 49 48 44 42 41 36 32 28 26 24 22 21 21 22 24 26 28 31 33 35 38 41 45 50 56 61 67 71 74 77 79 80
57 54 52 51 48 46 45 43 40 38 37 36 35 32 29 27 24 20 20 19 20 21 22 24 26 28 30 32 34 37 40 43 47 52 58 63 69 74 78 81 83 85 86

GFSGL_prec_cthk_081.txt.gz
RH
33 34 36 41 47 55 59 59 62 68 67 68 65 61 61 64 67 71 72 75 76 78 80 81 80 82 84 88 85 85 85 88 95 94 96 93 89 86 64 62 65 60 58
35 36 38 41 46 47 48 55 62 64 63 65 66 63 64 68 70 71 74 77 78 78 81 85 84 84 84 82 86 89 93 94 97 98 98 91 88 81 75 70 70 63 61
38 41 42 42 43 45 45 48 55 61 62 63 66 66 68 66 70 71 72 77 76 75 77 77 79 79 73 78 85 93 96 97 96 99 96 93 88 85 88 85 81 66 65
47 48 46 46 48 47 47 47 51 53 55 55 57 64 63 64 64 69 74 70 71 78 79 81 79 82 85 81 82 87 88 91 98 98 96 86 89 98 95 84 72 68 67
51 51 50 54 55 53 49 49 49 49 51 53 55 59 63 61 63 69 71 72 71 71 77 83 83 89 96 89 88 83 82 88 87 92 93 90 93 95 91 87 74 75 64
52 49 50 49 51 51 53 54 52 50 53 56 53 55 59 58 57 63 68 71 69 69 73 76 85 93 94 92 90 88 95 90 91 87 96 93 90 96 94 88 80 77 71
54 54 54 50 48 49 55 56 55 56 57 55 57 59 58 61 59 61 70 72 74 76 77 74 82 82 84 86 87 90 96 92 88 88 86 98 99 97 95 93 86 74 75
56 54 55 55 53 53 53 53 54 56 56 59 54 56 59 60 63 70 74 75 75 74 76 78 82 80 79 83 88 93 90 87 87 84 99 98 98 99 94 86 76 76 75
55 60 58 59 60 60 56 52 52 50 47 45 47 48 51 55 60 66 79 82 80 80 79 80 81 83 82 82 85 86 89 85 82 87 98 98 98 94 87 74 70 66 77
63 65 67 65 63 58 61 59 59 54 55 58 60 59 61 62 62 63 68 74 77 78 79 77 78 78 78 80 82 83 83 86 90 99 92 97 92 83 72 67 78 76 74
65 65 69 71 70 66 67 65 63 59 63 60 68 72 69 71 74 71 68 67 73 73 73 75 77 78 80 80 81 84 85 86 97 97 92 87 77 78 84 81 75 74 74
63 65 66 72 75 78 73 67 66 64 67 75 73 75 79 80 79 75 69 69 71 71 69 71 75 79 80 84 90 92 86 97 94 87 79 81 86 86 79 81 84 85 85
70 70 69 73 77 83 82 82 80 79 80 80 83 88 87 84 85 83 79 79 79 80 80 82 88 89 90 92 91 92 93 85 80 89 91 87 87 90 94 92 90 87 86
78 78 77 79 80 79 86 88 90 90 91 96 88 92 98 91 88 83 82 80 83 86 91 93 93 95 97 97 95 92 92 95 94 93 96 96 96 95 94 94 95 94 92
86 87 85 84 87 87 90 90 96 99 98 98 98 95 93 94 95 88 84 87 89 94 97 97 96 96 97 96 96 96 96 96 96 96 96 96 96 96 94 93 91 88 90
90 87 90 93 93 94 94 95 99 98 99 99 97 96 98 98 99 97 98 98 98 98 98 97 97 96 96 96 96 96 96 96 95 95 95 94 92 89 88 87 91 93 93
95 94 93 91 96 99 99 99 96 94 96 99 99 99 97 98 97 97 98 98 97 97 96 96 97 97 96 96 96 96 96 93 91 90 87 87 87 89 90 89 88 83 79
92 97 98 98 97 99 98 99 99 98 98 98 98 98 97 97 97 97 97 96 97 97 95 96 96 94 92 93 92 91 88 85 85 85 86 85 80 75 69 64 58 54 52
94 92 93 95 97 98 98 98 97 98 97 97 97 96 96 97 97 97 96 96 97 96 97 96 95 95 94 92 89 87 86 84 78 71 65 59 55 50 46 43 40 39 39
92 94 92 96 97 97 96 96 97 96 97 97 96 96 96 96 97 96 96 96 97 97 95 95 94 94 92 86 78 70 63 58 55 52 49 45 42 40 38 37 35 36 39
96 95 94 93 95 96 97 96 96 97 97 96 96 96 96 96 96 96 96 96 97 96 94 90 81 69 62 55 52 49 45 42 40 36 35 35 34 33 36 38 40 42 46
96 96 96 96 97 97 97 97 97 97 96 96 96 96 97 96 96 96 95 90 80 70 63 58 54 51 48 43 40 37 34 32 31 30 29 30 32 36 41 44 46 49 53
91 93 97 97 97 97 97 96 96 97 97 96 97 96 93 87 78 69 62 58 54 52 44 40 41 35 35 28 25 28 27 27 28 30 32 34 37 40 46 49 53 56 61
96 96 95 96 97 97 95 93 90 86 80 74 68 63 60 56 53 50 46 40 39 38 31 26 23 19 17 18 19 21 26 28 28 30 34 40 42 45 50 55 59 64 68
81 78 76 74 71 69 66 63 60 58 55 53 51 48 44 43 42 39 36 31 24 21 17 16 17 18 19 20 22 24 26 28 31 34 38 42 49 52 56 61 66 70 73
58 59 58 56 54 52 51 50 47 44 43 41 39 36 34 33 31 27 20 17 17 18 19 20 20 22 23 24 27 28 30 33 36 40 45 49 53 59 66 70 71 76 80

GFSGL_prec_cthk_084.txt.gz
RH
27 31 33 37 43 50 57 60 61 63 62 59 60 61 62 63 64 67 68 71 74 78 78 80 85 84 85 88 89 90 91 88 85 86 84 87 90 93 96 91 87 80 76
29 30 32 36 40 45 49 52 54 55 62 62 62 65 67 68 67 68 70 70 73 76 79 80 81 82 84 88 89 90 90 80 82 87 88 91 94 96 97 95 92 88 81
33 35 36 37 41 42 45 50 52 53 56 63 62 61 61 66 71 71 70 72 76 77 80 83 83 84 84 87 88 87 89 86 85 89 87 89 90 96 97 95 91 86 86
43 45 43 43 46 48 51 52 54 54 54 56 58 59 61 61 65 66 67 67 69 74 79 79 80 84 82 87 90 90 89 94 91 85 87 85 88 88 93 91 89 92 96
54 52 49 49 52 55 57 56 56 55 54 56 56 58 60 62 59 62 65 64 64 71 77 80 78 78 77 77 88 90 90 92 95 96 90 92 95 87 85 85 93 97 95
61 58 58 57 56 55 55 54 55 55 52 55 57 57 58 59 58 60 66 68 68 71 69 71 74 73 74 82 82 86 95 96 96 96 89 87 96 98 92 87 87 88 96
58 59 58 57 56 54 54 53 51 54 62 59 58 58 56 58 59 63 66 71 72 71 73 78 78 76 80 82 82 86 90 87 93 89 87 89 98 94 90 94 91 98 98
61 59 58 58 58 58 57 56 56 57 59 60 61 63 63 59 59 57 64 72 76 75 79 82 82 82 86 89 91 92 94 90 85 84 89 91 81 88 84 79 88 96 97
61 64 63 68 67 64 62 59 63 63 63 61 62 63 60 55 54 53 56 58 64 68 72 76 79 82 87 87 87 87 89 89 91 87 84 81 89 84 77 81 92 97 96
68 74 68 70 69 68 67 69 74 70 68 67 68 67 60 61 59 58 61 64 69 70 72 69 70 70 73 75 80 82 81 80 81 77 82 81 93 81 87 95 92 88 80
64 65 69 68 68 72 71 77 77 80 71 72 71 69 71 73 74 72 71 73 73 76 79 78 77 77 79 81 83 83 83 83 81 76 84 82 94 94 89 86 87 89 91
76 74 73 73 75 79 77 74 75 75 74 78 78 76 75 77 79 84 88 85 86 86 88 87 83 80 81 84 83 79 80 89 90 94 98 88 92 95 97 96 95 92 88
78 77 80 81 82 80 81 83 82 83 85 85 90 88 84 83 84 87 91 96 91 97 95 94 94 89 89 89 91 90 95 98 96 95 97 96 96 96 95 95 95 96 95
83 84 83 87 89 91 90 93 95 93 94 93 92 97 94 91 96 97 98 99 98 99 98 98 99 97 93 92 93 96 98 97 97 97 97 96 96 96 96 95 95 95 92
82 91 94 94 92 93 91 98 98 99 98 97 97 96 96 94 95 97 98 99 98 97 96 98 98 97 97 97 97 97 97 96 96 96 96 96 96 96 95 94 90 87 86
71 90 95 96 95 95 97 97 96 99 98 98 95 94 95 95 98 97 97 98 98 97 97 97 97 96 96 96 97 96 96 96 96 96 95 94 93 90 87 86 83 80 73
79 78 91 94 98 99 98 98 95 94 90 92 98 95 97 94 97 97 98 98 97 97 97 97 97 96 95 96 96 96 96 95 93 91 89 87 83 77 68 60 54 52 51
77 82 86 87 96 97 98 97 95 92 97 93 96 98 95 95 97 97 97 96 97 97 96 96 95 96 96 96 96 95 93 90 87 79 69 62 56 51 48 47 45 45 45
84 84 86 96 95 93 92 98 97 96 97 97 95 98 96 97 97 97 96 96 96 96 96 95 97 96 96 96 93 87 77 69 62 56 51 49 47 44 42 42 42 41 40
93 91 92 92 95 98 96 97 95 96 97 96 96 96 96 96 96 96 96 96 95 97 96 96 95 91 83 74 67 62 57 54 51 48 45 42 40 39 38 34 31 32 36
89 90 90 94 97 97 97 96 96 96 95 96 96 97 96 95 96 96 96 96 96 95 87 78 68 62 58 54 51 50 49 45 42 40 38 34 31 28 28 30 32 35 39
97 94 92 90 91 93 95 97 96 94 94 95 96 96 95 96 96 96 92 82 73 65 60 59 55 49 46 42 39 36 35 34 31 28 25 24 26 30 31 33 34 37 41
98 97 97 96 96 95 94 95 94 93 96 97 96 93 88 81 71 62 58 55 49 46 44 42 39 35 31 27 26 26 26 24 22 22 23 24 26 31 33 36 39 42 47
98 97 96 96 97 94 92 88 82 80 75 69 64 60 56 53 49 45 41 39 36 33 29 27 25 24 22 21 21 20 20 22 22 24 25 27 29 32 36 40 45 49 53
74 70 67 65 62 57 53 52 50 49 48 47 46 44 42 41 38 35 30 26 25 23 22 22 21 20 19 20 20 21 22 23 24 26 28 31 35 38 42 49 54 59 62
55 54 54 52 50 49 47 46 44 44 42 41 39 37 34 32 32 29 24 22 21 21 20 20 20 20 21 22 23 24 25 26 28 30 33 37 41 46 51 57 62 66 68

GFSGL_prec_cthk_087.txt.gz
RH
27 28 31 32 36 43 50 57 57 56 58 60 61 63 61 58 61 65 65 69 71 78 83 88 88 89 90 91 90 89 91 95 95 88 89 84 77 83 86 87 89 93 98
35 27 31 34 36 38 42 49 53 52 53 56 62 61 63 64 65 64 61 63 72 72 76 81 78 82 83 85 85 83 87 89 92 92 90 88 83 84 87 89 86 92 96
40 33 32 36 38 39 43 44 47 50 52 52 57 62 59 58 60 62 66 69 71 72 73 75 73 77 78 78 80 82 84 88 88 90 89 90 86 85 89 89 89 92 96
47 43 39 41 44 46 46 47 49 53 53 52 52 54 55 55 53 54 58 63 66 69 69 71 74 76 80 83 84 83 84 86 88 92 95 94 91 92 95 93 90 93 89
54 51 50 51 52 52 51 53 56 56 56 57 57 56 56 54 52 54 58 59 63 68 68 68 69 73 81 82 80 80 82 83 88 88 93 95 94 95 92 91 87 96 97
60 60 59 57 57 57 59 60 61 60 57 56 56 58 57 58 57 58 61 63 64 64 67 69 67 69 70 74 80 81 83 85 93 91 86 92 83 89 94 86 84 86 97
65 65 66 64 59 59 61 63 61 60 61 56 57 65 66 64 62 64 66 69 68 69 67 68 70 69 73 79 85 89 89 90 90 93 88 84 95 83 90 82 82 96 93
77 73 71 71 68 68 67 61 62 66 65 64 61 61 65 67 67 69 72 72 70 67 66 64 66 69 74 80 89 93 93 91 92 91 87 86 80 87 83 97 95 82 82
68 73 75 76 71 70 69 65 66 69 68 68 67 67 65 65 70 71 76 72 68 64 63 63 66 67 69 74 79 84 86 84 83 82 83 78 93 78 77 94 89 81 97
64 70 73 72 72 76 76 78 74 76 73 77 75 79 78 74 72 72 79 79 75 73 74 75 77 79 79 83 86 85 84 86 87 86 80 84 83 86 92 96 88 82 96
63 65 66 65 66 71 73 82 82 80 82 81 84 85 85 82 79 84 83 85 86 86 86 88 89 88 88 88 90 90 90 89 86 80 93 91 97 94 84 88 92 97 95
60 64 64 65 68 68 73 80 87 87 87 85 84 87 89 89 89 88 88 89 85 89 91 94 95 98 98 96 96 95 95 96 98 93 85 88 84 95 94 94 97 97 97
51 55 61 69 68 70 78 83 84 89 92 95 94 94 95 93 92 93 91 93 95 95 94 91 91 90 98 99 99 99 98 97 96 94 97 90 96 97 95 95 97 96 96
52 51 50 58 72 76 82 88 93 94 95 95 97 94 96 98 95 92 89 92 97 94 99 93 98 98 97 96 98 98 97 98 97 97 97 95 96 95 94 95 97 95 94
56 56 54 55 56 69 82 89 95 97 98 92 95 95 98 97 95 97 96 96 95 94 99 98 97 97 97 96 97 97 98 94 97 96 97 95 95 95 95 96 92 89 86
52 51 54 58 60 63 71 80 88 94 95 98 97 94 97 98 97 96 98 95 91 94 99 97 95 97 97 95 97 96 95 95 98 96 96 96 95 93 89 83 76 67 59
58 59 58 58 63 66 76 79 85 94 97 90 95 98 96 96 95 95 96 95 95 92 95 97 96 96 96 97 96 96 96 96 95 91 89 84 76 66 58 53 49 45 41
66 69 72 72 72 70 73 81 87 91 96 96 96 93 98 97 96 94 96 97 96 97 93 97 96 96 97 96 96 95 96 93 85 75 66 58 54 50 45 41 39 37 37
71 74 77 77 79 79 80 80 86 92 93 94 96 94 96 98 97 97 97 96 95 95 95 97 96 96 96 96 91 82 74 64 58 53 49 44 40 38 36 37 36 35 33
80 78 81 84 85 88 89 91 94 96 95 95 97 98 98 95 97 96 96 95 95 96 96 96 95 88 80 72 65 59 55 50 46 43 40 38 36 35 33 30 28 28 30
82 96 93 95 96 95 94 93 94 94 94 92 93 94 97 96 96 96 95 95 95 92 84 74 67 61 57 51 46 44 41 38 36 34 32 30 26 25 25 27 29 29 30
94 96 97 94 94 96 97 96 95 95 96 96 96 95 96 96 95 90 80 71 64 59 54 49 45 42 40 38 36 32 30 27 25 24 24 24 24 24 24 25 27 30 32
97 96 97 98 98 97 96 97 97 97 96 94 89 82 74 63 54 49 46 44 43 40 37 35 32 30 28 26 24 23 23 22 22 22 22 21 21 22 24 26 29 33 37
97 97 97 97 95 90 86 81 76 71 65 58 52 48 46 44 42 39 36 33 31 29 28 26 25 24 22 22 22 22 22 21 19 19 19 21 23 25 28 31 35 40 45
71 69 64 62 60 57 54 52 50 49 47 46 44 41 38 35 33 31 29 27 26 25 24 23 22 21 20 20 19 19 18 19 20 21 22 24 27 30 34 39 44 48 52
57 55 53 52 52 51 49 48 46 45 43 40 38 36 33 29 27 25 24 22 20 19 18 18 18 19 19 19 20 21 21 22 23 25 28 31 34 37 41 45 50 55 58

GFSGL_prec_cthk_093.txt.gz
RH
44 39 24 27 30 33 38 44 47 52 58 62 63 64 65 69 72 71 75 81 82 80 79 79 82 81 82 86 90 90 93 93 91 90 90 90 91 92 92 92 93 91 88
50 45 37 25 29 30 33 40 46 50 51 56 62 65 68 69 65 64 64 68 74 74 77 75 73 78 79 80 89 92 91 93 92 88 88 90 89 89 92 91 87 86 88
57 54 48 37 30 31 34 38 43 48 50 52 54 58 59 63 62 65 64 65 66 68 68 66 69 76 75 78 83 88 89 91 91 91 86 90 91 91 91 89 87 86 84
60 60 58 52 36 34 36 38 42 45 47 52 54 56 56 57 58 58 60 60 62 63 64 64 66 69 71 76 78 80 82 84 86 85 85 84 84 85 86 86 82 83 79
68 65 69 65 55 49 48 48 49 50 53 56 59 60 61 59 57 59 58 58 58 59 60 60 61 63 62 64 68 67 70 73 79 82 84 85 85 86 85 85 82 81 77
75 75 75 75 69 64 65 64 63 61 59 58 59 61 63 62 63 66 66 64 62 61 59 61 63 65 64 66 68 69 69 71 73 73 73 76 79 82 86 85 86 82 80
76 77 79 81 80 81 81 81 82 82 82 78 76 72 68 66 66 66 68 71 74 70 68 69 68 66 69 68 68 68 73 75 75 74 72 73 74 78 82 80 80 88 88
72 75 78 82 83 83 85 86 87 87 87 87 85 85 83 81 82 81 78 75 72 72 73 74 75 75 76 74 76 73 68 71 74 76 77 77 81 80 84 85 87 90 90
69 69 69 72 77 81 85 85 85 87 86 87 90 91 89 86 88 89 89 86 84 79 77 76 77 76 77 80 78 77 76 75 81 76 71 68 69 72 77 79 82 84 82
52 55 60 60 62 65 69 74 79 85 85 87 87 93 96 93 91 91 92 97 91 84 80 79 83 80 81 83 82 81 78 74 76 74 76 76 73 77 80 83 86 87 90
46 46 47 47 52 54 56 59 62 64 72 82 86 87 90 90 89 89 90 92 95 94 97 94 93 84 86 87 93 95 93 88 87 87 85 84 85 83 87 87 87 96 99
45 50 49 45 42 39 39 40 44 49 55 62 67 74 78 81 82 85 89 95 98 97 98 98 97 98 99 94 98 95 98 98 96 95 93 91 89 90 97 95 94 94 97
42 43 47 49 46 43 40 41 43 43 44 47 53 65 68 70 71 74 76 82 91 94 96 96 99 94 93 91 94 97 96 97 98 98 98 98 97 97 97 97 97 96 96
40 41 42 44 45 44 40 35 36 37 37 39 42 44 48 56 63 64 64 72 74 78 82 92 93 92 90 98 93 94 98 96 97 97 96 97 97 97 97 97 96 96 96
42 43 43 42 42 42 41 40 38 37 38 40 41 42 43 45 48 53 56 63 63 85 81 76 81 84 97 95 94 97 98 91 93 96 97 96 96 96 96 96 96 96 94
45 45 45 44 44 44 44 43 43 44 46 47 48 49 50 51 53 54 57 61 62 64 69 75 82 85 84 90 92 96 95 95 96 97 96 96 95 95 96 89 81 76 70
46 47 48 49 50 50 49 48 47 47 49 52 54 56 57 57 59 62 64 66 69 73 75 80 84 86 88 92 94 93 96 96 96 97 95 91 84 77 74 68 64 59 55
48 51 52 51 51 53 53 52 52 54 55 57 58 60 63 64 65 68 71 75 77 80 82 87 94 96 96 97 96 97 96 95 89 83 77 73 67 61 56 52 48 44 42
53 54 54 54 57 58 58 59 61 62 65 67 71 73 74 76 77 80 81 83 87 93 95 97 97 96 96 96 94 87 80 73 67 63 56 52 48 44 40 37 33 31 29
57 58 59 60 61 62 63 64 64 65 70 75 77 78 85 89 90 91 96 96 95 96 96 96 96 92 85 75 68 62 56 53 47 44 41 38 35 32 30 28 26 24 23
65 66 67 66 67 68 71 72 74 75 77 84 93 95 91 93 97 98 98 97 91 82 74 65 58 53 47 44 42 40 38 35 33 30 28 26 25 24 24 23 21 21 20
70 71 73 74 77 80 80 80 82 87 90 93 96 96 96 93 87 76 67 61 55 51 47 45 43 40 38 36 34 32 30 28 27 26 24 23 21 20 20 20 19 19 20
78 81 82 83 85 86 88 91 92 93 91 88 83 76 66 59 54 51 47 46 45 44 41 39 37 36 34 32 31 29 27 26 24 23 21 20 20 20 20 20 21 23 24
86 86 86 87 86 85 84 81 75 68 62 59 57 55 51 48 47 46 45 43 41 39 38 36 35 34 32 30 28 26 24 23 23 22 21 20 20 20 21 22 23 25 27
73 73 73 72 69 66 64 62 60 59 58 56 54 51 49 48 46 42 39 37 36 35 33 32 30 29 27 26 25 24 23 20 19 19 20 20 22 23 24 26 29 31 34
70 70 69 67 64 62 61 60 58 55 53 51 48 47 43 38 37 36 34 32 31 30 28 27 26 25 24 22 20 19 20 20 21 23 25 26 26 28 29 32 34 36 38

GFSGL_prec_cthk_096.txt.gz
RH
58 48 41 28 30 33 36 40 46 49 53 58 60 60 60 62 65 68 72 75 81 82 82 82 81 88 88 89 88 86 86 86 87 87 89 93 92 92 93 93 93 92 93
60 52 45 35 30 32 35 38 45 50 52 54 55 59 62 66 66 68 70 72 72 74 75 77 77 79 79 81 80 78 78 81 84 83 89 90 92 93 92 93 92 89 88
68 59 55 51 37 32 33 36 41 48 52 55 56 58 60 62 63 66 68 68 68 70 74 76 78 73 74 74 75 74 76 78 81 85 87 90 90 92 92 92 89 88 88
78 66 66 62 56 40 35 35 37 43 48 53 56 58 60 62 64 65 66 67 64 66 69 72 75 74 74 75 75 74 76 80 81 84 85 85 84 86 87 86 85 88 85
84 81 78 73 69 62 47 43 42 41 44 49 53 55 59 61 65 68 70 69 67 65 63 65 67 70 71 72 71 67 70 73 73 74 75 76 75 78 75 76 78 80 79
85 85 84 79 76 73 74 62 60 59 57 57 56 56 58 60 64 68 70 71 72 70 68 67 66 67 67 70 70 70 74 73 73 72 72 74 73 71 70 71 70 71 71
83 85 84 82 80 82 81 76 73 74 75 75 78 79 77 74 72 71 73 75 75 74 73 73 71 70 70 70 72 75 76 76 75 77 78 76 77 78 78 77 75 76 74
79 82 83 83 83 83 83 83 83 81 82 82 82 84 86 88 88 89 89 91 90 86 79 71 70 72 76 78 82 84 83 85 85 86 82 82 82 79 79 81 78 78 77
75 75 78 79 80 82 84 85 83 82 82 83 82 86 87 89 87 89 94 94 94 93 95 93 88 85 84 85 83 84 83 85 83 86 88 89 88 86 87 91 89 89 85
57 57 59 64 66 66 70 71 74 78 80 82 86 88 87 88 85 85 89 90 90 89 91 94 93 98 95 93 91 91 92 97 98 94 90 86 86 86 86 92 92 92 92
55 52 49 49 50 52 54 56 58 61 64 68 72 76 79 79 80 83 85 90 91 91 91 92 90 84 90 92 94 99 99 98 96 99 98 99 97 95 94 96 98 98 97
54 52 51 48 44 44 46 47 48 49 49 50 52 55 61 63 66 69 74 80 83 85 87 89 93 95 93 92 95 98 99 97 98 99 99 98 97 98 98 98 98 97 99
54 52 50 46 45 43 41 42 43 43 43 43 44 46 49 47 48 52 55 62 66 69 73 73 77 75 83 79 94 94 80 88 99 92 93 96 97 98 95 96 96 97 97
52 51 51 48 43 39 37 35 35 34 35 35 35 35 36 36 37 38 38 39 42 44 45 50 54 53 63 63 60 73 78 81 78 78 88 94 96 97 96 96 96 96 96
52 52 51 46 44 43 42 40 39 39 39 39 40 40 41 41 42 42 43 45 47 47 48 50 51 51 52 54 57 59 60 67 71 76 82 85 92 93 96 96 95 95 92
47 47 48 49 47 47 47 46 45 43 41 42 43 45 45 46 47 48 49 51 51 53 55 54 55 57 59 59 61 64 68 70 74 78 82 86 90 93 91 87 85 80 77
46 46 48 49 50 50 49 47 48 48 47 47 49 51 53 54 55 56 57 58 60 63 64 66 68 70 71 72 74 75 77 79 80 86 89 86 85 82 76 74 68 66 62
50 51 53 54 54 53 52 52 54 55 54 54 54 55 55 56 59 62 64 69 71 72 73 76 79 82 84 85 85 86 87 85 82 79 74 72 69 65 60 55 52 46 44
58 60 60 60 60 59 59 58 58 58 58 58 59 59 59 61 63 64 70 72 76 81 86 88 89 89 89 87 85 82 77 72 68 64 61 56 53 50 45 41 37 33 31
64 64 64 64 63 64 63 63 64 64 64 64 64 65 67 68 69 71 74 80 88 91 90 91 83 75 68 63 59 56 53 50 45 43 40 37 34 33 32 31 29 28 26
68 67 66 67 68 69 70 71 71 71 70 70 71 72 73 73 77 79 80 77 75 71 67 63 57 55 50 47 45 44 42 39 36 35 34 34 33 31 29 27 25 24 23
72 72 72 73 73 73 73 74 76 76 76 79 79 79 76 72 68 63 59 57 56 57 55 53 49 47 45 43 41 38 37 35 34 34 33 31 29 27 25 24 24 24 23
81 81 81 81 81 82 82 82 82 82 79 73 66 61 55 52 51 51 52 52 50 49 48 47 45 44 42 38 36 35 34 33 32 30 29 27 26 25 25 25 24 24 23
82 82 85 87 87 84 82 79 73 67 63 61 58 56 54 54 53 51 49 48 47 45 43 41 39 37 36 35 34 32 30 28 27 26 25 25 25 24 23 22 23 23 23
61 61 61 62 62 60 59 61 63 62 61 59 57 55 55 52 48 47 46 44 42 39 38 37 36 35 33 31 29 28 27 27 26 25 23 22 22 23 24 25 25 26 27
62 63 62 62 62 61 60 59 58 60 59 57 54 51 49 48 47 45 42 40 38 37 36 34 32 30 28 27 27 27 26 24 22 22 23 24 26 27 27 28 29 32 33

GFSGL_prec_cthk_099.txt.gz
RH
55 53 53 46 33 32 37 38 41 46 51 56 59 59 60 61 63 66 69 73 73 84 86 88 88 89 92 90 86 85 87 93 90 83 84 89 90 92 93 93 92 89 94
53 62 65 50 36 32 37 38 40 44 48 50 54 56 56 59 62 61 61 63 67 68 69 74 74 77 76 76 80 80 84 83 87 82 88 86 84 86 90 92 94 93 91
67 71 69 58 46 35 36 38 38 41 45 49 51 53 55 56 59 60 61 62 64 65 66 70 74 77 75 75 80 79 78 83 82 82 75 77 76 80 82 84 87 89 89
76 77 73 66 58 49 40 38 39 39 42 46 50 52 54 57 59 61 63 64 65 65 67 70 71 73 74 77 80 80 80 81 82 80 76 74 78 77 81 78 83 83 82
82 86 85 83 73 69 54 44 41 39 40 44 48 50 54 56 58 61 64 66 68 68 69 68 65 66 66 70 72 75 75 76 76 73 72 71 68 72 74 75 77 73 74
88 93 92 92 87 83 77 68 60 54 48 46 46 47 50 52 56 63 68 68 68 70 72 72 70 66 65 68 69 70 76 77 76 77 77 77 72 75 77 77 76 75 72
92 93 91 90 89 87 85 84 83 80 75 73 72 70 70 74 77 77 75 74 74 73 71 73 75 76 77 76 75 75 75 77 76 75 78 79 80 82 84 83 83 82 79
95 96 96 92 90 90 87 86 86 86 86 85 82 80 83 82 81 83 86 90 91 89 88 90 90 91 90 87 85 84 83 84 84 85 84 85 88 88 90 91 91 91 90
93 97 94 90 89 89 89 88 88 89 89 88 86 82 83 82 81 85 90 92 90 95 98 97 94 93 96 98 98 98 96 97 94 99 99 98 98 97 97 97 96 97 94
76 77 80 79 81 81 82 82 84 85 87 87 86 85 84 80 76 79 82 84 90 91 90 90 88 89 89 92 96 96 96 96 95 93 98 97 92 97 98 99 98 99 99
68 64 65 62 60 59 62 63 63 65 65 68 75 76 75 74 76 75 79 82 87 88 89 89 90 93 98 94 94 96 94 99 95 98 97 96 98 98 98 97 97 98 98
74 67 61 54 52 52 52 48 46 49 52 55 56 59 58 57 58 60 61 66 70 74 76 78 82 79 77 76 75 90 88 91 83 87 92 89 93 95 97 94 94 90 87
69 70 69 66 62 57 56 53 52 50 46 44 42 43 44 45 45 44 43 42 41 42 45 46 47 48 48 49 51 52 53 57 55 59 64 67 65 74 83 77 70 72 77
65 64 63 59 55 53 52 49 46 43 39 35 35 35 35 35 35 35 35 35 36 37 37 39 40 41 41 42 44 46 49 50 53 56 58 59 60 61 63 67 68 69 72
56 56 55 55 54 52 51 48 43 39 38 38 39 39 39 39 39 39 40 40 40 40 42 43 43 43 44 45 47 49 51 53 55 58 59 60 63 65 67 69 69 69 71
51 49 47 45 44 43 42 43 43 43 42 42 41 40 42 44 44 45 46 45 46 47 48 48 48 50 52 53 55 57 59 61 64 66 69 70 70 68 66 66 66 63 63
50 50 47 45 45 43 44 46 46 46 45 44 45 46 47 47 47 48 49 49 50 53 54 55 56 58 60 62 65 67 70 73 74 72 70 70 67 64 61 59 59 60 60
56 55 55 54 53 54 54 54 53 53 53 52 52 52 52 52 54 55 56 58 58 60 62 64 67 70 73 75 76 75 75 77 75 76 73 71 68 64 61 57 54 50 46
58 58 58 59 60 61 60 60 60 60 59 59 61 61 61 62 62 62 63 63 63 63 65 67 69 69 66 65 65 65 67 65 62 59 55 53 50 47 44 44 41 37 35
65 65 65 65 65 64 64 63 62 62 62 64 66 67 68 68 69 69 69 69 68 65 59 55 52 51 52 53 51 51 55 55 53 49 45 44 43 41 38 36 35 35 34
69 69 68 67 67 67 67 67 67 69 70 72 73 73 74 75 75 74 69 60 56 53 52 50 49 47 47 47 46 45 43 42 42 43 42 40 38 36 35 35 35 35 33
72 71 71 72 73 75 76 76 77 78 78 79 80 78 74 67 60 54 50 48 49 49 48 46 45 44 45 43 42 40 41 42 41 39 36 35 35 34 33 31 29 28 28
78 78 78 78 79 80 81 82 84 84 82 77 68 63 59 56 55 55 53 53 50 48 47 46 43 41 39 37 37 36 35 35 34 34 33 33 31 30 29 28 27 27 28
75 79 81 83 84 83 80 75 69 64 62 60 58 54 52 52 55 56 54 52 49 47 45 44 43 42 40 38 36 36 35 34 33 32 31 29 28 28 28 27 28 27 27
60 60 60 60 61 60 59 58 58 58 60 58 55 52 51 51 52 51 50 50 49 47 46 44 41 39 37 36 35 35 33 31 29 28 28 28 28 27 27 27 28 28 28
60 60 61 62 62 63 63 62 60 57 55 54 53 52 52 51 50 50 49 49 47 45 43 40 39 37 35 32 30 29 29 28 28 27 26 26 26 27 28 29 30 30 31

GFSGL_prec_cthk_102.txt.gz
RH
59 62 66 62 53 41 35 34 35 37 45 51 55 61 63 62 61 65 71 79 86 89 91 95 98 98 98 97 96 96 91 88 87 90 90 92 92 83 83 87 87 88 88
62 67 69 66 58 42 35 35 36 38 43 48 52 53 52 54 56 59 62 67 69 68 70 76 84 88 88 86 83 81 81 83 84 83 84 82 85 88 84 81 81 80 83
68 72 71 69 58 53 40 38 38 40 41 45 49 50 50 51 51 52 53 55 55 56 62 66 69 71 71 75 72 73 77 83 81 78 77 83 86 88 89 87 84 81 78
74 75 74 69 67 62 52 41 40 42 43 45 48 50 51 53 54 54 56 56 57 57 58 59 62 63 65 67 68 69 76 78 78 78 76 77 81 80 83 79 80 79 78
78 80 79 78 75 69 57 48 44 43 44 46 49 52 54 55 56 56 56 57 59 58 60 61 60 60 60 63 66 69 72 72 74 77 76 71 70 72 75 78 79 76 77
80 83 86 88 86 85 78 61 55 49 46 46 49 51 53 55 55 55 57 60 61 65 68 68 68 68 70 72 70 69 71 72 71 73 73 73 70 71 74 78 78 78 76
90 92 92 89 89 88 92 88 77 69 63 61 58 60 65 65 65 67 70 73 76 77 78 77 78 79 80 80 80 81 82 81 82 84 84 84 84 82 79 78 79 81 85
98 96 95 95 92 90 92 93 91 90 88 86 83 82 79 79 80 79 83 85 87 89 91 92 92 94 94 93 94 96 95 94 93 92 90 91 91 89 93 96 98 98 98
97 97 97 98 96 97 97 97 99 97 96 95 94 91 89 90 89 86 88 89 89 90 83 84 90 93 94 93 98 95 98 99 97 98 99 99 98 97 99 99 99 99 98
95 94 98 99 98 98 97 99 98 98 97 96 95 94 93 92 89 88 89 87 87 87 89 86 80 83 91 90 90 92 95 96 95 95 96 96 95 94 98 99 98 99 99
89 85 87 86 86 81 85 85 84 86 87 89 89 91 91 88 87 89 88 88 88 87 86 89 91 88 86 95 91 96 95 99 92 99 97 94 95 97 93 84 82 86 89
87 83 77 78 76 71 69 71 69 67 67 69 68 68 68 66 64 63 63 63 68 70 71 74 73 71 71 68 68 69 69 72 67 64 63 60 61 67 59 55 53 54 55
83 85 86 84 73 63 60 58 58 55 54 55 52 51 52 53 54 51 48 46 46 47 46 44 43 39 38 37 38 38 40 43 44 45 48 50 50 50 52 53 53 53 54
70 73 78 77 73 72 72 73 68 63 60 58 57 56 51 48 47 44 40 37 37 36 37 36 37 37 38 39 40 41 42 42 44 45 46 48 50 50 50 51 53 55 55
62 62 65 66 69 73 73 68 65 61 57 52 49 46 43 41 39 39 38 38 39 39 40 41 42 42 42 42 42 42 44 45 47 49 51 52 54 55 56 56 58 59 59
54 54 54 54 54 53 50 50 50 50 49 46 45 43 41 41 41 41 40 41 41 43 44 44 45 45 45 47 48 49 51 52 54 55 57 59 58 58 58 58 58 60 60
56 56 54 53 53 52 51 49 47 46 46 45 45 44 43 44 44 45 45 46 46 46 46 49 51 52 53 54 54 54 55 55 54 54 54 54 55 58 62 61 64 69 62
63 61 60 59 58 57 57 56 57 56 54 52 51 49 49 49 49 49 49 50 49 52 55 56 57 57 57 56 55 54 51 51 51 50 50 48 47 52 53 56 58 59 55
67 66 66 65 65 63 62 60 60 60 59 59 57 56 55 55 54 54 54 54 56 59 59 60 59 56 52 47 41 38 38 39 39 40 42 40 41 48 48 48 46 43 46
71 71 70 69 69 68 66 66 64 62 60 59 58 58 58 58 59 60 60 61 60 56 52 48 45 44 43 43 43 44 46 44 41 40 39 38 37 41 42 43 43 45 41
71 70 70 70 68 68 67 67 67 66 65 64 64 65 66 67 67 67 63 57 50 47 46 45 41 41 41 41 42 43 43 42 39 38 36 36 36 39 38 37 38 38 34
73 73 73 73 72 72 71 72 72 72 72 72 72 73 71 65 60 56 53 49 47 45 45 46 46 46 45 45 44 42 40 39 39 37 35 33 33 33 35 35 38 39 38
79 80 80 79 79 79 79 79 79 78 77 73 67 60 55 52 51 47 48 50 51 50 49 47 44 43 43 44 44 42 41 39 37 36 35 34 34 37 37 40 36 36 33
58 62 66 68 71 74 74 72 68 64 60 58 56 55 53 51 51 51 50 48 48 47 46 44 42 42 42 44 45 43 40 38 37 36 34 33 32 32 33 34 35 30 34
54 56 55 56 58 57 58 56 55 53 53 54 55 54 53 53 53 51 50 51 49 47 45 44 44 44 45 44 41 39 38 37 36 33 32 32 31 32 31 32 29 33 30
54 56 58 61 61 61 62 62 61 58 57 55 54 55 54 53 52 52 51 50 48 47 46 46 45 43 41 40 39 38 36 34 31 30 30 29 28 28 29 30 31 33 34

GFSGL_prec_cthk_105.txt.gz
RH
56 59 63 65 68 66 66 43 35 34 36 40 46 53 60 64 69 69 68 72 84 92 91 93 93 96 97 99 99 98 97 97 94 93 90 86 86 87 88 86 80 77 75
60 66 68 72 71 69 68 47 37 38 39 40 44 51 55 60 60 60 62 65 70 72 75 79 85 90 94 98 97 95 94 91 86 81 82 79 79 81 79 82 85 86 75
67 71 70 74 76 75 71 52 39 39 41 43 44 48 51 50 50 53 57 58 61 63 62 61 68 72 78 83 83 84 84 82 77 77 78 81 81 80 77 75 77 86 87
75 76 74 77 79 80 76 53 50 46 42 44 46 46 47 50 52 51 52 53 54 56 56 56 58 59 62 64 68 70 72 73 74 74 74 76 77 74 76 75 80 79 78
80 78 78 84 85 85 78 57 57 57 48 46 48 50 50 51 53 54 54 54 55 56 57 57 59 62 64 65 65 66 67 67 67 66 66 70 69 72 75 75 74 73 75
79 82 84 86 87 87 79 66 64 63 55 51 50 53 55 56 52 54 57 59 60 62 65 66 66 67 69 69 68 70 71 72 73 76 75 74 71 75 74 78 79 80 81
88 91 88 87 89 89 85 80 74 69 65 62 57 56 55 52 55 56 59 61 65 70 73 75 77 81 82 84 86 88 87 86 85 86 86 88 89 90 88 90 93 94 94
94 94 95 93 94 94 94 92 89 85 84 75 70 63 61 59 63 68 71 77 80 82 83 86 86 86 87 89 92 94 93 94 94 96 97 94 94 97 98 97 97 96 98
99 98 98 98 98 98 96 97 97 96 92 88 85 81 76 79 83 87 91 93 91 89 88 86 88 89 83 82 84 92 92 92 95 96 96 97 98 97 99 99 99 98 98
95 98 99 99 98 99 99 99 98 98 99 98 97 96 97 96 96 97 98 97 96 94 93 90 89 89 83 82 89 82 84 82 83 89 93 91 96 99 97 98 99 99 95
98 98 98 99 96 98 98 98 98 99 98 98 99 99 98 98 95 95 97 97 97 97 98 97 94 94 87 83 82 87 94 86 91 88 97 89 82 85 85 78 67 64 63
97 97 98 98 96 96 94 95 96 96 96 93 94 95 93 91 88 84 79 80 84 85 85 86 85 84 76 74 71 70 68 61 60 55 53 49 46 46 47 46 45 45 45
88 95 98 96 94 89 86 89 85 82 78 77 75 75 70 69 66 63 62 61 62 60 60 61 60 54 48 42 39 37 37 37 38 40 41 41 42 44 45 45 44 44 45
80 83 85 85 88 92 92 93 87 82 79 74 69 64 61 58 58 57 53 50 50 50 47 44 43 41 39 38 38 38 38 39 39 40 41 41 42 43 44 45 48 50 50
67 67 67 71 75 76 83 87 83 78 76 73 69 64 63 62 59 57 50 50 48 43 40 40 40 40 40 40 40 41 41 41 41 43 45 46 48 50 49 50 52 52 50
65 61 60 58 59 61 60 60 62 64 67 71 73 68 63 60 56 52 50 47 45 45 43 43 43 44 45 45 45 45 45 46 48 49 50 51 52 54 54 52 49 47 44
66 65 62 60 58 56 56 56 54 52 51 50 50 50 49 49 49 48 46 45 46 46 46 47 48 48 48 48 49 50 49 47 48 50 52 53 51 51 50 49 46 43 41
69 67 67 65 63 62 62 61 59 57 56 54 53 52 52 51 50 51 52 53 53 53 53 53 53 53 52 52 52 51 51 47 41 39 35 34 38 37 37 37 38 39 40
73 75 75 74 72 71 70 68 66 65 63 62 62 62 61 61 60 60 59 58 58 57 56 56 54 52 48 46 43 38 34 31 32 36 38 40 44 46 45 44 43 36 38
72 72 73 75 75 75 74 72 72 71 70 70 69 68 68 68 66 65 64 62 60 57 53 51 49 48 47 46 45 44 42 39 38 39 40 42 45 47 46 44 39 42 40
73 73 73 74 74 73 73 73 72 72 73 73 72 71 71 71 70 69 67 62 58 55 54 53 52 50 48 46 45 44 40 43 39 46 44 48 44 47 45 43 42 42 41
71 74 76 78 79 79 79 79 78 78 76 76 76 74 74 72 68 66 63 60 57 56 55 52 48 42 41 42 44 50 45 43 41 40 42 44 46 47 46 45 44 42 41
67 69 71 72 74 75 77 79 80 81 82 81 79 75 72 68 66 64 62 60 58 50 50 49 46 44 44 44 45 42 41 39 39 39 39 44 47 44 45 44 42 41 40
54 54 55 57 61 65 68 69 68 65 67 65 63 63 62 62 60 56 52 51 50 48 48 49 49 49 48 47 45 43 41 40 39 40 39 38 43 43 42 42 41 39 37
55 57 58 59 58 57 56 55 55 55 54 54 55 57 57 58 58 58 52 49 48 48 48 48 49 49 47 45 43 42 42 41 39 38 37 36 40 35 40 36 37 37 35
54 55 56 57 58 58 59 59 58 58 58 58 58 58 58 58 58 57 52 51 50 50 49 47 46 45 45 45 44 43 41 40 38 38 37 35 35 37 35 32 31 32 33

GFSGL_prec_cthk_108.txt.gz
RH
50 52 55 56 58 64 61 67 64 56 36 33 36 42 49 56 63 68 71 74 80 86 90 98 98 97 95 97 99 98 97 97 97 96 94 94 94 92 89 85 85 87 82
51 60 64 62 68 71 68 73 66 61 39 36 38 43 47 54 60 64 62 59 62 67 76 84 94 96 94 95 96 99 99 98 99 97 94 89 85 78 77 78 80 80 80
69 72 71 71 75 76 74 73 72 64 48 40 43 45 48 52 57 56 54 59 60 64 70 72 74 75 78 82 86 92 94 95 93 86 81 81 77 74 76 77 77 77 77
69 71 71 79 80 79 78 74 77 70 56 46 45 47 51 50 52 51 53 54 56 60 62 62 60 61 64 67 70 73 76 74 75 75 75 76 74 73 76 77 76 76 76
75 79 78 84 85 86 81 78 81 75 64 57 57 51 51 52 50 50 51 52 54 55 56 58 59 60 60 60 61 62 63 63 64 65 66 68 69 72 73 75 74 75 77
78 82 87 87 91 89 84 79 83 83 75 64 65 66 58 51 51 52 53 56 58 59 60 60 61 61 61 63 66 69 71 74 74 74 73 72 74 76 80 81 82 84 87
90 90 89 91 91 94 89 87 90 87 81 71 69 70 62 57 57 57 58 60 61 62 62 64 66 67 71 74 80 83 85 85 86 87 88 89 89 89 90 91 94 97 98
96 97 95 96 97 94 95 93 91 91 87 79 73 73 71 70 70 63 62 63 63 65 67 68 70 74 79 84 86 86 88 86 89 91 94 97 97 98 98 98 99 99 99
99 98 97 96 99 97 97 98 95 95 92 83 80 79 78 78 73 71 69 67 67 70 75 83 88 88 88 89 92 92 88 84 84 90 96 96 92 91 95 93 95 96 95
99 99 98 99 98 97 95 99 97 94 96 95 96 96 96 92 80 78 75 71 78 86 92 94 94 93 92 91 92 91 92 84 86 98 94 94 93 90 90 96 97 98 90
97 98 96 98 98 99 96 98 99 97 99 98 98 98 98 99 96 97 97 96 98 99 99 98 95 98 99 99 99 97 96 97 85 87 89 84 94 78 77 65 65 63 59
96 96 97 98 98 96 96 97 98 98 98 98 99 97 97 98 98 97 98 98 98 98 98 98 98 98 95 93 94 92 85 79 76 68 68 61 53 45 41 39 37 37 37
91 92 95 97 98 98 95 97 97 95 97 97 96 97 97 95 90 94 92 92 92 85 83 81 76 71 66 63 60 56 53 50 44 41 40 40 38 37 36 36 36 37 38
77 80 82 85 88 91 94 96 96 96 97 94 91 88 86 84 80 76 76 74 69 68 67 66 64 62 55 49 46 45 43 41 39 39 38 38 38 38 38 39 40 42 42
67 67 68 70 72 76 78 85 87 92 96 94 95 93 93 90 85 82 80 79 79 74 69 62 58 53 50 47 46 43 41 41 41 41 42 42 43 42 42 43 43 43 40
66 66 67 68 66 65 65 67 69 70 72 77 80 83 85 88 87 84 78 74 71 68 63 61 58 53 51 48 45 44 43 44 44 45 44 44 43 44 43 40 40 38 37
69 73 69 65 65 66 63 62 62 62 62 62 63 64 63 62 62 62 64 64 61 58 56 55 53 51 48 46 45 46 45 45 45 44 44 45 45 42 39 35 35 34 31
72 73 74 73 72 71 69 69 68 67 67 66 64 63 63 61 60 58 57 54 53 52 51 50 49 50 50 49 49 48 46 44 39 35 32 31 33 33 33 32 29 31 32
68 70 72 73 74 77 78 78 76 75 73 71 70 68 66 65 63 62 60 57 58 58 57 57 56 54 51 47 46 40 37 36 36 35 33 32 33 32 31 34 36 36 35
63 65 66 68 70 73 74 74 76 78 78 78 77 76 75 73 71 70 68 67 65 64 61 56 52 49 48 45 43 42 37 35 35 35 33 34 35 39 40 39 38 40 39
59 62 65 69 70 72 72 74 76 76 76 78 76 75 76 74 73 73 71 68 64 60 57 52 48 45 44 44 42 39 38 37 37 39 39 39 43 42 45 45 46 45 44
57 59 61 64 65 67 69 71 72 74 77 80 81 79 79 77 73 68 63 59 56 53 52 50 46 44 43 43 44 43 41 41 41 40 40 43 48 48 48 47 45 44 43
49 52 55 59 61 65 67 69 70 71 72 72 72 69 65 63 61 58 55 53 50 49 48 47 46 45 45 43 42 43 43 43 42 43 44 45 47 45 45 46 44 42 39
50 52 54 55 53 54 55 55 56 56 56 56 55 54 54 53 52 49 48 48 46 46 45 44 44 43 42 42 43 43 44 45 45 42 41 40 40 41 41 43 42 42 42
49 51 53 56 58 60 62 60 59 58 56 55 54 54 53 54 55 53 49 47 46 45 44 43 44 44 44 45 45 45 43 42 42 41 42 41 40 41 43 41 41 40 40
41 45 48 51 53 54 56 58 58 58 58 58 58 58 57 56 55 54 49 46 45 45 45 45 46 46 44 43 42 42 42 42 42 41 40 39 38 38 39 39 37 34 32

GFSGL_prec_cthk_111.txt.gz
RH
45 45 46 44 51 59 65 55 54 54 60 70 59 42 38 40 47 55 67 74 81 87 84 91 93 94 97 98 98 96 94 95 94 94 94 94 95 93 95 95 91 89 85
67 60 63 64 62 66 73 62 56 62 66 74 62 45 41 40 48 53 61 66 68 71 76 84 93 95 98 99 98 98 96 98 97 95 95 97 96 96 95 91 86 85 85
71 78 74 71 73 80 80 62 59 69 71 79 64 51 45 44 48 51 58 61 63 64 68 73 75 78 88 95 95 95 96 97 99 98 98 98 95 91 85 81 79 77 77
71 74 76 75 77 88 79 73 73 75 77 81 69 59 51 48 52 53 54 56 57 59 61 64 67 69 69 71 74 79 82 87 94 93 90 86 83 83 79 77 77 74 77
86 72 75 74 80 84 81 75 85 80 84 80 80 74 62 55 52 53 52 54 57 58 58 61 64 63 62 62 63 64 66 68 69 70 68 72 73 73 71 72 71 70 73
79 77 77 74 75 78 78 89 86 84 86 84 83 80 72 66 61 55 54 55 56 57 57 58 59 58 58 59 60 61 62 63 64 63 64 65 67 68 72 73 75 77 82
88 84 82 81 85 90 90 87 95 91 89 87 87 88 75 71 72 69 61 58 57 57 57 59 59 59 60 62 65 68 69 70 72 76 77 81 79 80 82 87 89 90 93
96 93 91 91 89 92 94 97 94 95 94 93 90 89 88 74 76 77 72 71 68 66 62 62 64 64 66 67 68 69 72 77 81 85 84 85 88 92 95 96 97 98 97
98 99 99 95 98 97 94 95 95 95 97 97 96 94 95 85 80 80 80 81 82 79 72 67 67 68 69 72 74 81 85 86 88 90 90 85 83 88 92 93 98 94 91
97 98 99 98 98 96 98 98 95 96 95 98 97 97 98 93 89 85 86 84 88 85 80 75 73 74 75 87 92 94 94 93 92 94 94 87 86 90 97 98 98 96 97
97 97 98 97 98 98 98 94 92 98 93 96 97 99 99 98 97 95 97 95 95 88 85 82 76 82 91 95 98 98 97 97 99 94 99 97 94 89 87 84 76 77 68
88 96 96 95 95 96 97 98 97 97 99 98 98 98 98 97 98 98 99 98 98 97 93 90 96 98 97 98 99 98 99 98 96 95 98 94 86 92 72 62 50 42 38
74 77 81 86 91 96 97 97 97 97 98 97 97 97 96 98 98 98 99 98 98 98 96 97 98 98 99 99 97 96 93 89 85 80 77 68 57 52 45 41 38 36 34
61 65 68 74 77 81 86 92 94 96 96 97 97 98 94 97 97 97 99 98 98 97 96 97 93 86 82 77 77 75 73 71 66 58 52 50 48 46 41 38 37 37 36
64 63 63 65 71 74 74 76 80 83 89 93 95 96 95 96 97 97 97 97 94 94 90 87 80 76 69 69 69 68 68 63 60 58 51 48 45 41 40 38 38 37 36
63 64 63 63 63 64 64 67 71 72 74 75 79 85 88 89 94 93 92 94 95 92 92 92 90 88 86 81 77 71 66 62 56 53 46 46 44 41 39 39 38 36 34
63 66 68 68 68 68 67 67 67 68 70 71 69 71 74 77 74 74 73 73 74 73 75 76 76 76 74 70 66 65 63 58 55 53 48 45 43 42 39 35 32 30 30
61 62 64 65 65 67 70 72 74 76 75 72 71 71 70 71 72 70 68 66 66 65 67 66 65 64 63 62 61 58 56 54 49 45 39 36 34 33 33 32 33 32 30
56 59 61 62 63 64 66 67 69 72 74 77 79 80 80 79 76 73 72 71 69 68 66 64 62 62 61 57 52 49 45 43 42 40 39 38 35 33 32 33 32 32 33
47 49 51 54 58 61 63 64 66 67 68 71 73 76 78 80 82 81 79 78 76 74 70 65 64 60 58 58 55 51 47 44 41 39 37 37 38 36 34 34 34 34 34
46 47 49 52 53 55 56 58 62 65 69 70 72 73 75 77 79 80 80 76 73 69 66 63 60 58 55 52 49 47 43 41 40 39 38 37 37 37 37 38 39 38 37
41 44 48 51 53 55 57 58 59 61 64 66 68 69 72 72 70 67 65 63 61 60 58 55 53 52 50 48 46 45 42 40 38 38 38 38 39 41 42 41 41 40 39
44 44 43 45 48 51 52 55 57 60 63 65 66 64 62 61 59 55 51 50 50 49 47 46 45 43 42 41 41 41 39 38 38 38 38 40 40 41 43 40 39 40 40
44 46 49 50 48 48 49 51 51 51 50 49 48 48 47 46 46 46 45 44 42 43 44 44 44 43 42 41 40 40 40 39 38 38 38 36 36 35 37 38 41 42 43
33 38 44 51 55 58 59 57 55 54 53 53 54 53 53 53 52 49 48 46 44 43 42 41 42 42 41 40 40 38 37 37 37 37 37 36 36 37 38 38 38 39 40
29 30 33 37 42 47 51 54 55 55 55 53 51 52 52 53 52 50 48 46 44 42 42 41 41 41 40 39 39 39 39 38 37 37 37 37 37 36 36 37 38 38 37

GFSGL_prec_cthk_114.txt.gz
RH
47 49 51 47 42 44 54 53 47 57 56 51 51 57 62 62 51 46 48 56 66 76 84 88 89 90 95 98 97 97 96 92 92 89 89 92 93 95 96 95 97 97 96
59 52 51 58 57 60 63 61 58 62 67 57 54 61 64 65 53 49 50 57 65 70 79 82 86 90 94 94 98 98 96 97 96 96 96 95 96 96 96 96 96 96 96
63 65 66 70 72 79 83 74 71 73 81 70 62 67 70 67 59 52 50 54 61 66 68 68 71 81 92 98 97 98 98 98 98 97 97 97 97 98 97 97 97 95 91
74 76 77 81 83 82 83 84 85 89 87 70 71 73 75 72 63 53 55 57 60 63 63 64 70 70 76 81 91 95 98 99 98 97 98 98 99 99 98 98 95 86 82
75 73 80 74 80 85 85 85 88 95 87 79 79 77 78 74 67 60 57 59 60 59 58 59 62 65 68 70 71 75 80 82 82 84 90 96 96 95 90 86 80 80 80
77 84 73 86 79 83 76 86 95 97 94 78 83 82 79 74 71 66 63 62 60 58 57 58 57 60 64 65 64 65 65 68 69 71 71 72 74 69 70 72 71 72 76
81 81 83 78 83 73 85 86 88 90 94 79 83 81 82 86 83 73 66 67 67 62 60 59 58 58 62 62 62 61 61 61 61 66 67 68 65 66 69 72 75 78 78
82 84 85 85 84 80 82 80 81 81 90 93 91 87 87 89 90 88 73 69 70 71 67 63 61 60 61 62 62 62 63 65 66 69 69 70 76 83 86 86 88 92 95
91 96 98 96 92 92 97 97 94 99 95 97 94 91 94 94 95 94 94 81 73 76 78 74 70 75 75 69 68 69 69 69 68 69 74 78 80 86 90 91 86 94 97
92 96 97 98 98 98 98 97 99 97 96 96 96 95 96 99 98 97 98 98 90 79 81 84 85 86 86 82 83 77 77 75 76 80 83 90 93 95 95 93 88 91 93
85 93 96 98 96 97 98 98 97 93 98 99 97 94 92 97 99 99 99 99 98 92 89 90 90 93 94 91 89 85 79 80 88 92 97 98 98 99 99 98 98 98 91
66 69 75 88 95 98 97 97 97 98 97 98 96 98 95 98 99 98 98 98 99 97 96 91 94 96 95 95 94 87 85 91 93 98 97 99 98 98 98 98 94 98 97
63 62 62 65 72 78 85 87 91 95 98 97 97 98 97 95 98 97 95 97 98 98 98 98 99 98 98 97 96 94 94 97 98 99 98 98 98 98 93 87 79 69 62
58 57 56 57 61 65 70 74 79 86 87 90 95 97 96 96 97 97 98 97 98 98 97 98 97 98 98 98 98 98 98 97 98 96 89 83 78 69 64 61 57 58 57
58 57 55 56 57 57 59 61 65 70 77 83 88 90 92 95 96 96 97 96 97 97 97 97 96 96 96 97 95 93 91 91 88 83 81 79 75 73 70 64 60 55 47
56 57 58 59 58 59 60 61 61 61 62 67 69 71 77 84 87 92 94 95 96 96 97 97 96 97 96 96 97 96 94 91 85 81 81 77 73 69 64 58 51 47 45
54 54 55 56 56 57 57 59 62 64 65 66 66 68 69 71 72 75 83 85 88 93 93 93 94 93 93 94 95 94 93 90 85 81 79 75 69 65 63 59 53 46 39
50 50 52 54 55 56 57 58 60 62 63 64 66 69 70 73 74 73 74 75 74 79 81 80 79 78 78 78 79 79 78 76 73 71 67 61 57 53 50 48 46 44 41
45 46 47 48 49 50 52 55 59 61 62 64 66 67 68 70 73 78 79 80 77 77 73 71 72 71 70 68 66 64 60 58 57 57 57 55 54 52 48 44 42 42 40
41 43 46 48 48 49 51 51 53 55 59 63 66 68 68 71 72 72 74 76 76 77 77 76 73 70 68 65 62 60 57 54 51 50 47 46 45 42 41 40 40 38 37
36 37 40 45 49 50 51 52 53 55 56 57 59 62 65 68 72 73 74 74 71 68 66 67 68 67 66 64 62 59 57 54 51 50 49 48 47 45 43 41 40 39 38
36 37 38 40 43 48 50 52 55 58 59 60 61 62 64 63 62 62 61 61 61 60 59 57 57 57 56 56 55 53 50 49 47 46 44 42 41 41 40 39 38 37 36
34 38 41 43 44 45 48 50 52 53 53 53 53 54 54 54 54 53 51 50 49 49 49 48 48 47 45 43 42 41 40 39 39 39 39 39 39 40 39 39 39 38 36
26 30 36 40 44 47 49 51 51 53 55 56 55 52 49 47 46 44 42 42 42 41 40 40 40 41 42 42 41 40 40 40 40 40 40 40 40 39 37 37 37 37 37
23 26 29 31 35 40 45 49 50 50 51 52 52 52 53 54 54 53 51 48 48 47 48 48 47 45 44 43 42 41 41 40 39 39 37 36 35 35 34 35 37 39 39
29 30 30 31 32 34 37 40 43 46 47 48 48 49 52 54 53 53 53 51 48 48 46 44 43 44 43 43 43 42 42 41 40 39 37 36 37 37 37 37 37 36 36

GFSGL_prec_cthk_117.txt.gz
RH
51 49 48 46 44 41 39 46 50 60 65 71 60 59 53 54 55 59 61 54 50 50 57 67 74 82 89 92 96 98 98 97 95 95 96 94 93 90 86 87 91 93 95
59 57 56 54 53 55 49 52 54 57 66 76 73 69 59 55 56 62 59 57 52 51 57 66 73 80 85 88 94 97 97 97 95 93 93 89 88 89 94 95 95 96 96
64 66 67 66 64 62 58 55 59 64 71 78 78 77 73 62 58 63 62 62 55 51 58 62 69 69 73 84 92 94 99 98 97 96 94 95 95 95 95 96 96 96 97
67 68 68 72 72 66 66 72 71 75 82 83 83 86 90 72 66 69 68 65 60 55 56 61 65 66 71 73 74 92 98 99 98 98 98 99 97 98 98 98 98 97 98
66 63 69 72 76 78 85 86 86 95 90 87 88 92 89 82 76 73 74 71 64 59 58 59 61 63 67 69 71 80 84 97 98 99 99 99 99 98 98 98 98 99 98
64 66 71 73 76 76 83 86 91 89 89 91 90 96 93 81 72 74 74 74 71 64 60 60 59 61 63 68 72 68 70 76 76 81 86 86 87 88 93 97 97 96 95
72 70 71 74 78 80 78 83 83 86 84 85 90 97 96 83 82 78 75 79 76 69 63 60 57 58 64 64 64 68 68 68 68 71 73 73 72 75 74 77 76 74 77
80 79 76 75 78 83 78 79 86 81 85 86 96 96 97 85 88 77 79 85 85 79 69 64 66 64 69 66 65 65 67 67 67 66 66 65 67 70 70 70 71 75 76
81 82 83 81 80 83 82 87 79 83 90 99 96 93 98 88 94 84 88 92 91 92 88 77 71 68 69 68 68 68 67 66 66 65 66 69 71 74 75 77 82 85 86
67 77 84 88 88 93 95 94 90 90 96 90 91 89 89 99 97 95 94 94 94 95 96 90 81 77 76 79 74 73 75 78 78 77 74 73 75 77 79 82 86 90 97
61 61 64 73 89 95 93 95 96 96 98 98 98 98 98 97 99 99 99 99 98 99 99 98 98 92 87 84 86 87 86 86 90 86 91 88 79 80 83 90 95 99 99
59 58 56 59 63 69 80 94 97 97 98 99 97 98 98 98 98 98 99 98 97 98 97 96 99 98 97 96 95 97 95 97 96 94 92 91 89 86 92 97 99 98 99
50 51 54 53 54 56 60 64 73 86 94 96 95 94 95 96 97 98 98 98 98 98 99 98 98 98 98 99 98 99 98 98 98 98 98 94 93 90 98 97 99 99 98
51 51 52 51 51 51 51 54 56 62 72 79 80 86 89 92 96 96 96 97 97 97 98 98 97 98 98 98 98 98 98 98 98 98 98 96 94 98 98 94 94 90 87
48 48 49 50 51 52 52 54 56 58 60 61 61 68 77 80 89 94 97 98 96 97 97 97 98 97 97 97 97 97 97 97 98 97 98 97 96 93 89 84 82 78 70
43 44 45 47 48 49 51 54 56 57 59 61 62 63 64 65 72 78 82 89 95 96 96 97 97 97 97 97 97 96 96 96 96 96 94 91 90 89 90 90 87 83 78
41 41 42 42 43 45 48 51 53 55 56 56 58 60 63 66 67 67 67 70 75 82 91 95 97 96 96 96 96 96 97 97 96 97 96 96 93 91 87 85 81 77 74
35 37 40 41 44 46 47 47 49 51 55 58 60 61 62 62 63 65 67 71 69 69 72 72 77 83 87 91 93 95 96 96 95 94 93 91 89 86 81 75 70 66 63
30 32 34 37 39 41 45 48 49 52 53 55 57 60 63 64 65 66 66 67 67 67 67 67 68 69 72 72 71 71 73 75 74 73 71 69 67 66 64 64 63 61 58
27 30 33 35 37 41 44 45 47 49 52 55 57 58 60 62 63 66 68 69 69 68 67 65 64 65 66 65 66 66 64 62 62 60 60 59 57 57 55 53 51 48 46
25 27 30 33 35 36 41 47 50 52 54 54 55 57 58 59 60 61 62 64 65 66 65 65 64 63 61 59 59 57 56 58 59 60 59 57 54 52 51 50 49 48 46
23 25 27 29 34 37 41 44 47 50 50 51 53 54 56 56 57 57 56 55 55 54 53 53 54 56 56 54 53 52 51 51 51 51 51 51 50 49 48 47 45 42 40
18 20 23 25 29 34 39 44 47 49 50 51 51 48 45 42 42 44 46 48 49 50 49 47 46 45 44 44 44 46 47 46 46 45 46 46 46 46 45 43 42 41 39
17 20 24 26 28 31 34 36 37 41 45 50 53 53 54 54 52 48 44 42 40 39 38 40 41 41 41 41 41 41 41 42 42 42 42 42 43 43 42 40 39 37 36
22 26 27 29 30 32 34 34 35 36 37 40 43 47 49 50 52 52 51 49 47 48 48 47 46 47 47 48 48 48 47 46 45 44 44 42 41 40 39 38 37 35 34
28 30 33 34 35 35 35 36 37 36 36 37 38 40 41 43 48 52 53 52 50 49 47 48 49 49 48 46 45 44 43 42 42 42 42 42 40 39 38 36 36 36 36

GFSGL_prec_cthk_120.txt.gz
RH
75 70 62 54 51 48 46 45 49 55 60 64 65 68 71 67 63 64 62 63 63 61 62 50 47 52 61 70 84 86 92 95 98 98 96 96 96 95 94 87 88 85 85
67 62 56 54 53 52 50 50 48 50 52 58 63 66 67 68 70 70 71 65 62 61 59 54 52 52 60 69 75 80 89 93 97 97 97 97 95 95 88 86 87 85 87
69 65 59 59 63 62 61 58 57 56 52 53 62 64 65 72 75 75 79 71 65 63 59 58 54 52 59 67 67 74 84 93 97 98 96 96 98 95 94 92 90 89 93
71 64 66 68 70 69 69 67 69 70 65 65 70 71 72 75 80 82 86 80 70 64 64 63 57 53 58 64 66 70 81 90 95 98 98 97 97 97 94 93 94 96 98
71 69 68 72 77 75 76 76 76 76 74 70 72 77 84 86 87 90 94 90 77 69 69 66 62 59 57 63 64 68 82 75 86 98 99 98 97 97 96 95 95 98 98
67 66 66 70 76 79 78 75 74 79 84 91 92 98 96 93 92 93 95 90 83 79 75 74 69 63 59 61 63 66 67 81 73 90 92 96 98 98 99 99 98 98 97
77 77 74 72 72 79 76 76 78 79 85 88 91 92 93 91 92 99 98 95 89 82 77 76 75 70 62 63 61 64 68 72 70 74 71 80 80 82 87 87 87 87 88
76 79 81 83 81 78 77 78 82 83 84 87 87 94 88 88 95 97 94 95 95 85 85 83 81 79 71 59 57 64 67 65 67 73 73 70 73 74 76 74 78 76 77
61 67 73 81 85 84 83 82 84 87 86 87 86 87 84 83 92 98 98 94 93 89 88 92 94 92 86 75 70 67 69 66 70 66 71 70 71 72 70 69 71 71 72
62 63 61 61 65 77 84 86 85 87 87 89 85 86 96 95 96 99 99 95 99 95 94 98 97 95 94 95 85 77 76 75 73 70 70 71 74 74 74 76 76 76 76
62 61 58 57 59 61 64 74 86 90 94 95 93 91 88 92 96 98 98 99 98 97 99 99 96 97 97 98 98 92 84 84 83 83 77 77 80 84 88 87 87 87 81
49 47 47 48 48 49 51 55 58 68 83 89 95 94 93 93 94 97 98 98 98 98 98 100 98 96 99 99 99 98 97 92 90 90 92 91 91 91 95 96 95 93 94
45 44 43 44 45 45 45 45 47 50 54 63 74 82 92 96 97 97 98 97 97 98 98 99 97 96 97 97 98 99 98 98 98 97 97 97 97 96 98 98 97 96 95
37 37 38 39 41 44 44 46 47 48 50 51 54 58 64 77 87 94 95 97 97 97 97 98 97 97 98 98 99 99 98 98 98 98 98 98 98 98 98 98 98 98 98
34 34 34 35 36 37 40 43 47 49 51 52 53 55 56 57 61 69 77 86 87 89 93 96 97 96 97 97 97 97 97 97 97 98 98 97 97 98 97 95 93 91 90
29 31 33 34 35 37 38 40 42 45 48 52 54 55 56 56 58 60 61 64 68 78 85 91 94 96 97 96 97 97 96 96 97 96 97 97 97 97 97 96 95 92 89
23 24 25 27 29 30 33 36 40 44 45 47 50 53 56 57 58 58 58 60 63 65 66 74 78 87 94 95 96 97 97 96 96 96 96 97 97 96 96 94 90 87 87
20 21 21 23 25 26 29 33 36 39 42 45 48 50 53 54 57 60 60 60 59 60 61 64 69 72 75 79 84 90 95 96 97 97 97 96 97 97 95 91 88 83 79
19 19 21 22 25 26 27 30 34 38 41 44 45 48 51 55 57 58 60 62 63 62 62 60 60 59 60 63 66 70 73 74 75 77 77 78 77 76 76 76 76 74 72
19 20 21 22 23 26 28 30 31 36 39 42 45 47 48 50 53 57 59 59 60 62 63 63 63 62 60 59 58 56 55 57 59 60 61 63 64 63 62 61 60 60 58
20 20 21 22 22 23 26 29 32 35 38 40 41 41 43 47 50 52 53 54 56 57 56 56 57 57 59 60 60 59 58 56 56 54 54 53 51 51 49 51 53 55 56
22 22 22 24 25 25 25 26 29 33 38 42 43 43 42 40 37 38 42 46 49 51 51 52 51 51 51 51 51 50 51 52 52 53 53 53 52 51 50 51 50 49 49
25 26 27 28 29 29 27 28 28 30 32 35 39 43 46 46 47 44 40 38 38 39 42 44 46 47 46 46 45 45 46 46 48 49 51 51 51 50 50 49 49 49 48
31 31 32 32 33 31 31 31 31 32 32 33 33 35 39 45 48 49 49 49 48 45 40 39 38 38 38 39 40 41 43 44 45 45 45 46 46 45 45 45 45 45 44
35 35 36 36 34 34 34 35 37 36 36 35 35 36 36 37 39 44 47 47 46 47 47 47 47 47 47 47 48 49 49 48 48 47 48 47 46 46 45 45 44 43 42
39 38 38 38 37 36 36 38 39 39 39 40 40 39 38 38 38 38 38 39 44 46 47 48 48 49 49 49 48 47 45 45 44 43 43 44 43 44 44 43 42 41 39

GFSGL_prec_cthk_123.txt.gz
RH
81 85 86 81 79 75 72 66 59 57 58 63 65 69 72 66 66 69 73 69 69 68 68 64 70 69 63 55 54 56 68 82 85 86 93 98 98 98 97 94 96 94 89
91 89 86 81 75 71 62 56 51 49 51 57 62 68 71 75 74 72 75 73 73 73 73 71 73 71 63 55 56 54 65 76 82 89 95 98 98 96 97 96 95 96 94
87 83 81 78 77 70 63 60 57 55 56 58 59 59 62 65 69 69 71 70 72 78 77 79 76 72 60 58 59 55 62 69 72 87 92 96 99 98 98 98 98 91 89
81 78 76 76 75 72 69 67 66 66 66 68 66 65 64 60 59 66 73 74 77 82 85 86 80 75 64 61 62 58 61 65 66 79 91 97 99 98 97 98 95 91 88
79 77 74 75 77 75 72 72 72 73 74 77 79 77 76 72 70 75 75 79 89 91 94 92 85 74 66 66 61 61 61 64 65 74 86 93 98 97 96 96 96 94 93
77 75 75 72 71 72 72 74 75 80 79 83 81 81 82 80 78 79 80 87 91 94 98 97 90 77 72 72 67 64 63 63 62 64 80 76 94 98 98 97 98 98 96
69 72 73 76 77 76 74 73 73 76 78 82 84 82 81 99 94 92 93 95 97 98 99 99 93 85 83 79 71 72 65 64 62 62 64 77 73 92 92 98 98 98 98
57 57 60 69 75 78 79 79 77 75 75 80 83 82 81 82 89 96 98 96 97 98 98 98 97 94 91 84 77 80 77 66 63 67 65 68 70 72 73 78 89 92 92
58 57 57 56 57 62 73 82 85 84 82 81 82 85 83 82 85 92 98 96 95 99 97 98 96 94 91 90 81 87 81 79 70 67 66 68 68 72 74 74 75 81 80
55 54 53 52 53 53 54 57 63 80 86 85 84 87 88 85 87 91 94 95 93 91 99 96 98 99 93 88 87 93 90 91 87 78 73 71 74 72 75 74 75 75 76
41 39 39 40 40 42 43 44 47 51 58 69 83 87 88 89 88 86 89 92 98 99 97 98 98 97 97 95 95 99 96 98 99 97 93 86 77 75 81 75 74 79 81
33 32 31 33 34 37 38 41 44 45 45 46 52 58 73 82 91 92 91 86 89 96 97 98 98 98 98 98 95 96 98 99 99 97 98 98 89 86 87 87 83 81 84
29 29 30 30 30 31 32 33 34 38 40 42 43 45 48 51 67 78 90 94 94 96 97 98 98 98 98 99 98 99 99 99 99 99 98 95 97 91 92 94 94 94 93
22 23 22 24 25 25 26 28 30 32 34 36 39 42 45 47 49 53 59 75 89 96 95 97 97 97 97 98 97 98 98 99 99 98 99 99 99 99 98 98 98 98 99
20 20 20 21 22 23 24 25 27 29 31 34 37 39 41 44 47 48 51 54 60 71 84 94 96 96 97 97 97 97 97 97 98 97 98 98 98 98 98 98 98 98 98
17 17 19 20 21 21 22 25 25 26 27 30 32 35 41 45 45 48 50 53 56 59 64 70 81 91 97 97 96 96 97 96 97 97 97 97 97 97 97 97 97 97 97
17 17 18 18 19 21 21 22 22 25 26 26 28 31 35 38 42 46 50 53 54 57 60 64 67 70 73 80 89 93 94 96 97 96 97 96 96 96 97 96 96 96 96
16 17 18 19 21 22 23 24 24 24 24 25 27 29 31 35 39 45 49 53 56 57 58 60 62 63 67 71 72 75 82 89 96 97 96 96 96 96 96 96 96 95 95
17 18 18 20 21 23 24 26 27 27 27 26 27 30 32 35 39 42 47 51 54 56 58 60 62 60 58 57 59 61 64 67 70 74 76 80 86 88 87 87 87 86 84
19 19 20 20 23 24 26 28 28 29 29 28 28 27 26 27 32 40 45 48 52 55 57 58 60 61 62 61 60 59 58 57 56 56 57 59 63 64 64 64 64 63 63
22 22 23 24 26 28 31 32 32 32 30 30 30 30 32 34 35 34 34 38 46 49 50 52 55 56 57 58 57 58 58 58 58 56 54 52 52 51 51 51 52 53 53
25 26 27 28 30 32 35 36 36 36 34 31 29 29 30 33 37 39 41 40 37 38 43 48 48 48 49 50 50 50 51 52 53 54 54 54 54 53 52 50 48 47 47
30 31 32 32 33 35 36 37 37 37 37 35 33 33 32 32 34 38 42 44 46 47 43 39 38 41 42 42 43 45 46 46 47 48 49 49 51 52 52 51 50 49 49
36 36 36 35 33 31 31 33 35 37 38 38 37 38 37 36 36 35 37 41 42 45 46 48 47 45 41 40 38 38 39 38 40 42 43 44 45 46 46 46 46 45 45
42 40 34 29 27 29 31 33 36 40 40 39 40 40 40 41 40 39 38 37 37 40 44 45 46 47 48 48 49 49 49 48 48 48 48 47 47 47 47 46 45 44 44
42 35 29 28 31 34 36 38 40 41 41 42 44 44 43 43 43 43 42 41 40 39 38 39 41 44 47 48 49 49 48 48 48 46 46 45 44 44 43 43 43 42 42

GFSGL_prec_cthk_126.txt.gz
RH
82 77 78 71 70 71 68 63 65 70 71 76 77 77 73 71 74 84 85 88 77 67 72 73 72 77 75 73 67 73 69 56 57 55 65 77 83 89 94 97 98 98 98
75 79 69 73 80 79 77 79 80 78 79 79 78 75 72 74 77 79 80 80 76 77 77 80 77 78 77 73 70 75 72 56 57 54 57 68 79 88 94 97 98 99 98
87 84 90 89 94 88 86 83 84 82 78 74 68 64 65 70 71 76 75 81 78 79 80 80 78 79 83 80 76 78 72 59 58 57 58 61 68 88 91 97 97 96 95
96 94 96 91 94 90 87 86 84 80 81 71 70 69 67 65 63 66 69 71 80 82 80 80 83 83 84 85 84 82 75 62 60 61 60 62 66 81 93 95 95 96 97
97 94 92 91 88 84 83 81 85 83 79 77 76 78 79 76 72 69 68 67 65 64 65 73 80 85 85 91 92 83 76 70 63 64 61 64 66 75 90 96 97 98 98
95 91 89 85 81 81 78 81 83 80 83 78 80 79 77 79 83 78 77 78 77 77 79 81 81 87 95 98 94 86 79 76 68 67 65 62 64 74 85 87 96 98 97
69 69 69 71 74 75 76 77 75 73 77 76 74 77 81 82 79 82 82 88 86 86 86 86 84 91 96 99 98 90 85 81 74 68 71 65 63 64 78 80 90 97 96
64 62 61 59 56 55 59 66 71 75 75 73 71 71 71 75 86 88 97 87 95 98 95 99 96 97 97 98 98 95 91 85 80 75 75 72 68 67 67 77 78 83 94
57 54 52 50 49 49 49 49 49 54 62 70 75 73 68 69 78 84 81 81 94 98 99 98 98 98 95 95 99 96 96 94 87 85 85 82 73 69 72 71 72 73 79
37 37 38 37 37 38 38 39 39 40 43 48 54 62 67 72 75 78 82 86 88 89 93 97 97 98 98 99 96 98 97 96 94 86 86 87 84 83 77 69 72 72 73
29 27 26 26 27 28 29 29 29 30 32 33 35 40 48 56 67 73 83 86 89 90 90 93 98 95 92 97 96 98 98 98 99 92 85 85 85 90 91 83 75 72 73
24 25 23 21 21 21 21 22 23 24 26 27 29 30 32 35 40 48 62 72 85 92 90 90 95 98 98 98 98 99 98 99 97 96 96 94 98 98 97 98 97 94 90
17 16 18 14 15 15 13 13 15 16 19 22 24 24 27 30 32 34 39 45 59 74 86 94 91 94 94 95 98 98 98 98 98 98 98 98 99 97 95 98 98 98 98
16 17 17 17 17 18 18 17 16 15 16 19 19 21 22 23 24 29 34 37 41 46 56 70 85 94 94 94 97 97 97 98 98 98 98 98 96 95 96 97 98 98 98
16 17 18 19 19 19 21 20 21 21 22 22 23 24 24 24 24 27 29 32 39 44 47 51 57 69 84 94 95 96 96 97 96 97 97 97 98 98 98 98 98 98 98
19 20 20 21 21 21 22 23 23 21 22 23 24 24 26 26 25 25 27 32 36 40 46 51 54 57 62 69 82 95 96 96 96 96 96 96 97 97 97 98 97 97 97
24 21 24 24 24 24 24 25 25 26 26 25 24 24 25 26 28 28 29 30 32 35 43 50 56 59 61 64 67 70 81 96 96 96 96 96 97 97 96 97 97 96 97
22 21 26 27 27 27 27 27 26 27 27 28 29 23 23 24 27 31 33 34 37 39 43 48 55 58 62 66 67 69 71 73 79 93 96 96 96 96 96 96 96 97 96
22 21 24 30 29 29 29 30 30 31 30 30 30 30 27 28 29 27 28 37 40 43 46 50 54 58 61 62 62 63 65 67 71 76 82 89 93 96 97 97 96 96 96
29 25 24 33 33 32 33 34 35 37 40 40 34 30 25 32 36 38 38 36 36 42 48 52 54 56 59 64 66 65 66 66 65 64 64 65 68 71 72 76 79 82 85
32 35 32 37 37 36 36 39 41 44 42 40 37 29 26 29 30 33 37 41 41 39 39 47 51 49 53 57 62 63 64 66 69 69 67 65 63 62 62 64 62 63 64
37 39 41 41 40 39 38 36 34 35 37 37 37 36 31 35 34 33 33 36 42 47 48 44 43 44 46 47 49 51 57 57 57 61 65 65 64 63 62 62 61 60 58
46 45 45 44 42 38 34 30 30 32 35 38 40 41 40 38 37 37 37 36 38 44 46 49 47 41 36 37 41 44 47 49 50 52 55 58 60 61 61 61 61 60 58
52 50 48 44 38 33 29 30 33 38 36 40 41 43 45 44 43 42 40 39 39 39 41 45 47 48 51 49 45 40 38 39 41 41 42 49 51 52 53 54 54 51 50
56 53 46 39 33 30 32 35 39 41 42 43 43 44 46 45 47 46 44 44 43 42 42 39 39 45 47 48 49 50 50 50 49 50 50 54 52 51 55 55 55 55 52
59 50 40 34 32 34 36 40 42 42 43 46 46 47 47 46 46 47 47 47 46 45 44 44 41 38 39 41 46 49 49 49 49 49 50 53 55 56 56 51 48 52 51

GFSGL_prec_cthk_129.txt.gz
RH
87 83 88 93 90 97 92 85 84 72 63 63 67 66 68 74 77 71 73 77 79 79 84 84 85 92 88 85 88 87 83 81 76 66 73 62 56 56 65 73 77 83 95
92 96 91 87 92 93 87 77 70 71 72 73 72 67 66 73 71 69 75 79 78 78 85 87 90 96 83 88 89 88 84 83 81 73 73 72 58 55 58 62 70 85 91
94 93 95 89 79 76 68 72 78 80 81 77 72 73 74 72 73 75 80 81 80 81 90 93 91 89 88 91 91 88 86 87 88 81 77 75 58 58 59 61 65 83 89
90 84 84 85 69 69 77 80 79 88 83 77 83 84 84 80 77 75 75 77 77 78 78 85 87 91 93 93 92 89 88 88 92 87 83 80 64 58 58 59 63 73 88
92 96 93 90 88 85 86 94 92 85 97 92 93 93 92 88 86 85 85 78 78 79 80 79 87 90 91 95 91 87 90 91 91 89 89 84 69 61 58 60 62 73 90
90 95 93 91 91 90 96 89 86 89 82 87 90 91 83 89 94 95 99 93 88 86 85 84 82 80 78 85 83 82 88 87 91 95 92 85 73 69 64 65 64 67 84
71 67 66 67 69 71 73 74 78 80 78 74 77 79 90 84 90 87 84 81 80 92 93 86 87 82 80 77 78 86 88 91 97 99 95 88 80 77 70 71 67 66 71
64 63 61 61 58 55 52 49 52 58 62 66 67 69 69 69 72 71 77 83 90 85 86 90 83 93 91 86 86 97 94 92 97 96 98 96 88 86 80 74 71 68 69
40 42 41 39 38 38 37 37 39 40 41 44 48 52 56 61 62 62 63 65 69 81 98 98 98 98 96 94 94 97 99 99 98 98 97 98 97 94 88 85 81 73 70
30 27 25 23 23 23 24 24 26 27 27 26 26 26 27 30 35 45 57 61 62 67 73 83 91 93 89 89 95 99 99 99 98 97 97 98 98 96 88 91 88 81 81
25 22 18 19 16 15 14 14 15 17 17 17 18 20 21 23 24 25 28 33 47 58 62 64 74 81 84 88 90 94 97 98 98 97 99 94 96 96 96 96 92 90 82
17 17 17 17 18 15 12 11 12 12 12 12 12 12 14 15 18 20 23 26 28 31 39 54 66 72 82 89 88 94 98 99 98 99 99 98 97 99 96 92 94 91 94
15 15 15 16 16 17 17 13 11 12 15 16 16 17 15 13 14 15 16 19 22 26 30 35 40 53 68 75 87 91 97 96 98 98 99 98 99 99 98 98 94 94 92
15 15 16 17 17 19 19 19 19 16 17 18 15 18 18 15 14 14 15 17 19 21 24 28 34 39 44 55 69 79 88 94 97 97 98 98 98 98 98 98 99 99 97
17 18 20 20 20 20 22 21 22 20 18 18 16 17 18 18 19 21 22 23 24 24 27 27 28 34 41 48 50 56 73 83 93 96 97 97 97 97 97 97 97 98 98
22 22 23 24 24 24 24 26 29 24 23 23 21 19 19 19 17 19 21 24 27 29 30 31 33 35 37 42 51 55 58 61 74 90 97 96 97 96 96 97 96 97 97
27 24 28 28 27 27 27 27 27 28 28 28 26 25 21 22 22 21 20 25 29 30 34 34 36 37 39 43 48 54 61 63 63 66 77 91 97 97 96 96 96 96 96
24 23 26 31 31 30 30 30 34 38 36 34 32 26 19 20 24 25 24 29 30 33 38 40 41 42 43 46 49 53 58 63 67 67 70 74 78 93 97 96 96 96 96
28 30 26 34 34 33 37 42 41 40 39 37 36 29 22 19 23 23 24 28 31 31 35 41 45 48 49 52 55 53 57 63 66 72 74 74 74 78 83 92 97 96 96
31 36 37 37 37 41 45 44 43 40 37 35 34 30 24 23 28 29 28 27 30 37 37 39 42 45 49 53 56 61 64 64 65 69 74 74 76 76 78 81 89 97 96
34 40 42 42 41 46 47 43 41 38 36 34 34 34 29 28 36 37 38 32 32 35 41 46 45 41 44 52 55 59 62 65 67 71 77 79 76 78 78 75 73 76 81
38 45 47 46 48 48 40 43 39 37 35 35 34 35 36 38 39 40 41 37 36 36 36 42 50 52 48 45 50 56 58 60 63 67 71 79 82 84 85 78 77 75 75
44 51 52 53 51 44 41 41 38 37 36 36 37 39 40 41 42 42 43 42 41 43 41 40 42 50 55 54 49 48 50 51 57 61 62 68 75 75 80 81 78 74 71
52 58 58 60 55 43 42 39 38 37 38 40 41 43 44 44 44 44 45 46 43 44 44 42 42 42 46 50 53 56 54 48 46 47 52 58 63 68 75 75 68 67 66
60 65 69 60 49 43 40 39 39 40 41 44 46 47 47 47 48 48 47 48 47 46 47 46 45 44 42 44 46 51 53 55 56 56 57 62 61 60 58 59 60 61 59
68 70 62 49 44 41 40 40 42 44 46 48 49 51 52 52 51 52 51 51 51 45 48 50 49 47 46 45 41 40 44 51 54 53 54 60 60 61 62 63 61 66 60